[[{"header":{"parameterUnit":"m.s-1","parameterCategory":1,"la1":31.0,"la2":29.5877,"lo1":-88.7671,"lo2":-86.6584,"dy":0.0162,"dx":0.0185,"nx":115,"ny":88,"refTime":"2023-04-24T12:00:00:Z","depth":0,"parameterNumber":2,"parameterNumberName":"U-component_of_WINDS"},"data":[0.0,0.0,0.0,0.0,0.0,0.0,0.0,0.0,0.0,0.0,0.0,0.0,0.0,0.0,0.0,0.0,0.0,0.0,0.0,0.0,0.0,0.0,0.0,0.0,0.0,0.0,0.0,0.0,0.0,0.0,0.0,0.0,0.0,0.0,0.0,0.0,0.0,0.0,0.0,0.0,0.0,0.0,0.0,0.0,0.0,0.0,0.0,0.0,0.0,0.0,0.0,0.0,0.0,0.0,0.0,0.0,0.0,0.0,0.0,0.0,0.0,0.0,0.0,0.0,0.0,0.0,0.0,0.0,0.0,0.0,0.0,0.0,0.0,0.0,0.0,0.0,0.0,0.0,0.0,0.0,0.0,0.0,0.0,0.0,0.0,0.0,0.0,0.0,0.0,0.0,0.0,0.0,0.0,0.0,0.0,0.0,0.0,0.0,0.0,0.0,0.0,0.0,0.0,0.0,0.0,0.0,0.0,0.0,0.0,0.0,0.0,0.0,0.0,0.0,0.0,0.0,0.0,0.0,0.0,0.0,0.0,0.0,0.0,0.0,0.0,0.0,0.0,0.0,0.0,0.0,0.0,0.0,0.0,0.0,0.0,0.0,0.0,0.0,0.0,0.0,0.0,0.0,0.0,0.0,0.0,0.0,0.0,0.0,0.0,0.0,0.0,0.0,0.0,0.0,0.0,0.0,0.0,0.0,0.0,0.0,0.0,0.0,0.0,0.0,0.0,0.0,0.0,0.0,0.0,0.0,0.0,0.0,0.0,0.0,0.0,0.0,0.0,0.0,0.0,0.0,0.0,0.0,0.0,0.0,0.0,0.0,0.0,0.0,0.0,0.0,0.0,0.0,0.0,0.0,0.0,0.0,0.0,0.0,0.0,0.0,0.0,0.0,0.0,0.0,0.0,0.0,0.0,0.0,0.0,0.0,0.0,0.0,0.0,0.0,0.0,0.0,0.0,0.0,0.0,0.0,0.0,0.0,0.0,0.0,0.0,0.0,0.0,0.0,0.0,0.0,0.0,0.0,0.0,0.0,0.0,0.0,0.0,0.0,0.0,0.0,0.0,0.0,0.0,0.0,0.0,0.0,0.0,0.0,0.0,0.0,0.0,0.0,0.0,0.0,0.0,0.0,0.0,0.0,0.0,0.0,0.0,0.0,0.0,0.0,0.0,0.0,0.0,0.0,0.0,0.0,0.0,0.0,0.0,0.0,0.0,0.0,0.0,0.0,0.0,0.0,0.0,0.0,0.0,0.0,0.0,0.0,0.0,0.0,0.0,0.0,0.0,0.0,0.0,0.0,0.0,0.0,0.0,0.0,0.0,0.0,0.0,0.0,0.0,0.0,0.0,0.0,0.0,0.0,0.0,0.0,0.0,0.0,0.0,0.0,0.0,0.0,0.0,0.0,0.0,0.0,0.0,0.0,0.0,0.0,0.0,0.0,0.0,0.0,0.0,0.0,0.0,0.0,0.0,0.0,0.0,0.0,0.0,0.0,0.0,0.0,0.0,0.0,0.0,0.0,0.0,0.0,0.0,0.0,0.0,0.0,0.0,0.0,0.0,0.0,0.0,0.0,0.0,0.0,0.0,0.0,0.0,0.0,0.0,0.0,0.0,0.0,0.0,0.0,0.0,0.0,0.0,0.0,0.0,0.0,0.0,0.0,0.0,0.0,0.0,0.0,0.0,0.0,0.0,0.0,0.0,0.0,0.0,0.0,0.0,0.0,0.0,0.0,0.0,0.0,0.0,0.0,0.0,0.0,0.0,0.0,0.0,0.0,0.0,0.0,0.0,0.0,0.0,0.0,0.0,0.0,0.0,0.0,0.0,0.0,0.0,0.0,0.0,0.0,0.0,0.0,0.0,0.0,0.0,0.0,0.0,0.0,0.0,0.0,0.0,0.0,0.0,0.0,0.0,0.0,0.0,0.0,0.0,0.0,0.0,0.0,0.0,0.0,0.0,0.0,0.0,0.0,0.0,0.0,0.0,0.0,0.0,0.0,0.0,0.0,0.0,0.0,0.0,0.0,0.0,0.0,0.0,0.0,0.0,0.0,0.0,0.0,0.0,0.0,0.0,0.0,0.0,0.0,0.0,0.0,0.0,0.0,0.0,0.0,0.0,0.0,0.0,0.0,0.0,0.0,0.0,0.0,0.0,0.0,0.0,0.0,0.0,0.0,0.0,0.0,0.0,0.0,0.0,0.0,0.0,0.0,0.0,0.0,0.0,0.0,0.0,0.0,0.0,0.0,0.0,0.0,0.0,0.0,0.0,0.0,0.0,0.0,0.0,0.0,0.0,0.0,0.0,0.0,0.0,0.0,0.0,0.0,0.0,0.0,0.0,0.0,0.0,0.0,0.0,0.0,0.0,0.0,0.0,0.0,0.0,0.0,0.0,0.0,0.0,0.0,0.0,0.0,0.0,0.0,0.0,0.0,0.0,0.0,0.0,0.0,0.0,0.0,0.0,0.0,0.0,0.0,0.0,0.0,0.0,0.0,0.0,0.0,0.0,0.0,0.0,0.0,0.0,0.0,0.0,0.0,0.0,0.0,0.0,0.0,0.0,0.0,0.0,0.0,0.0,0.0,0.0,0.0,0.0,0.0,0.0,0.0,0.0,0.0,0.0,0.0,0.0,0.0,0.0,0.0,0.0,0.0,0.0,0.0,0.0,0.0,0.0,0.0,0.0,0.0,0.0,0.0,0.0,0.0,0.0,0.0,0.0,0.0,0.0,0.0,0.0,0.0,0.0,0.0,0.0,0.0,0.0,0.0,0.0,0.0,0.0,0.0,0.0,0.0,0.0,0.0,0.0,0.0,0.0,0.0,0.0,0.0,0.0,0.0,0.0,0.0,0.0,0.0,0.0,0.0,0.0,0.0,0.0,0.0,0.0,0.0,0.0,0.0,0.0,0.0,0.0,0.0,0.0,0.0,0.0,0.0,0.0,0.0,0.0,0.0,0.0,0.0,0.0,0.0,0.0,0.0,0.0,0.0,0.0,0.0,0.0,0.0,0.0,0.0,0.0,0.0,0.0,0.0,0.0,0.0,0.0,0.0,0.0,0.0,0.0,0.0,0.0,0.0,0.0,0.0,0.0,0.0,0.0,0.0,0.0,0.0,0.0,0.0,0.0,0.0,0.0,0.0,0.0,0.0,0.0,0.0,0.0,0.0,0.0,0.0,0.0,0.0,0.0,0.0,0.0,0.0,0.0,0.0,0.0,0.0,0.0,0.0,0.0,0.0,0.0,0.0,0.0,0.0,0.0,0.0,0.0,0.0,0.0,0.0,0.0,0.0,0.0,0.0,0.0,0.0,0.0,0.0,0.0,0.0,0.0,0.0,0.0,0.0,0.0,0.0,0.0,0.0,0.0,0.0,0.0,0.0,0.0,0.0,0.0,0.0,0.0,0.0,0.0,0.0,0.0,0.0,0.0,0.0,0.0,0.0,0.0,0.0,0.0,0.0,0.0,0.0,0.0,0.0,0.0,0.0,0.0,0.0,0.0,0.0,0.0,0.0,0.0,0.0,0.0,0.0,0.0,0.0,0.0,0.0,0.0,0.0,0.0,0.0,0.0,0.0,0.0,0.0,0.0,0.0,0.0,0.0,0.0,0.0,0.0,0.0,0.0,0.0,0.0,0.0,0.0,0.0,0.0,0.0,0.0,0.0,0.0,0.0,0.0,0.0,0.0,0.0,0.0,0.0,0.0,0.0,0.0,0.0,0.0,0.0,0.0,0.0,0.0,0.0,0.0,0.0,0.0,0.0,0.0,0.0,0.0,0.0,0.0,0.0,0.0,0.0,0.0,0.0,0.0,0.0,0.0,0.0,0.0,0.0,0.0,0.0,0.0,0.0,0.0,0.0,0.0,0.0,0.0,0.0,0.0,0.0,0.0,0.0,0.0,0.0,0.0,0.0,0.0,0.0,0.0,0.0,0.0,0.0,0.0,0.0,0.0,0.0,0.0,0.0,0.0,0.0,0.0,0.0,0.0,0.0,0.0,0.0,0.0,0.0,0.0,0.0,0.0,0.0,0.0,0.0,0.0,0.0,0.0,0.0,0.0,0.0,0.0,0.0,0.0,0.0,0.0,0.0,0.0,0.0,0.0,0.0,0.0,0.0,0.0,0.0,0.0,0.0,0.0,0.0,0.0,0.0,0.0,0.0,0.0,0.0,0.0,0.0,0.0,0.0,0.0,0.0,0.0,0.0,0.0,0.0,0.0,0.0,0.0,0.0,0.0,0.0,0.0,0.0,0.0,0.0,0.0,0.0,0.0,0.0,3.6868,0.0,0.0,0.0,0.0,0.0,0.0,0.0,0.0,0.0,0.0,0.0,0.0,0.0,0.0,0.0,0.0,0.0,0.0,0.0,0.0,0.0,0.0,0.0,0.0,0.0,0.0,0.0,0.0,0.0,0.0,0.0,0.0,0.0,0.0,0.0,0.0,0.0,0.0,0.0,0.0,0.0,0.0,0.0,0.0,0.0,0.0,0.0,0.0,0.0,0.0,0.0,0.0,0.0,0.0,0.0,0.0,0.0,0.0,0.0,0.0,0.0,0.0,0.0,0.0,0.0,0.0,0.0,0.0,0.0,0.0,0.0,0.0,0.0,0.0,0.0,0.0,0.0,0.0,0.0,0.0,0.0,0.0,0.0,0.0,0.0,0.0,0.0,0.0,0.0,0.0,0.0,0.0,0.0,0.0,0.0,0.0,0.0,0.0,0.0,0.0,0.0,0.0,0.0,0.0,0.0,0.0,0.0,0.0,0.0,0.0,4.0084,3.9386,4.0487,3.9861,3.723,0.0,0.0,0.0,0.0,0.0,0.0,0.0,0.0,0.0,0.0,0.0,0.0,0.0,0.0,0.0,0.0,0.0,0.0,0.0,0.0,0.0,0.0,0.0,0.0,0.0,0.0,0.0,0.0,0.0,0.0,0.0,0.0,0.0,0.0,0.0,0.0,0.0,0.0,0.0,0.0,0.0,0.0,0.0,0.0,0.0,0.0,0.0,0.0,0.0,0.0,0.0,0.0,0.0,0.0,0.0,0.0,0.0,0.0,0.0,0.0,0.0,0.0,0.0,0.0,0.0,0.0,0.0,0.0,0.0,0.0,0.0,0.0,0.0,0.0,0.0,0.0,0.0,0.0,0.0,0.0,0.0,0.0,0.0,0.0,0.0,0.0,0.0,0.0,0.0,0.0,0.0,0.0,0.0,0.0,0.0,0.0,0.0,0.0,0.0,0.0,0.0,0.0,0.0,0.0,0.0,0.0,0.0,0.0,0.0,0.0,0.0,0.0,4.1222,4.0414,3.7852,0.0,0.0,0.0,0.0,0.0,0.0,0.0,0.0,0.0,0.0,0.0,0.0,0.0,0.0,0.0,0.0,0.0,0.0,0.0,0.0,0.0,0.0,0.0,0.0,0.0,0.0,0.0,0.0,0.0,0.0,0.0,0.0,0.0,0.0,0.0,0.0,0.0,0.0,0.0,0.0,0.0,0.0,0.0,0.0,0.0,0.0,0.0,0.0,0.0,0.0,0.0,0.0,0.0,0.0,0.0,0.0,0.0,0.0,0.0,0.0,0.0,0.0,0.0,0.0,0.0,0.0,0.0,0.0,0.0,0.0,0.0,0.0,0.0,0.0,0.0,0.0,0.0,0.0,0.0,0.0,0.0,0.0,0.0,0.0,0.0,0.0,0.0,0.0,0.0,0.0,0.0,0.0,0.0,0.0,0.0,0.0,0.0,0.0,0.0,0.0,0.0,0.0,0.0,0.0,0.0,0.0,0.0,0.0,0.0,0.0,4.1323,4.2066,4.2845,0.0,3.8799,0.0,0.0,0.0,0.0,0.0,0.0,0.0,0.0,0.0,0.0,0.0,0.0,0.0,0.0,0.0,0.0,0.0,0.0,0.0,0.0,0.0,0.0,0.0,0.0,0.0,0.0,0.0,0.0,0.0,0.0,0.0,0.0,0.0,0.0,0.0,0.0,0.0,0.0,0.0,0.0,0.0,0.0,0.0,0.0,0.0,0.0,0.0,0.0,0.0,0.0,0.0,0.0,0.0,0.0,0.0,0.0,0.0,0.0,0.0,0.0,0.0,0.0,0.0,0.0,0.0,0.0,0.0,0.0,0.0,0.0,0.0,0.0,0.0,0.0,0.0,0.0,0.0,0.0,0.0,0.0,0.0,0.0,0.0,0.0,0.0,0.0,0.0,0.0,0.0,0.0,0.0,0.0,0.0,0.0,0.0,0.0,0.0,0.0,0.0,0.0,0.0,0.0,0.0,0.0,0.0,0.0,0.0,0.0,0.0,0.0,4.0645,4.2278,4.1423,4.0019,0.0,0.0,0.0,0.0,0.0,0.0,0.0,0.0,0.0,0.0,0.0,0.0,0.0,0.0,0.0,0.0,0.0,0.0,0.0,0.0,0.0,0.0,0.0,0.0,0.0,0.0,0.0,0.0,0.0,0.0,0.0,0.0,0.0,0.0,0.0,0.0,0.0,0.0,0.0,0.0,0.0,0.0,0.0,0.0,0.0,0.0,0.0,0.0,0.0,0.0,0.0,0.0,0.0,0.0,0.0,0.0,0.0,0.0,0.0,0.0,0.0,0.0,0.0,0.0,0.0,0.0,0.0,0.0,0.0,0.0,0.0,0.0,0.0,0.0,0.0,0.0,0.0,0.0,0.0,0.0,0.0,0.0,0.0,0.0,0.0,0.0,0.0,0.0,0.0,0.0,0.0,0.0,0.0,0.0,0.0,0.0,0.0,0.0,0.0,0.0,0.0,0.0,0.0,0.0,0.0,0.0,0.0,0.0,0.0,0.0,3.997,4.0876,4.2721,4.0853,3.9122,3.7881,0.0,0.0,0.0,0.0,0.0,0.0,0.0,0.0,0.0,0.0,0.0,0.0,0.0,0.0,0.0,0.0,0.0,0.0,0.0,0.0,0.0,0.0,0.0,0.0,0.0,0.0,0.0,0.0,0.0,0.0,0.0,0.0,0.0,0.0,0.0,0.0,0.0,0.0,0.0,0.0,0.0,0.0,0.0,0.0,0.0,0.0,0.0,0.0,0.0,0.0,0.0,0.0,0.0,0.0,0.0,0.0,0.0,0.0,0.0,0.0,0.0,0.0,0.0,0.0,0.0,0.0,0.0,0.0,0.0,0.0,0.0,0.0,0.0,0.0,0.0,0.0,0.0,0.0,0.0,0.0,0.0,0.0,0.0,0.0,0.0,0.0,0.0,0.0,0.0,0.0,0.0,0.0,0.0,0.0,0.0,0.0,0.0,0.0,0.0,0.0,0.0,0.0,0.0,0.0,0.0,0.0,0.0,0.0,4.328,4.2558,4.2913,4.4416,4.2261,4.0272,0.0,0.0,0.0,0.0,0.0,0.0,0.0,0.0,0.0,0.0,0.0,0.0,0.0,0.0,0.0,0.0,0.0,0.0,0.0,0.0,0.0,0.0,0.0,0.0,0.0,0.0,0.0,0.0,0.0,0.0,0.0,0.0,0.0,0.0,0.0,0.0,0.0,0.0,0.0,0.0,0.0,0.0,0.0,0.0,0.0,0.0,0.0,0.0,0.0,0.0,0.0,0.0,0.0,0.0,0.0,0.0,0.0,0.0,0.0,0.0,0.0,0.0,0.0,0.0,0.0,0.0,0.0,0.0,0.0,0.0,0.0,0.0,0.0,0.0,0.0,0.0,0.0,0.0,0.0,0.0,0.0,0.0,0.0,0.0,0.0,0.0,0.0,0.0,0.0,0.0,0.0,0.0,0.0,0.0,0.0,0.0,0.0,0.0,0.0,0.0,0.0,0.0,0.0,0.0,0.0,0.0,0.0,0.0,0.0,4.0454,4.1196,4.2212,4.3446,4.0691,3.9211,0.0,0.0,0.0,0.0,0.0,0.0,0.0,0.0,0.0,0.0,0.0,0.0,0.0,0.0,0.0,0.0,0.0,0.0,0.0,0.0,0.0,0.0,0.0,0.0,0.0,0.0,0.0,0.0,0.0,0.0,0.0,0.0,0.0,0.0,0.0,0.0,0.0,0.0,0.0,0.0,0.0,0.0,0.0,0.0,0.0,0.0,0.0,0.0,0.0,0.0,0.0,0.0,0.0,0.0,0.0,0.0,0.0,0.0,0.0,0.0,0.0,0.0,0.0,0.0,0.0,0.0,0.0,0.0,0.0,0.0,0.0,0.0,0.0,0.0,0.0,0.0,0.0,0.0,0.0,0.0,0.0,0.0,0.0,0.0,0.0,0.0,0.0,0.0,0.0,0.0,0.0,0.0,0.0,0.0,0.0,0.0,0.0,0.0,0.0,0.0,0.0,0.0,0.0,0.0,0.0,0.0,0.0,0.0,0.0,4.0198,0.0,4.2386,4.3037,4.0239,3.8656,0.0,0.0,0.0,0.0,0.0,0.0,0.0,0.0,0.0,0.0,0.0,0.0,0.0,0.0,0.0,0.0,0.0,0.0,0.0,0.0,0.0,0.0,0.0,0.0,0.0,0.0,0.0,0.0,0.0,0.0,0.0,0.0,0.0,0.0,0.0,0.0,0.0,0.0,0.0,0.0,0.0,0.0,0.0,0.0,0.0,0.0,0.0,0.0,0.0,0.0,0.0,0.0,0.0,0.0,0.0,0.0,0.0,0.0,0.0,0.0,0.0,0.0,0.0,0.0,0.0,0.0,0.0,0.0,0.0,0.0,0.0,0.0,0.0,0.0,0.0,0.0,0.0,0.0,0.0,0.0,0.0,0.0,0.0,0.0,0.0,0.0,0.0,0.0,0.0,0.0,0.0,0.0,0.0,0.0,0.0,0.0,0.0,0.0,0.0,0.0,0.0,0.0,0.0,0.0,0.0,0.0,0.0,0.0,3.921,4.3145,4.3435,4.3404,4.3445,4.1029,3.8739,0.0,0.0,0.0,0.0,0.0,0.0,0.0,0.0,0.0,0.0,0.0,0.0,0.0,0.0,0.0,0.0,0.0,0.0,0.0,0.0,0.0,0.0,0.0,0.0,0.0,0.0,0.0,0.0,0.0,0.0,0.0,0.0,0.0,0.0,0.0,0.0,0.0,0.0,0.0,0.0,0.0,0.0,0.0,0.0,0.0,0.0,0.0,0.0,0.0,0.0,0.0,0.0,0.0,0.0,0.0,0.0,0.0,0.0,0.0,0.0,0.0,0.0,0.0,0.0,0.0,0.0,0.0,0.0,0.0,0.0,0.0,0.0,0.0,0.0,0.0,0.0,0.0,0.0,0.0,0.0,0.0,0.0,0.0,0.0,0.0,0.0,0.0,0.0,0.0,0.0,0.0,0.0,0.0,0.0,0.0,0.0,0.0,0.0,0.0,0.0,0.0,0.0,0.0,0.0,0.0,0.0,0.0,0.0,0.0,3.9295,3.9258,4.0466,4.2943,3.965,3.83,0.0,0.0,0.0,0.0,0.0,0.0,0.0,0.0,0.0,0.0,0.0,0.0,0.0,0.0,0.0,0.0,0.0,0.0,0.0,0.0,0.0,0.0,0.0,0.0,0.0,0.0,0.0,0.0,0.0,0.0,0.0,0.0,0.0,0.0,0.0,0.0,0.0,0.0,0.0,0.0,0.0,0.0,0.0,0.0,0.0,0.0,0.0,0.0,0.0,0.0,0.0,0.0,0.0,0.0,0.0,0.0,0.0,0.0,0.0,0.0,0.0,0.0,0.0,0.0,0.0,0.0,0.0,0.0,0.0,0.0,0.0,0.0,0.0,0.0,0.0,0.0,0.0,0.0,0.0,0.0,0.0,0.0,0.0,0.0,0.0,0.0,0.0,0.0,0.0,0.0,0.0,0.0,0.0,0.0,0.0,0.0,0.0,0.0,0.0,0.0,0.0,0.0,0.0,0.0,0.0,0.0,0.0,0.0,0.0,3.7242,3.8581,4.0089,4.1719,3.8866,3.7836,3.8883,0.0,0.0,0.0,0.0,0.0,0.0,0.0,0.0,0.0,0.0,0.0,0.0,0.0,0.0,0.0,0.0,0.0,0.0,0.0,0.0,0.0,0.0,0.0,0.0,0.0,0.0,0.0,0.0,0.0,0.0,0.0,0.0,0.0,0.0,0.0,0.0,0.0,0.0,0.0,0.0,0.0,0.0,0.0,0.0,0.0,0.0,0.0,0.0,0.0,0.0,0.0,0.0,0.0,0.0,0.0,0.0,0.0,0.0,0.0,0.0,0.0,0.0,0.0,0.0,0.0,0.0,0.0,0.0,0.0,0.0,0.0,0.0,0.0,0.0,0.0,0.0,0.0,0.0,0.0,0.0,0.0,0.0,0.0,0.0,0.0,0.0,0.0,0.0,0.0,0.0,0.0,0.0,0.0,0.0,0.0,0.0,0.0,0.0,0.0,0.0,0.0,0.0,0.0,0.0,0.0,0.0,0.0,0.0,3.6748,4.0692,4.1638,3.956,3.8641,3.7418,0.0,0.0,0.0,0.0,0.0,0.0,0.0,0.0,0.0,0.0,0.0,0.0,0.0,0.0,0.0,0.0,0.0,0.0,0.0,0.0,0.0,0.0,0.0,0.0,0.0,0.0,0.0,0.0,0.0,0.0,0.0,0.0,0.0,0.0,0.0,0.0,0.0,0.0,0.0,0.0,0.0,0.0,0.0,0.0,0.0,0.0,0.0,0.0,0.0,0.0,0.0,0.0,0.0,0.0,0.0,0.0,0.0,0.0,0.0,0.0,0.0,0.0,0.0,0.0,0.0,0.0,0.0,0.0,0.0,0.0,0.0,0.0,0.0,0.0,0.0,0.0,0.0,0.0,0.0,0.0,0.0,0.0,0.0,0.0,0.0,0.0,0.0,0.0,0.0,0.0,0.0,0.0,0.0,0.0,0.0,0.0,0.0,0.0,0.0,0.0,0.0,0.0,0.0,0.0,0.0,0.0,0.0,0.0,0.0,3.7481,3.913,3.9626,3.8902,3.7103,3.6573,0.0,0.0,0.0,0.0,0.0,0.0,0.0,0.0,0.0,0.0,0.0,0.0,0.0,0.0,0.0,0.0,0.0,0.0,0.0,0.0,0.0,0.0,0.0,0.0,0.0,0.0,0.0,0.0,0.0,0.0,0.0,0.0,0.0,0.0,0.0,0.0,0.0,0.0,0.0,0.0,0.0,0.0,0.0,0.0,0.0,0.0,0.0,0.0,0.0,0.0,0.0,0.0,0.0,0.0,0.0,0.0,0.0,0.0,0.0,0.0,0.0,0.0,0.0,0.0,0.0,0.0,0.0,0.0,0.0,0.0,0.0,0.0,0.0,0.0,0.0,0.0,0.0,0.0,0.0,0.0,0.0,0.0,0.0,0.0,0.0,0.0,0.0,0.0,0.0,0.0,0.0,0.0,0.0,0.0,0.0,0.0,0.0,0.0,0.0,0.0,0.0,0.0,0.0,0.0,0.0,0.0,0.0,0.0,3.5897,3.7755,3.7894,3.7889,3.7822,3.6912,3.6567,0.0,0.0,0.0,0.0,0.0,0.0,0.0,0.0,0.0,0.0,0.0,0.0,0.0,0.0,0.0,0.0,0.0,0.0,0.0,0.0,0.0,0.0,0.0,0.0,0.0,0.0,0.0,0.0,0.0,0.0,0.0,0.0,0.0,0.0,0.0,0.0,0.0,0.0,0.0,0.0,0.0,0.0,0.0,0.0,0.0,0.0,0.0,0.0,0.0,0.0,0.0,0.0,0.0,0.0,0.0,0.0,0.0,0.0,0.0,0.0,0.0,0.0,0.0,0.0,0.0,0.0,0.0,0.0,0.0,0.0,0.0,0.0,0.0,0.0,0.0,0.0,0.0,0.0,0.0,0.0,0.0,0.0,0.0,0.0,0.0,0.0,0.0,0.0,0.0,0.0,0.0,0.0,0.0,0.0,0.0,0.0,0.0,0.0,0.0,0.0,0.0,0.0,0.0,0.0,0.0,0.0,0.0,0.0,3.6176,3.7761,3.7099,3.6676,3.6615,3.7272,3.6883,0.0,0.0,0.0,0.0,0.0,0.0,0.0,0.0,0.0,0.0,0.0,0.0,0.0,0.0,0.0,0.0,0.0,0.0,0.0,0.0,0.0,0.0,0.0,0.0,0.0,0.0,0.0,0.0,0.0,0.0,0.0,0.0,0.0,0.0,0.0,0.0,0.0,0.0,0.0,0.0,0.0,0.0,0.0,0.0,0.0,0.0,0.0,0.0,0.0,0.0,0.0,0.0,0.0,0.0,0.0,0.0,0.0,0.0,0.0,0.0,0.0,0.0,0.0,0.0,0.0,0.0,0.0,0.0,0.0,0.0,0.0,0.0,0.0,0.0,0.0,0.0,0.0,0.0,0.0,0.0,0.0,0.0,0.0,0.0,0.0,0.0,0.0,0.0,0.0,0.0,0.0,0.0,0.0,0.0,0.0,0.0,0.0,0.0,0.0,0.0,0.0,0.0,0.0,0.0,0.0,0.0,0.0,0.0,3.5193,3.77,3.7616,3.7233,3.66,3.6253,3.5929,0.0,0.0,0.0,0.0,0.0,0.0,0.0,0.0,0.0,0.0,0.0,0.0,0.0,0.0,0.0,0.0,0.0,0.0,0.0,0.0,0.0,0.0,0.0,0.0,0.0,0.0,0.0,0.0,0.0,0.0,0.0,0.0,0.0,0.0,0.0,0.0,0.0,0.0,0.0,0.0,0.0,0.0,0.0,0.0,0.0,0.0,0.0,0.0,3.2377,0.0,0.0,0.0,0.0,0.0,0.0,0.0,0.0,0.0,0.0,0.0,0.0,0.0,0.0,0.0,0.0,0.0,0.0,0.0,0.0,0.0,0.0,0.0,0.0,0.0,0.0,0.0,0.0,0.0,0.0,0.0,0.0,0.0,0.0,0.0,0.0,0.0,0.0,0.0,0.0,0.0,0.0,0.0,0.0,0.0,0.0,0.0,0.0,0.0,0.0,0.0,0.0,0.0,0.0,0.0,0.0,0.0,0.0,0.0,3.5353,3.7172,3.7218,3.7024,3.6615,3.6259,3.5771,0.0,0.0,0.0,0.0,0.0,0.0,0.0,0.0,0.0,0.0,0.0,0.0,0.0,0.0,0.0,0.0,0.0,0.0,0.0,0.0,0.0,0.0,0.0,0.0,0.0,0.0,0.0,0.0,0.0,0.0,0.0,0.0,0.0,0.0,0.0,0.0,0.0,0.0,0.0,0.0,0.0,0.0,0.0,0.0,0.0,0.0,0.0,0.0,0.0,0.0,0.0,0.0,0.0,0.0,0.0,0.0,0.0,0.0,0.0,0.0,0.0,0.0,0.0,0.0,0.0,0.0,0.0,0.0,0.0,0.0,0.0,0.0,0.0,0.0,0.0,0.0,0.0,0.0,0.0,0.0,0.0,0.0,0.0,0.0,0.0,0.0,0.0,0.0,0.0,0.0,0.0,0.0,0.0,0.0,0.0,0.0,0.0,0.0,0.0,0.0,0.0,0.0,0.0,0.0,0.0,0.0,0.0,3.4775,3.5691,3.6399,3.6523,3.6569,3.643,3.6523,3.5919,3.4589,0.0,0.0,0.0,0.0,0.0,0.0,0.0,0.0,0.0,0.0,0.0,0.0,0.0,0.0,0.0,0.0,0.0,0.0,0.0,0.0,0.0,0.0,0.0,0.0,0.0,0.0,0.0,0.0,0.0,0.0,0.0,0.0,0.0,0.0,0.0,0.0,0.0,0.0,3.2615,3.2486,0.0,0.0,0.0,0.0,0.0,0.0,0.0,0.0,3.479,0.0,0.0,0.0,0.0,0.0,0.0,0.0,0.0,0.0,0.0,0.0,0.0,0.0,0.0,0.0,0.0,0.0,0.0,0.0,0.0,0.0,0.0,0.0,0.0,0.0,0.0,0.0,0.0,0.0,0.0,0.0,0.0,0.0,0.0,0.0,0.0,0.0,0.0,0.0,0.0,0.0,0.0,0.0,0.0,0.0,0.0,0.0,0.0,0.0,0.0,0.0,0.0,0.0,0.0,0.0,0.0,3.4324,3.4553,3.4977,3.5686,3.6259,3.6321,3.5734,3.629,3.5934,3.4618,0.0,0.0,0.0,0.0,0.0,0.0,0.0,0.0,0.0,0.0,0.0,0.0,0.0,0.0,0.0,0.0,0.0,0.0,0.0,0.0,0.0,0.0,0.0,0.0,0.0,0.0,0.0,0.0,0.0,0.0,0.0,0.0,0.0,0.0,0.0,0.0,0.0,0.0,0.0,3.3444,3.2987,0.0,0.0,0.0,0.0,0.0,0.0,0.0,0.0,3.4266,0.0,0.0,0.0,0.0,0.0,0.0,0.0,0.0,0.0,0.0,0.0,0.0,0.0,0.0,0.0,0.0,0.0,0.0,0.0,0.0,0.0,0.0,0.0,0.0,0.0,0.0,0.0,0.0,0.0,0.0,0.0,0.0,0.0,0.0,0.0,0.0,0.0,0.0,0.0,0.0,0.0,0.0,0.0,0.0,0.0,0.0,0.0,0.0,0.0,0.0,0.0,0.0,0.0,0.0,0.0,3.3979,3.4667,3.516,3.5506,3.5862,3.5878,3.5522,3.5514,3.5384,0.0,0.0,0.0,0.0,0.0,0.0,0.0,0.0,0.0,0.0,0.0,0.0,0.0,0.0,0.0,0.0,0.0,0.0,0.0,0.0,0.0,0.0,0.0,0.0,0.0,0.0,0.0,0.0,0.0,0.0,0.0,0.0,0.0,0.0,0.0,0.0,0.0,0.0,0.0,0.0,3.4651,3.4584,3.41,0.0,0.0,0.0,0.0,0.0,0.0,3.4052,3.3264,0.0,0.0,0.0,0.0,0.0,0.0,0.0,0.0,0.0,0.0,0.0,0.0,0.0,0.0,0.0,0.0,0.0,0.0,0.0,0.0,0.0,0.0,0.0,0.0,0.0,0.0,0.0,0.0,0.0,0.0,0.0,0.0,0.0,0.0,0.0,0.0,0.0,0.0,0.0,0.0,0.0,0.0,0.0,0.0,0.0,0.0,0.0,0.0,0.0,0.0,0.0,0.0,0.0,0.0,0.0,3.3544,3.4831,3.5489,3.5489,3.5489,3.5489,3.5489,3.4847,3.4775,0.0,0.0,0.0,0.0,0.0,0.0,0.0,0.0,0.0,0.0,0.0,0.0,0.0,0.0,0.0,0.0,0.0,0.0,0.0,0.0,0.0,0.0,0.0,0.0,0.0,0.0,0.0,0.0,0.0,0.0,0.0,0.0,0.0,0.0,0.0,0.0,0.0,0.0,0.0,0.0,0.0,3.5778,3.5102,3.4685,0.0,0.0,0.0,0.0,3.4719,3.3586,0.0,0.0,0.0,0.0,0.0,0.0,0.0,0.0,0.0,0.0,0.0,0.0,0.0,0.0,0.0,0.0,0.0,0.0,0.0,0.0,0.0,0.0,0.0,0.0,0.0,0.0,0.0,0.0,0.0,0.0,0.0,0.0,0.0,0.0,0.0,0.0,0.0,0.0,0.0,0.0,0.0,0.0,0.0,0.0,0.0,0.0,0.0,0.0,0.0,0.0,0.0,0.0,0.0,0.0,0.0,0.0,3.356,3.4831,3.5489,3.5489,3.5489,3.5489,3.5489,3.4847,3.4531,0.0,0.0,0.0,0.0,0.0,0.0,0.0,0.0,0.0,0.0,0.0,0.0,0.0,0.0,0.0,0.0,0.0,0.0,0.0,0.0,0.0,0.0,0.0,0.0,0.0,0.0,0.0,0.0,0.0,0.0,0.0,0.0,0.0,0.0,0.0,0.0,0.0,0.0,0.0,0.0,0.0,3.5496,3.3864,3.373,3.3748,0.0,0.0,3.326,3.4757,3.4553,0.0,0.0,0.0,0.0,0.0,0.0,0.0,0.0,0.0,0.0,0.0,0.0,0.0,0.0,0.0,0.0,0.0,0.0,0.0,0.0,0.0,0.0,0.0,0.0,0.0,0.0,0.0,0.0,0.0,0.0,0.0,0.0,0.0,0.0,0.0,0.0,0.0,0.0,0.0,0.0,0.0,0.0,0.0,0.0,0.0,0.0,0.0,0.0,0.0,0.0,0.0,0.0,0.0,0.0,0.0,3.3125,3.353,3.4458,3.4937,3.4937,3.531,3.531,3.4937,3.4262,3.4122,0.0,0.0,0.0,0.0,0.0,0.0,0.0,0.0,0.0,0.0,0.0,0.0,0.0,0.0,0.0,0.0,0.0,0.0,0.0,0.0,0.0,0.0,0.0,0.0,0.0,0.0,0.0,0.0,0.0,0.0,0.0,0.0,0.0,0.0,0.0,0.0,0.0,0.0,0.0,0.0,0.0,0.0,3.4691,3.4399,0.0,0.0,0.0,3.2417,3.3571,0.0,0.0,0.0,0.0,0.0,0.0,0.0,0.0,0.0,0.0,0.0,0.0,0.0,0.0,0.0,0.0,0.0,0.0,0.0,0.0,0.0,0.0,0.0,0.0,0.0,0.0,0.0,0.0,0.0,0.0,0.0,0.0,0.0,0.0,0.0,0.0,0.0,0.0,0.0,0.0,0.0,0.0,0.0,0.0,0.0,0.0,0.0,0.0,0.0,0.0,0.0,0.0,0.0,0.0,0.0,0.0,0.0,3.3484,3.4009,3.4428,3.4727,3.4891,3.4921,3.4757,3.3754,0.0,0.0,0.0,0.0,0.0,0.0,0.0,0.0,0.0,0.0,0.0,0.0,0.0,0.0,0.0,0.0,0.0,0.0,0.0,0.0,0.0,0.0,0.0,0.0,0.0,0.0,0.0,2.7668,0.0,0.0,0.0,0.0,0.0,0.0,0.0,0.0,0.0,0.0,0.0,0.0,0.0,0.0,3.5947,3.5004,3.46,3.4198,0.0,0.0,3.1924,3.2135,3.1212,3.0021,0.0,0.0,0.0,0.0,0.0,0.0,0.0,0.0,0.0,0.0,0.0,0.0,0.0,0.0,0.0,0.0,0.0,0.0,0.0,0.0,0.0,0.0,0.0,0.0,0.0,0.0,0.0,0.0,0.0,0.0,0.0,0.0,0.0,0.0,0.0,0.0,0.0,0.0,0.0,0.0,0.0,0.0,0.0,0.0,0.0,0.0,0.0,0.0,0.0,0.0,0.0,0.0,0.0,0.0,3.2811,3.3484,3.356,3.4173,3.534,3.4262,3.4203,3.534,3.3559,3.2901,0.0,0.0,0.0,0.0,0.0,0.0,0.0,0.0,0.0,0.0,0.0,0.0,0.0,0.0,0.0,0.0,0.0,0.0,0.0,0.0,0.0,0.0,0.0,0.0,0.0,0.0,0.0,0.0,0.0,0.0,0.0,0.0,0.0,0.0,0.0,0.0,0.0,0.0,0.0,0.0,0.0,3.478,3.3606,3.3314,3.3331,0.0,3.329,3.2432,3.0828,3.1394,3.1141,2.858,0.0,0.0,0.0,0.0,0.0,0.0,0.0,0.0,0.0,0.0,0.0,0.0,0.0,0.0,0.0,0.0,0.0,0.0,0.0,0.0,0.0,0.0,0.0,0.0,0.0,0.0,0.0,0.0,0.0,0.0,0.0,0.0,0.0,0.0,0.0,0.0,0.0,0.0,0.0,0.0,0.0,0.0,0.0,0.0,0.0,0.0,0.0,0.0,0.0,0.0,0.0,0.0,0.0,3.2422,3.3484,3.3514,3.3754,3.4262,3.4562,3.4592,3.4278,3.3514,3.3036,0.0,0.0,0.0,0.0,0.0,0.0,0.0,0.0,0.0,0.0,0.0,0.0,0.0,0.0,0.0,0.0,0.0,0.0,0.0,0.0,0.0,0.0,0.0,0.0,0.0,0.0,0.0,0.0,3.0949,3.1659,3.2287,0.0,0.0,0.0,0.0,0.0,0.0,0.0,0.0,0.0,0.0,3.3599,3.3558,3.3855,0.0,0.0,3.388,3.3426,3.3109,3.1741,3.0116,2.8364,2.7916,0.0,0.0,0.0,0.0,0.0,0.0,0.0,0.0,0.0,0.0,0.0,0.0,0.0,0.0,0.0,0.0,0.0,0.0,0.0,0.0,0.0,0.0,0.0,0.0,0.0,0.0,0.0,0.0,0.0,0.0,0.0,0.0,0.0,0.0,0.0,0.0,0.0,0.0,0.0,0.0,0.0,0.0,0.0,0.0,0.0,0.0,0.0,0.0,0.0,0.0,0.0,0.0,3.2586,3.4107,3.3532,3.3395,3.3799,3.4322,3.4352,3.3814,3.3425,3.3095,0.0,0.0,0.0,0.0,0.0,0.0,0.0,0.0,0.0,0.0,0.0,0.0,0.0,0.0,0.0,0.0,0.0,0.0,0.0,0.0,0.0,0.0,0.0,0.0,0.0,0.0,0.0,0.0,3.2512,3.2765,3.2804,0.0,0.0,0.0,0.0,0.0,0.0,0.0,0.0,0.0,0.0,3.2653,3.3126,3.3739,3.4027,3.374,3.3335,3.2898,3.2534,3.0269,2.8207,2.7277,0.0,0.0,0.0,0.0,0.0,0.0,0.0,0.0,0.0,0.0,0.0,0.0,0.0,0.0,0.0,0.0,0.0,0.0,0.0,0.0,0.0,0.0,0.0,0.0,0.0,0.0,0.0,3.3385,0.0,0.0,3.1613,0.0,0.0,0.0,0.0,0.0,0.0,0.0,0.0,0.0,0.0,0.0,0.0,0.0,0.0,0.0,0.0,0.0,0.0,0.0,0.0,0.0,0.0,3.3486,3.5455,3.3562,3.317,3.4368,3.3245,3.3245,3.4384,3.3215,3.2811,3.3379,0.0,0.0,0.0,0.0,0.0,0.0,0.0,0.0,0.0,0.0,0.0,0.0,0.0,0.0,0.0,0.0,0.0,0.0,0.0,0.0,0.0,0.0,0.0,0.0,0.0,0.0,3.3363,3.3439,3.2818,0.0,0.0,0.0,0.0,0.0,0.0,0.0,0.0,0.0,3.165,3.1862,3.2033,3.204,3.2495,3.2534,3.1681,3.1397,3.0409,2.8077,2.6605,2.5506,0.0,0.0,0.0,0.0,0.0,0.0,0.0,0.0,0.0,0.0,0.0,0.0,0.0,0.0,0.0,0.0,0.0,0.0,0.0,0.0,0.0,0.0,0.0,0.0,0.0,0.0,0.0,3.1362,3.1518,0.0,0.0,0.0,0.0,0.0,0.0,0.0,0.0,0.0,0.0,0.0,3.0708,3.026,0.0,0.0,0.0,0.0,0.0,0.0,0.0,0.0,0.0,0.0,0.0,0.0,3.3291,3.4758,3.4178,3.4039,3.4503,3.4518,3.4502,3.4488,3.3634,3.2585,3.1391,0.0,0.0,0.0,0.0,0.0,0.0,0.0,0.0,0.0,0.0,0.0,0.0,0.0,0.0,0.0,0.0,0.0,0.0,0.0,0.0,0.0,0.0,0.0,0.0,0.0,3.2212,0.0,0.0,0.0,0.0,0.0,0.0,0.0,0.0,0.0,0.0,3.0878,3.0687,3.0785,3.0958,3.1198,3.1556,3.1744,3.196,0.0,0.0,0.0,0.0,0.0,0.0,0.0,0.0,0.0,0.0,0.0,0.0,0.0,0.0,2.6576,2.687,2.6312,2.5759,2.5583,0.0,0.0,0.0,0.0,0.0,0.0,0.0,0.0,0.0,0.0,0.0,0.0,0.0,0.0,3.0705,3.0931,3.0722,0.0,0.0,0.0,0.0,0.0,0.0,0.0,0.0,3.0309,3.0173,3.0366,3.0005,2.9779,0.0,3.0189,3.0328,0.0,0.0,0.0,0.0,0.0,0.0,0.0,0.0,3.3757,3.4834,3.4629,3.4488,3.4518,3.4937,3.4937,3.4488,3.3859,3.2404,3.007,3.0031,2.936,0.0,0.0,0.0,0.0,0.0,0.0,0.0,0.0,0.0,0.0,0.0,0.0,0.0,0.0,0.0,0.0,0.0,0.0,0.0,0.0,0.0,0.0,0.0,3.1397,0.0,0.0,0.0,0.0,0.0,0.0,0.0,0.0,0.0,2.9195,2.9467,2.9486,2.9579,3.0039,3.0457,3.0803,0.0,0.0,0.0,0.0,0.0,0.0,0.0,2.5594,2.4837,2.4438,2.3924,2.3076,2.396,2.4751,2.4509,0.0,0.0,2.5333,2.4677,2.3979,2.4405,2.4617,2.4596,2.4254,2.4211,2.3974,0.0,0.0,0.0,0.0,2.9162,0.0,0.0,0.0,3.0344,3.0835,0.0,3.0736,0.0,0.0,0.0,0.0,3.0552,3.0388,0.0,0.0,2.9712,2.9503,2.9026,2.9528,2.9779,2.9829,3.0306,3.0301,2.9864,3.0326,0.0,0.0,0.0,0.0,0.0,0.0,3.4864,3.5519,3.4924,3.4518,3.4548,3.4548,3.4533,3.4444,3.3859,3.2271,2.9711,3.0807,3.0236,2.7522,2.9988,0.0,0.0,0.0,0.0,0.0,0.0,0.0,0.0,0.0,0.0,0.0,0.0,0.0,0.0,0.0,0.0,0.0,0.0,0.0,0.0,3.1374,0.0,0.0,0.0,0.0,0.0,0.0,0.0,0.0,0.0,2.64,2.6502,2.7481,2.8084,2.8044,0.0,0.0,0.0,0.0,2.9114,2.8223,2.6961,2.581,2.502,2.3887,2.3144,2.3144,0.0,0.0,2.1476,2.1662,2.1486,1.987,1.9982,2.1174,2.4751,2.2864,2.1216,2.2178,2.2044,2.1872,2.2818,2.3212,2.3188,2.9507,0.0,0.0,0.0,0.0,2.8612,2.9044,2.9593,2.9043,2.8922,2.9084,2.8897,0.0,0.0,0.0,0.0,0.0,0.0,3.047,2.97,2.9763,2.9723,2.9553,2.9704,2.9779,2.9804,2.9955,2.9955,2.9818,2.9941,3.0516,3.1433,0.0,0.0,0.0,0.0,3.4854,3.545,3.5319,3.522,3.522,3.522,3.4741,3.3799,3.4069,3.3086,3.0764,3.1541,3.1419,3.0153,3.0311,0.0,0.0,0.0,0.0,0.0,0.0,0.0,0.0,0.0,0.0,0.0,0.0,0.0,0.0,0.0,0.0,0.0,0.0,0.0,2.9489,2.8763,2.7999,0.0,0.0,0.0,0.0,0.0,0.0,0.0,0.0,0.0,2.5189,2.691,2.7824,0.0,0.0,2.9527,2.8708,2.788,2.7276,2.6973,2.5273,0.0,2.4723,2.3844,2.3101,2.3101,2.2669,2.1912,2.0663,2.0564,2.0482,1.9969,1.9248,1.9312,2.1049,2.1415,2.1207,2.1563,2.2091,2.2643,2.3013,2.3101,2.3365,2.7812,2.8453,2.843,2.7925,2.7169,2.7275,2.7469,2.7646,2.7495,2.7461,2.7461,2.7461,2.7438,2.7368,2.7789,0.0,0.0,0.0,3.0324,2.9779,2.9779,2.9779,2.9779,2.9779,2.9779,2.9779,2.9779,2.9779,2.9779,2.9779,3.0266,3.1204,0.0,3.2541,3.3633,3.4456,3.4967,3.51,3.537,3.5489,3.5489,3.525,3.4711,3.3949,3.4039,3.3477,3.2185,3.2505,3.2216,3.1219,3.0722,2.9797,0.0,0.0,0.0,0.0,0.0,0.0,0.0,0.0,0.0,0.0,0.0,2.8812,2.9078,0.0,0.0,0.0,2.7501,2.76,2.7575,2.6879,0.0,0.0,0.0,0.0,0.0,0.0,0.0,2.4125,2.393,2.4017,2.4745,2.6705,2.7864,2.7218,2.8291,2.889,2.8207,0.0,2.5818,2.5839,2.4295,2.3321,2.4016,2.3151,2.2227,2.1743,2.1315,2.0589,1.9408,1.9152,1.8988,1.8448,1.7731,1.7565,1.8801,1.9858,2.084,2.1365,2.1965,2.2492,2.2972,2.3452,2.3996,2.6583,2.6277,2.6824,2.6346,2.535,2.6017,2.5715,2.4914,2.5901,2.638,2.6337,2.6359,2.638,2.6442,2.7481,0.0,2.8144,2.9307,2.9798,2.9779,2.9779,2.9779,2.9779,2.9779,2.9779,2.9779,2.9779,2.9779,2.9798,2.9876,3.0368,3.1204,3.22,3.2869,3.3231,3.4722,3.519,3.4607,3.519,3.5489,3.5489,3.4847,3.4488,3.4488,3.3919,3.3604,3.359,3.3634,3.2905,3.136,3.1243,2.9934,2.7098,0.0,0.0,0.0,0.0,0.0,0.0,0.0,0.0,0.0,0.0,0.0,0.0,0.0,0.0,2.6181,2.5775,0.0,2.5531,2.5399,0.0,0.0,0.0,2.4365,2.3971,2.345,2.3144,2.3212,0.0,0.0,2.5062,2.6828,2.8104,2.8104,2.8104,2.8024,2.7864,2.6087,2.4766,2.4681,2.3779,2.3057,2.295,2.1943,2.0787,1.9679,1.936,1.8941,1.7839,1.7574,1.7044,1.64,1.5998,1.6504,1.7777,1.9124,2.0098,2.1657,2.173,2.1836,2.2884,2.3951,2.4745,2.6493,2.718,2.6586,2.5504,2.4175,2.4364,2.4582,2.4808,2.5083,2.521,2.5189,2.521,2.521,2.5273,2.6378,2.7319,2.8144,2.9287,2.9779,2.9779,2.9779,2.9779,2.9779,2.9779,2.9779,2.9779,2.9779,2.9779,2.9818,3.0533,3.097,3.1278,3.2841,3.3716,3.384,3.4912,3.5429,3.525,3.5429,3.5489,3.5473,3.4847,3.4488,3.4488,3.4338,3.4264,3.4278,3.4757,3.4281,3.27,3.202,3.0553,2.8228,2.7712,0.0,0.0,0.0,0.0,0.0,0.0,0.0,0.0,0.0,2.6152,2.5669,0.0,2.4634,0.0,2.4249,2.4514,2.4789,2.3701,0.0,0.0,2.2652,2.2437,2.3207,2.3175,2.343,2.4296,2.4617,2.5441,2.7113,2.7783,2.8104,2.8104,2.8104,2.7522,2.5859,2.5189,2.4489,2.3692,2.3299,2.2775,2.1832,2.0719,1.9565,1.8319,1.8149,1.7692,1.648,1.6244,1.6433,1.7054,1.7255,1.8064,1.9997,2.0719,2.1315,2.2469,2.2722,2.2753,2.3081,2.4017,2.5083,2.611,2.673,2.6478,2.5465,2.4111,2.474,2.4932,2.4829,2.4808,2.4531,2.4102,2.4553,2.4808,2.4935,2.6502,2.7522,2.8187,2.9287,2.9779,2.9779,2.9779,2.9779,2.9779,2.9779,2.9779,2.9779,2.9779,2.9779,2.9837,3.0752,3.1559,3.2298,3.3737,3.4679,3.5116,3.5363,3.5669,3.5938,3.5669,3.5489,3.5489,3.4831,3.4637,3.4937,3.4637,3.4637,3.4937,3.531,3.4903,3.354,3.2398,3.0805,2.8701,2.7558,2.6575,0.0,0.0,0.0,0.0,0.0,0.0,0.0,0.0,0.0,0.0,0.0,2.3595,2.2937,2.3029,2.3125,2.3051,2.2241,2.187,2.2202,2.2148,2.2359,2.3035,2.356,2.4103,2.4723,2.565,2.6726,2.7944,2.8104,2.7904,2.7441,2.6951,2.6191,2.5041,2.4403,2.38,2.319,2.3101,2.2448,2.0769,1.9951,1.9085,1.8056,1.8133,1.8249,1.7599,1.746,1.7692,1.8342,1.8503,1.9062,2.0899,2.1284,2.1813,2.3347,2.3844,2.3844,2.3887,2.5147,2.65,2.6038,2.622,2.6912,2.6497,2.5492,2.6427,2.5988,2.4575,2.4575,2.4017,2.3169,2.4296,2.4872,2.5168,2.7267,2.8303,2.8483,2.9519,2.9974,2.9905,2.9905,2.9905,2.9905,2.9829,2.9829,2.9905,2.9905,2.9924,2.9943,3.1066,3.2278,3.3568,3.4664,3.5673,3.655,3.5968,3.5908,3.6477,3.5832,3.5489,3.5489,3.4847,3.4817,3.5429,3.4847,3.4817,3.5443,3.5375,3.4856,3.3831,3.2479,3.0823,2.8819,2.7325,2.6235,0.0,2.4661,0.0,0.0,0.0,0.0,0.0,0.0,0.0,0.0,2.2815,2.2372,2.2173,2.1933,2.1531,2.0944,2.0985,2.1127,2.1324,2.223,2.295,2.3299,2.4211,2.4914,2.5189,2.693,2.8104,2.8104,2.8104,2.7683,2.6481,2.5546,2.4893,2.4489,2.3757,2.3166,2.3101,2.295,2.2053,2.0381,1.9702,1.9154,1.8295,1.8757,1.9474,1.9382,1.9382,1.9497,1.9662,1.9747,2.0178,2.1302,2.1569,2.2281,2.4297,2.4851,2.4999,2.5168,2.6521,2.8024,2.7814,2.8776,2.9417,3.0085,3.0606,2.9092,2.6526,2.343,2.343,2.3299,2.3169,2.4318,2.5315,2.6299,2.7985,2.9258,3.0139,3.0803,3.0859,3.0457,3.0437,3.0437,3.0412,3.0005,3.003,3.0412,3.0437,3.0437,3.0497,3.2719,3.366,3.3486,3.5317,3.6565,3.7165,0.0,0.0,0.0,3.5818,3.5489,3.5459,3.4847,3.4817,3.5459,3.4847,0.0,3.5427,3.4723,3.3842,3.2894,3.1857,0.0,0.0,0.0,0.0,0.0,0.0,0.0,0.0,0.0,0.0,0.0,2.1929,2.2367,2.2782,2.178,2.1188,2.1412,2.0579,1.994,1.9833,1.9821,2.0229,2.119,2.1525,2.2388,2.419,2.4681,2.5441,2.7276,2.7864,2.8104,2.8104,2.8104,2.734,2.5525,2.4935,2.4425,2.356,2.3256,2.3123,2.3057,2.2381,2.1569,2.1016,2.0138,1.9542,1.9222,1.9291,1.9565,1.9633,1.961,1.9951,2.0742,2.0948,2.1346,2.2492,2.2775,2.3193,2.4532,2.5525,2.6193,2.6192,2.7197,2.8104,2.8866,2.9442,3.0127,3.0112,0.0,2.8734,2.665,2.3753,2.3872,2.3951,2.4038,2.5424,2.6652,2.7777,2.9405,3.0453,3.1009,3.1009,3.0859,3.0588,3.0312,3.0206,3.0186,2.993,3.008,3.0588,3.0588,3.1037,3.1836,3.356,3.465,3.5177,3.6699,3.7601,3.7853,3.6956,3.6493,3.6493,3.5848,3.5489,3.5473,3.516,3.516,3.5443,3.516,0.0,0.0,0.0,0.0,0.0,0.0,0.0,0.0,2.6889,0.0,2.3946,2.2662,2.1747,2.1214,2.0486,2.0133,2.027,2.1328,2.2177,2.2595,2.1995,2.1516,2.1332,2.0724,2.0155,1.9571,2.0042,2.0634,2.1261,2.2325,2.3546,2.466,2.5775,2.6849,2.7904,2.8609,2.8747,2.8164,2.7602,2.6687,2.5062,2.4296,2.3779,2.3234,2.3101,2.3101,2.3057,2.2076,2.1306,2.1261,2.0859,2.0404,2.0427,2.0877,2.1253,2.1275,2.1297,2.148,2.2076,2.2186,2.2425,2.295,2.3519,2.4275,2.542,2.6522,2.7484,2.7971,2.8549,2.8949,2.9965,2.9966,3.0692,2.9862,2.8002,2.8055,2.6794,2.4768,2.4961,0.0,0.0,2.6943,2.8221,2.9162,3.0791,3.1537,3.1512,3.121,3.0964,3.0864,3.0432,3.0231,3.0231,3.0131,3.0357,3.0864,3.0864,3.1647,3.3152,3.4216,3.5461,3.6937,3.792,3.8392,3.8302,3.7362,3.6853,3.6793,3.5968,3.5489,3.5489,3.5489,3.5489,3.5489,3.5489,3.5034,3.4058,3.3842,3.3049,3.1615,3.0502,2.89,2.6817,2.5622,2.391,2.1535,2.041,1.9495,1.8683,1.8164,1.8469,1.9781,2.1367,2.2382,2.2574,2.2403,2.2022,2.1355,2.1105,2.0652,1.9912,2.0904,2.1684,2.1906,2.3806,2.5147,2.5462,2.693,2.8024,2.8203,2.887,2.8969,2.7602,2.6707,2.5798,2.466,2.3714,2.3101,2.3101,2.3101,2.3101,2.3035,2.2337,2.168,2.1614,2.1636,2.1614,2.1654,2.2403,2.3079,2.3101,2.3101,2.3101,2.2972,2.3101,2.3169,2.3408,2.4125,2.5252,2.6545,2.7461,2.8446,2.9463,2.9779,2.974,3.2133,3.1822,3.2919,3.2956,3.2049,2.9681,2.7677,2.606,2.6092,2.6095,2.6228,2.8472,2.9516,2.9774,3.136,3.2089,3.2118,3.2541,3.2466,3.1989,3.1913,3.1842,3.1838,3.1386,3.1461,3.1964,3.1968,3.2567,3.376,3.5217,3.6245,3.6893,3.7872,3.8392,3.838,3.8212,3.814,3.811,3.6387,3.5489,3.5489,3.5489,3.5489,3.5489,3.5473,3.5034,3.403,3.322,3.2132,3.0645,2.8888,2.6909,2.4733,2.289,2.1056,1.9361,1.8291,1.7796,1.7929,1.8169,1.9104,2.0867,2.1335,2.1894,2.2894,2.2064,2.1421,2.1261,2.0517,2.0155,2.0948,2.2067,2.3138,2.4148,2.542,2.6605,2.74,2.7824,2.8104,2.8104,2.8227,2.7542,2.5817,2.5252,2.4723,2.3669,2.3256,2.3101,2.3101,2.3101,2.3101,2.3101,2.2972,2.284,2.2709,2.2818,2.2753,2.284,2.2928,2.3101,2.3101,2.3101,2.3101,2.3101,2.3188,2.3539,2.4275,2.4638,2.5734,2.734,2.8024,2.8589,2.9624,2.9779,2.9779,3.3561,3.3164,3.3651,3.282,3.0956,2.899,2.8106,2.8049,2.8679,2.8675,2.8354,2.9642,3.0552,3.1175,3.2204,3.2667,3.2692,3.2641,3.2466,3.2169,3.1913,3.1763,3.1738,3.1532,3.1687,3.221,3.2808,3.3776,3.5127,3.6434,3.7462,3.8198,3.8716,3.896,3.8931,3.8571,3.8392,3.838,3.6836,3.6028,3.6028,3.5699,3.5489,3.5503,3.4971,3.4228,3.3272,3.1739,3.0114,2.8405,2.6952,2.4922,2.2288,2.1287,1.9664,1.7325,1.6826,1.6467,1.6019,1.7759,1.9509,2.1141,2.1921,2.2492,2.3057,2.2599,2.2293,2.2271,2.1743,2.1654,2.2252,2.3308,2.4192,2.4745,2.6337,2.7542,2.7984,2.8104,2.8104,2.8044,2.7582,2.6605,2.4999,2.4808,2.4382,2.3343,2.3101,2.3101,2.3101,2.3101,2.3101,2.3101,2.3101,2.3101,2.3101,2.3101,2.3101,2.3101,2.3101,2.3101,2.3101,2.3101,2.3101,2.3166,2.356,2.4168,2.4808,2.5838,2.693,2.7663,2.8688,2.9248,2.9682,2.9779,2.9779,3.4552,3.4098,3.4073,3.2499,2.9965,2.8996,2.9092,2.9875,3.0776,3.0946,3.0622,3.1003,3.1602,3.2423,3.2914,3.309,3.304,3.2616,3.2416,3.2365,3.1984,3.1763,3.1783,3.1783,3.2134,3.2779,3.3625,3.4935,3.6685,3.7634,3.8671,3.9719,3.969,3.9709,3.9858,3.902,3.8691,3.8769,3.7601,3.6793,3.6493,3.5968,3.5557,3.5116,3.4442,3.3366,3.1929,3.0345,2.8549,2.6485,2.5097,2.3149,2.0506,1.9797,1.8351,1.5914,1.601,1.6188,1.6118,1.8194,2.0204,2.1577,2.2558,2.3101,2.3101,2.3198,2.322,2.312,2.3035,2.3057,2.3212,2.436,2.5189,2.5294,2.6933,2.8004,2.8084,2.7904,2.7602,2.736,2.6582,2.5693,2.4766,2.4425,2.4017,2.3299,2.3101,2.3101,2.3101,2.3101,2.3101,2.3101,2.3101,2.3101,2.3101,2.3101,2.3101,2.3101,2.3101,2.3101,2.3101,2.3101,2.3299,2.3517,2.4168,2.4999,2.5525,2.6808,2.7984,2.8505,2.9165,2.9721,2.976,2.9779,2.9779,3.5107,3.4653,3.4628,3.358,3.1915,3.1663,3.1381,3.1092,3.1178,3.184,3.2678,3.2839,3.2886,3.3014,3.3065,3.3115,3.309,3.304,3.2989,3.2989,3.2964,3.2939,3.2914,3.2914,3.3492,3.4376,3.4618,3.6075,3.8397,3.8688,3.9555,4.0961,4.0606,4.0576,4.0954,3.9948,3.9571,4.0157,3.8918,3.7644,3.6583,3.6464,3.5692,3.4206,3.4013,3.2662,3.0062,2.958,2.829,2.5816,2.366,2.1739,1.997,1.805,1.6403,1.5256,1.614,1.7707,1.9957,2.081,2.1573,2.2755,2.2994,2.3101,2.312,2.3496,2.3555,2.322,2.3101,2.314,2.3232,2.4957,2.6068,2.6068,2.7218,2.8104,2.7924,2.7218,2.6254,2.5189,2.5126,2.4532,2.3606,2.3408,2.3278,2.3166,2.3101,2.3101,2.3101,2.3101,2.3101,2.3101,2.3101,2.3101,2.3101,2.3101,2.3101,2.3101,2.3101,2.3101,2.3101,2.3212,2.3387,2.4211,2.4872,2.5692,2.6971,2.8084,2.8466,2.9165,2.9605,2.9779,2.9779,2.9779,2.9779,3.5705,3.518,3.5157,3.4581,3.3584,3.2539,3.2557,3.3238,3.2941,3.3083,3.3524,3.3592,3.3391,3.3115,3.3115,3.3115,3.3115,3.3115,3.3115,3.3115,3.3115,3.3266,3.3545,3.3571,3.4323,3.5738,3.6389,3.7638,3.9204,4.0032,4.0726,4.1305,4.1134,4.0935,4.0804,4.0277,3.9948,3.978,3.9272,3.8085,3.6417,3.5832,3.51,3.3962,3.2297,3.0842,2.9465,2.7782,2.5757,2.3764,2.2173,2.03,1.8051,1.7068,1.6441,1.6183,1.7393,1.904,2.1009,2.1234,2.181,2.3035,2.3101,2.3101,2.3101,2.3298,2.3298,2.3179,2.3357,2.3516,2.3609,2.474,2.5504,2.563,2.6481,2.7157,2.7116,2.6171,2.5273,2.4808,2.4211,2.3671,2.3212,2.3101,2.3101,2.3101,2.3101,2.3101,2.3101,2.3101,2.3101,2.3101,2.3101,2.3101,2.3101,2.3101,2.3101,2.3101,2.3101,2.3101,2.319,2.3757,2.4296,2.4787,2.5796,2.6767,2.7763,2.8727,2.9326,2.976,2.9779,2.9779,2.9779,2.9779,2.9779,3.5882,3.5533,3.5483,3.5282,3.4813,3.357,3.3659,3.456,3.4276,3.4123,3.4123,3.4123,3.3922,3.352,3.3241,3.3165,3.3291,3.3165,3.319,3.3291,3.3316,3.3596,3.4073,3.4123,3.5113,3.6807,3.7701,3.8927,4.0411,4.1448,4.1893,4.1893,4.1762,4.1523,4.1156,4.0756,4.0247,3.9978,3.9631,3.8292,3.6226,3.5275,3.4345,3.3136,3.0831,2.9258,2.8616,2.6167,2.3921,2.2131,2.1265,1.9824,1.759,1.7382,1.7581,1.8061,1.9046,2.031,2.1684,2.1902,2.2295,2.3011,2.3298,2.3415,2.3357,2.3513,2.3649,2.3711,2.3848,2.3906,2.3705,2.4329,2.4787,2.4851,2.5588,2.6026,2.5964,2.502,2.4318,2.4253,2.3627,2.3101,2.3101,2.3101,2.3101,2.3101,2.3101,2.3101,2.3101,2.3101,2.3101,2.3101,2.3101,2.3101,2.3101,2.3101,2.3101,2.3101,2.3123,2.3212,2.3452,2.436,2.5399,2.6025,2.7316,2.8207,2.8688,2.9404,2.974,2.976,2.9779,2.9779,2.9779,2.9779,2.9779,3.5508,3.5508,3.5508,3.5508,3.5458,3.5315,3.5063,3.4803,3.4703,3.4653,3.4678,3.4653,3.4653,3.4527,3.3621,3.3395,3.3746,3.3391,3.342,3.3847,3.3872,3.4148,3.4653,3.4698,3.5873,3.7907,3.8332,3.9666,4.2137,4.2851,4.323,4.316,4.2631,4.2631,4.2651,4.1265,4.0726,4.0935,3.9875,3.8238,3.614,3.5039,3.342,3.1421,3.0087,2.8523,2.6808,2.5462,2.372,2.1425,2.1296,2.0649,1.9459,1.9323,1.9811,2.081,2.1118,2.1706,2.2791,2.3296,2.3463,2.3296,2.3825,2.418,2.3848,2.4355,2.473,2.4945,2.4492,2.4043,2.3504,2.4136,2.4722,2.4722,2.4808,2.4914,2.4872,2.3974,2.3278,2.3256,2.319,2.3101,2.3101,2.3101,2.3101,2.3101,2.3101,2.3101,2.3101,2.3101,2.3101,2.3101,2.3101,2.3101,2.3123,2.3365,2.3299,2.3408,2.3671,2.3627,2.4232,2.4999,2.6149,2.7093,2.7884,2.8668,2.9404,2.974,2.976,2.9779,2.9779,2.9779,2.9779,2.9779,2.9779,3.6056,3.6056,3.6056,3.6056,3.6031,3.5682,3.5581,3.573,3.5355,3.523,3.5207,3.523,3.523,3.5157,3.4452,3.4201,3.4377,3.4223,3.4226,3.4402,3.4402,3.4703,3.5248,3.5949,3.7356,3.9109,4.0006,4.1224,4.2763,4.322,4.329,4.3309,4.312,4.294,4.2551,4.1594,4.0965,4.0599,3.8881,3.6953,3.5068,3.3046,3.1087,2.9291,2.8156,2.6907,2.5462,2.4318,2.2955,2.1351,2.1306,2.0764,1.9747,2.0229,2.0814,2.1324,2.2031,2.2646,2.3074,2.3532,2.373,2.3633,2.4059,2.4352,2.4277,2.4473,2.4648,2.4629,2.4551,2.4219,2.4049,2.4113,2.4157,2.4157,2.4157,2.408,2.3729,2.3321,2.3101,2.3101,2.3101,2.3101,2.3159,2.3101,2.3101,2.3101,2.3101,2.312,2.3101,2.3101,2.3162,2.3123,2.3123,2.3365,2.4168,2.4189,2.4253,2.4467,2.4702,2.5231,2.5818,2.6418,2.7458,2.7844,2.853,2.9067,2.974,2.976,2.9779,2.9779,2.9779,2.9779,2.9779,2.9779,2.9779,3.6532,3.643,3.6405,3.6405,3.6355,3.5956,3.6006,3.6331,3.5981,3.5782,3.5782,3.5782,3.5782,3.5732,3.5403,3.5253,3.5203,3.4901,3.4803,3.4954,3.4979,3.5255,3.5915,3.6991,3.8385,3.9938,4.147,4.2569,4.321,4.329,4.329,4.329,4.329,4.312,4.2592,4.1515,4.063,3.982,3.7754,3.5564,3.3565,3.1578,2.9351,2.7325,2.6337,2.5609,2.4787,2.3714,2.2536,2.1547,2.1658,2.1502,2.0854,2.1413,2.1876,2.1965,2.2624,2.3201,2.3357,2.375,2.4004,2.4023,2.4489,2.4781,2.4668,2.4746,2.482,2.4801,2.4687,2.4648,2.4703,2.4476,2.416,2.4004,2.3867,2.3672,2.3376,2.3201,2.3179,2.3337,2.3513,2.351,2.351,2.3532,2.3552,2.351,2.351,2.3532,2.351,2.3532,2.3634,2.3799,2.3953,2.4396,2.5211,2.5693,2.5567,2.5714,2.5776,2.644,2.7096,2.7783,2.8307,2.8668,2.9067,2.9541,2.9779,2.9779,2.9779,2.9779,2.9779,2.9779,2.9779,2.9779,2.9779,3.6909,3.6531,3.6406,3.6531,3.6532,3.6507,3.6431,3.6531,3.6457,3.6482,3.6507,3.648,3.6482,3.6431,3.6431,3.643,3.623,3.5429,3.518,3.5506,3.5508,3.5782,3.6375,3.7619,3.8942,4.0324,4.2243,4.323,4.329,4.329,4.329,4.329,4.329,4.32,4.317,4.1037,3.9854,3.9117,3.6847,3.4127,3.1629,3.0703,2.862,2.5506,2.4935,2.4787,2.4702,2.3671,2.258,2.1702,2.2425,2.3057,2.2857,2.2947,2.3055,2.3047,2.314,2.3335,2.3769,2.418,2.4434,2.4512,2.5148,2.5425,2.5195,2.5367,2.5557,2.5503,2.5312,2.5215,2.5464,2.5254,2.4867,2.4473,2.4141,2.3948,2.375,2.3396,2.3298,2.373,2.404,2.4375,2.4394,2.4277,2.4215,2.4238,2.4258,2.433,2.445,2.4519,2.4754,2.5251,2.5523,2.5851,2.6607,2.7261,2.7058,2.6935,2.6955,2.7261,2.7907,2.8565,2.8846,2.9184,2.9346,2.9779,2.9779,2.9779,2.9779,2.9779,2.9779,2.9779,2.9779,2.9779,2.9779,3.7638,3.7487,3.7487,3.7487,3.7487,3.7487,3.7487,3.7487,3.7487,3.7487,3.7487,3.7487,3.7487,3.7487,3.7487,3.7487,3.7462,3.6734,3.6307,3.6132,3.613,3.6229,3.6777,3.8428,4.0361,4.2058,4.2921,4.329,4.329,4.329,4.329,4.329,4.329,4.288,4.2106,4.0607,3.9447,3.8305,3.5742,3.3434,3.1708,2.9747,2.7551,2.5463,2.4527,2.3969,2.3646,2.3278,2.2928,2.2533,2.2884,2.324,2.3477,2.3279,2.3415,2.3884,2.373,2.3747,2.4199,2.4609,2.4867,2.4961,2.5406,2.562,2.5542,2.564,2.5713,2.5693,2.5581,2.5581,2.564,2.5601,2.5352,2.4945,2.4769,2.4515,2.4219,2.4059,2.4059,2.418,2.4313,2.4414,2.4434,2.443,2.4469,2.4492,2.4496,2.475,2.5467,2.5756,2.6172,2.702,2.7194,2.745,2.8143,2.8607,2.8559,2.8393,2.8334,2.8135,2.8688,2.9067,2.9365,2.9541,2.9721,2.9779,2.9779,2.9779,2.9779,2.9779,2.9779,2.9779,2.9779,2.9779,2.9779,3.8191,3.8015,3.799,3.799,3.799,3.799,3.799,3.799,3.799,3.799,3.799,3.799,3.799,3.799,3.799,3.799,3.7965,3.7638,3.7312,3.6984,3.6758,3.692,3.7645,3.9792,4.1642,4.299,4.329,4.329,4.329,4.329,4.329,4.327,4.29,4.2239,4.1163,3.9502,3.8055,3.6829,3.4105,3.1981,3.0588,2.8469,2.6535,2.5171,2.4366,2.3909,2.361,2.3591,2.3513,2.3435,2.3493,2.3728,2.3965,2.3767,2.3845,2.4196,2.4196,2.4219,2.4629,2.4926,2.5278,2.5551,2.582,2.605,2.6147,2.6186,2.6147,2.5991,2.6108,2.6108,2.5991,2.5952,2.584,2.563,2.5239,2.4926,2.4531,2.457,2.4648,2.4707,2.4801,2.4859,2.4879,2.4879,2.4879,2.4902,2.5305,2.5724,2.6674,2.7197,2.7988,2.8628,2.8864,2.9232,2.9711,2.9931,3.0,2.991,2.9791,2.943,2.9482,2.9502,2.9682,2.9682,2.9779,2.9779,2.9779,2.9779,2.9779,2.9779,2.9779,2.9779,2.9779,2.9779,2.9779,3.8592,3.8115,3.8115,3.8191,3.8191,3.8191,3.8241,3.8165,3.8165,3.8216,3.8191,3.8266,3.8191,3.814,3.8291,3.8291,3.8115,3.809,3.804,3.7938,3.7831,3.8198,3.9421,4.1465,4.2769,4.3359,4.3439,4.3399,4.329,4.329,4.325,4.2981,4.2144,4.1224,4.0192,3.7873,3.6321,3.5089,3.2256,3.023,2.897,2.7295,2.5774,2.4674,2.4496,2.441,2.4394,2.4489,2.4355,2.4004,2.418,2.4332,2.4449,2.4449,2.443,2.4625,2.4547,2.4844,2.5121,2.5395,2.5649,2.6269,2.6387,2.6582,2.6811,2.6811,2.6693,2.6465,2.6674,2.6777,2.6484,2.6426,2.6406,2.6333,2.5688,2.5039,2.4629,2.4883,2.5102,2.52,2.5469,2.5679,2.5605,2.5678,2.5847,2.6064,2.6839,2.753,2.8136,2.8877,2.9691,3.0197,3.0553,3.0631,3.1001,3.0935,3.0877,3.007,3.0263,3.0407,3.0181,3.0156,3.003,2.998,2.993,2.9905,2.9779,2.9804,2.9779,2.9779,2.9779,2.9779,2.9779,2.9779,2.9779,3.9421,3.9245,3.9245,3.927,3.9245,3.9245,3.9245,3.9245,3.922,3.917,3.922,3.9245,3.917,3.9245,3.922,3.9245,3.912,3.8818,3.8668,3.8818,3.9554,4.0245,4.1128,4.2575,4.3579,4.3996,4.3967,4.3788,4.3319,4.324,4.285,4.205,4.1608,4.0548,3.8825,3.7282,3.5488,3.3713,3.2,3.0102,2.8547,2.764,2.661,2.5471,2.5098,2.4965,2.5004,2.5551,2.5512,2.4809,2.4492,2.4723,2.5269,2.5117,2.5215,2.5684,2.584,2.6035,2.6367,2.6445,2.6602,2.6797,2.6855,2.6869,2.6992,2.7012,2.6928,2.6875,2.6947,2.6992,2.6875,2.6855,2.6855,2.6713,2.605,2.5547,2.5425,2.5445,2.5542,2.5562,2.5679,2.5757,2.6005,2.6557,2.7068,2.7333,2.8186,2.9233,2.9806,3.0079,3.0702,3.1833,3.2293,3.2127,3.2068,3.1981,3.1456,3.0285,3.0425,3.118,3.103,3.0979,3.0733,3.0557,3.0457,3.0407,3.003,2.9829,2.9804,2.9905,2.9804,2.9804,2.9779,2.9779,2.9779,3.9697,3.9697,3.9697,3.9697,3.9697,3.9697,3.9697,3.9697,3.9697,3.9697,3.9697,3.9697,3.9697,3.9697,3.9697,3.9697,3.9673,3.9396,3.922,3.9576,4.109,4.2199,4.3026,4.4139,4.4748,4.4633,4.4416,4.3952,4.3325,4.2863,4.2092,4.122,4.0466,3.9284,3.7905,3.6605,3.5007,3.3023,3.1645,3.0203,2.8554,2.7704,2.706,2.6305,2.5996,2.5879,2.5977,2.6387,2.6333,2.5786,2.5566,2.5737,2.6147,2.6055,2.6133,2.6641,2.666,2.6758,2.6953,2.7012,2.7109,2.7246,2.7285,2.7383,2.7519,2.7539,2.7519,2.7324,2.7441,2.7441,2.7324,2.7285,2.7187,2.6992,2.6537,2.6245,2.6245,2.6245,2.6245,2.6245,2.6245,2.6419,2.6696,2.7631,2.8259,2.8838,2.9823,3.0674,3.1333,3.1389,3.1444,3.2239,3.2261,3.1644,3.1761,3.1832,3.1889,3.0788,3.0579,3.1401,3.1468,3.1434,3.1286,3.1035,3.0984,3.0834,3.0507,3.0231,3.0206,3.0161,2.998,2.9854,2.988,2.9905,2.988,3.9747,3.9697,3.9697,3.9697,3.9697,3.9697,3.9697,3.9697,3.9697,3.9697,3.9697,3.9697,3.9697,3.9697,3.9697,3.9697,3.9697,3.9647,3.9853,4.0515,4.1928,4.3238,4.3998,4.5492,4.5633,4.5081,4.4539,4.383,4.2991,4.2009,4.119,4.0349,3.8957,3.7941,3.704,3.592,3.4349,3.2653,3.1141,2.9843,2.8566,2.7598,2.7111,2.7225,2.722,2.7045,2.707,2.7226,2.7168,2.6724,2.6914,2.6869,2.6986,2.7025,2.707,2.7109,2.7168,2.7201,2.7187,2.7285,2.7344,2.7682,2.7761,2.7897,2.8105,2.8203,2.8125,2.778,2.8125,2.8066,2.7839,2.7761,2.7624,2.7363,2.7168,2.7123,2.7129,2.707,2.7012,2.7063,2.7043,2.7608,2.8165,2.8949,2.9707,3.0457,3.1229,3.1527,3.1592,3.1176,3.1301,3.1733,3.1335,3.0508,3.0975,3.1551,3.1636,3.1382,3.1133,3.1423,3.1519,3.1514,3.1564,3.1537,3.1512,3.1386,3.118,3.0959,3.0738,3.0633,3.0532,3.0301,3.0075,3.0105,3.0131,4.0099,3.9697,3.9697,3.9697,3.9697,3.9697,3.9697,3.9722,3.9722,3.9747,3.9697,3.9697,3.9697,3.9697,3.9697,3.9697,3.9697,3.9774,4.016,4.1244,4.1617,4.2711,4.3967,4.5814,4.5982,4.4924,4.448,4.3532,4.2161,4.1296,4.0342,3.9314,3.8605,3.758,3.6483,3.5006,3.3291,3.1828,3.0242,2.9061,2.8247,2.7562,2.7461,2.7949,2.8301,2.8125,2.7917,2.8523,2.8797,2.8281,2.7617,2.7363,2.7585,2.7624,2.7643,2.7702,2.7891,2.8027,2.8008,2.8027,2.8047,2.8164,2.8223,2.8203,2.8281,2.8633,2.8555,2.834,2.8516,2.8574,2.8308,2.821,2.8151,2.8047,2.7988,2.7988,2.791,2.7441,2.7129,2.7249,2.789,2.8624,2.8866,3.0637,3.1473,3.216,3.2253,3.2343,3.1785,3.1021,3.0974,3.1151,3.0147,2.9498,3.0468,3.0971,3.113,3.1266,3.1219,3.1577,3.1654,3.1807,3.1967,3.2026,3.2018,3.1913,3.1808,3.1482,3.1235,3.116,3.1105,3.0904,3.0703,3.0557,3.0432,4.0549,4.0099,4.0074,3.9923,3.9747,3.9948,4.0099,4.0074,4.0074,4.0074,4.0023,3.9823,3.9697,3.9697,3.9697,3.9697,3.9697,3.9723,4.0389,4.1344,4.1665,4.2328,4.3385,4.4651,4.4841,4.3929,4.3601,4.2694,4.1665,4.0649,3.9814,3.891,3.832,3.72,3.6037,3.4726,3.3167,3.1366,3.0334,2.9352,2.8403,2.8288,2.834,2.8809,2.9101,2.8992,2.8738,2.9168,2.9375,2.9121,2.8594,2.8301,2.8523,2.8582,2.8582,2.864,2.8758,2.8914,2.8914,2.8914,2.8933,2.8867,2.8914,2.8914,2.8933,2.9121,2.9121,2.9031,2.909,2.9149,2.8953,2.8933,2.8914,2.8875,2.8691,2.8594,2.8476,2.7981,2.7617,2.7721,2.8209,2.8748,2.971,3.1321,3.1784,3.181,3.179,3.1844,3.1395,3.0715,3.0305,3.0008,2.8916,2.8724,2.9825,3.0366,3.0505,3.0668,3.0784,3.1437,3.2054,3.2214,3.2433,3.2485,3.2566,3.2566,3.2437,3.2085,3.1763,3.1712,3.1612,3.1507,3.1331,3.1085,3.0984,4.1127,4.0625,4.0625,4.0375,4.0074,4.0424,4.0625,4.06,4.0524,4.0424,4.0374,3.9948,3.9697,3.9697,3.9697,3.9697,3.9697,3.9749,4.0313,4.0995,4.1094,4.1616,4.2471,4.2762,4.2855,4.2876,4.2637,4.1941,4.1091,4.0252,3.9424,3.8843,3.829,3.7147,3.5738,3.4893,3.347,3.1087,3.0535,3.0032,2.9176,2.9266,2.9422,2.9481,2.9774,2.9676,2.954,2.9715,2.9813,2.9715,2.9755,2.9794,2.9774,2.9618,2.9598,2.9559,2.9481,2.9461,2.9442,2.95,2.952,2.9598,2.9579,2.9559,2.9559,2.9598,2.9598,2.9559,2.954,2.954,2.9579,2.9481,2.952,2.9481,2.9199,2.9043,2.8965,2.8691,2.8476,2.8336,2.9106,2.9929,3.0189,3.108,3.1284,3.139,3.1351,3.1166,3.0737,3.0141,2.9568,2.9045,2.8054,2.7686,2.8631,2.9089,2.9299,2.968,2.9916,3.0761,3.176,3.2295,3.248,3.3021,3.314,3.3065,3.2914,3.2612,3.2365,3.2265,3.219,3.2135,3.1888,3.1612,3.1537,4.1706,4.1177,4.1177,4.1102,4.1025,4.1152,4.1177,4.1102,4.075,4.0526,4.0449,3.9973,3.9798,3.9772,3.9722,3.9722,3.9798,3.9799,3.9852,4.0185,4.0211,4.0491,4.0745,4.087,4.0617,4.0642,4.1087,4.1115,4.021,3.9373,3.917,3.8818,3.8266,3.7144,3.5683,3.4587,3.3135,3.1174,3.041,2.9794,2.9631,2.9637,2.9735,2.9794,3.0263,3.0243,2.995,3.0302,3.0537,3.0176,3.0469,3.0605,3.0497,3.0009,2.9735,2.9715,2.9735,2.9774,2.9755,2.9676,2.9637,2.9598,2.9696,2.9676,2.9735,2.9911,2.9989,2.9794,2.9696,2.9657,2.9598,2.9735,2.9657,2.9598,2.9579,2.9453,2.9453,2.9324,2.9031,2.8675,2.9951,3.0854,3.0507,3.049,3.0913,3.0794,3.0466,3.0266,2.9893,2.9126,2.8272,2.7801,2.7258,2.7157,2.7365,2.7582,2.7819,2.8334,2.8727,2.9405,3.0451,3.1782,3.2459,3.3105,3.3327,3.3215,3.309,3.2968,3.2889,3.2713,3.2738,3.2717,3.2491,3.2215,3.2114,4.2286,4.1756,4.1781,4.158,4.1403,4.1656,4.1756,4.1731,4.1507,4.1406,4.1204,4.0802,4.0551,4.0524,4.0524,4.0374,4.0124,3.9772,3.9873,3.9998,3.9848,3.9898,3.9998,3.9848,3.9722,3.9878,4.0313,4.0389,3.9749,3.9497,3.9245,3.9041,3.8283,3.6882,3.5238,3.3763,3.2256,3.0844,3.0158,2.9922,2.9989,3.0126,3.0263,3.0439,3.0634,3.0625,3.0488,3.0595,3.0781,3.0644,3.0762,3.0908,3.0791,3.0576,3.0263,3.0243,3.0243,3.0263,3.0263,3.0254,3.0322,3.0302,3.0234,3.0282,3.0322,3.043,3.0458,3.0341,3.0282,3.0282,3.0322,3.0243,3.0282,3.0243,3.0039,2.9902,2.9844,2.9735,2.9403,2.8965,2.9493,2.9807,2.9434,2.9682,3.0411,3.0302,2.9702,2.9396,2.9114,2.8533,2.78,2.7695,2.7519,2.75,2.748,2.748,2.7435,2.7662,2.7998,2.8671,2.9644,3.1149,3.2437,3.3333,3.3397,3.3361,3.3391,3.3319,3.3241,3.3115,3.3014,3.2939,3.2964,3.2889,3.2667,4.3014,4.2512,4.2512,4.2158,4.1754,4.216,4.2363,4.2336,4.221,4.211,4.211,4.158,4.1252,4.125,4.12,4.1026,4.0625,4.0198,4.035,4.0501,4.0174,4.0149,4.0275,4.0149,3.9898,3.9974,4.0027,3.9798,3.9723,3.9647,3.9517,3.8874,3.7878,3.6356,3.4452,3.3259,3.1454,3.054,3.0234,3.0469,3.0664,3.084,3.1074,3.1113,3.1074,3.1074,3.1133,3.0937,3.0996,3.0957,3.0957,3.0928,3.0928,3.0928,3.0928,3.0928,3.0928,3.0928,3.0859,3.084,3.0791,3.0771,3.0869,3.0888,3.0869,3.081,3.0869,3.0928,3.0888,3.0801,3.0791,3.0888,3.0869,3.0791,3.0527,3.0312,3.0273,3.0185,2.997,2.9609,2.9308,2.9113,2.9057,2.9329,3.0172,2.9513,2.8926,2.8873,2.8655,2.8569,2.8125,2.8184,2.8125,2.8125,2.8105,2.8047,2.8008,2.8022,2.8285,2.8711,2.9663,3.0821,3.204,3.3242,3.3546,3.3537,3.3598,3.3621,3.3391,3.3241,3.3165,3.309,3.3065,3.304,3.2939,4.4116,4.3589,4.3589,4.3288,4.2838,4.2864,4.2889,4.2838,4.2411,4.2213,4.2263,4.1681,4.1403,4.1403,4.1351,4.1275,4.1177,4.1051,4.1026,4.1102,4.0625,4.0374,4.0526,4.0475,4.03,4.0275,4.035,4.0124,3.9948,3.9848,3.9047,3.8154,3.759,3.6167,3.386,3.3042,3.2227,3.1091,3.1133,3.1504,3.1768,3.1562,3.166,3.1758,3.168,3.1582,3.1768,3.1416,3.1152,3.1348,3.1094,3.0937,3.0928,3.0928,3.0928,3.0928,3.0928,3.0928,3.0928,3.0928,3.0928,3.0928,3.0928,3.0928,3.0928,3.0928,3.0928,3.0928,3.0928,3.0928,3.0928,3.0928,3.0928,3.0908,3.081,3.0723,3.0752,3.0547,3.0361,3.0185,2.9863,2.9453,2.9219,2.9554,2.9781,2.8926,2.8301,2.834,2.8359,2.8418,2.8555,2.8633,2.8613,2.8613,2.8476,2.8457,2.834,2.834,2.8461,2.8708,2.9405,3.0413,3.1889,3.2886,3.3291,3.3992,3.4458,3.4324,3.3718,3.3492,3.3495,3.3341,3.309,3.3115,3.314,4.5041,4.4267,4.4238,4.394,4.3463,4.3438,4.3291,4.2989,4.2763,4.2665,4.2612,4.2384,4.2258,4.2183,4.1982,4.1806,4.1731,4.1503,4.1528,4.1555,4.1053,4.07,4.075,4.04,4.0149,4.0549,4.0524,4.065,4.0424,4.0192,3.9463,3.8285,3.7354,3.6083,3.3683,3.2942,3.2325,3.1839,3.1827,3.1973,3.2101,3.2042,3.2022,3.2198,3.2022,3.2081,3.2061,3.1925,3.1543,3.1621,3.1484,3.1348,3.1201,3.1319,3.1543,3.1269,3.1504,3.1416,3.1025,3.0947,3.0967,3.0918,3.0918,3.0928,3.0928,3.0947,3.0947,3.0928,3.0928,3.0928,3.0928,3.0928,3.0928,3.0928,3.0928,3.0928,3.0928,3.0898,3.0723,3.0547,3.0351,2.9961,2.9629,2.9751,2.9883,2.9376,2.8887,2.8867,2.8789,2.8684,2.8887,2.9149,2.9109,2.9051,2.8848,2.8711,2.8496,2.8437,2.832,2.8594,2.8953,2.9964,3.1491,3.2619,3.3165,3.4028,3.5105,3.4926,3.4198,3.4022,3.3922,3.3771,3.3643,3.3241,3.3241,4.5799,4.5016,4.4865,4.4443,4.3815,4.379,4.3489,4.3039,4.2989,4.2989,4.3014,4.2964,4.2964,4.2939,4.2562,4.2386,4.2361,4.1932,4.2007,4.1934,4.1557,4.1254,4.1279,4.0777,4.0651,4.0927,4.1329,4.1455,4.1553,4.1314,4.048,3.8465,3.724,3.5584,3.3998,3.2865,3.2181,3.2377,3.2441,3.2628,3.2746,3.2765,3.2726,3.2687,3.2589,3.248,3.2461,3.2218,3.1964,3.2031,3.1816,3.1621,3.1475,3.1601,3.1816,3.1699,3.1964,3.1866,3.1455,3.123,3.1133,3.1172,3.1211,3.1358,3.1319,3.124,3.1113,3.1133,3.1123,3.1064,3.0947,3.0928,3.0928,3.0928,3.0928,3.0928,3.0928,3.0937,3.0918,3.0762,3.0605,3.0527,3.0234,3.0087,2.9956,2.9693,2.952,2.9442,2.9277,2.9121,2.9219,2.9461,2.9442,2.9324,2.9043,2.8867,2.8672,2.8574,2.8476,2.876,2.9272,2.9979,3.1235,3.2177,3.3155,3.4342,3.5625,3.5165,3.4728,3.4653,3.4552,3.4427,3.4223,3.3724,3.342,4.6276,4.615,4.5648,4.4819,4.3815,4.379,4.3514,4.3014,4.3014,4.3014,4.3014,4.3014,4.3014,4.2989,4.2939,4.2864,4.2914,4.2886,4.2838,4.2663,4.2386,4.2009,4.1884,4.1783,4.1833,4.2087,4.2261,4.2534,4.2936,4.3109,4.0684,3.7485,3.7521,3.5163,3.3588,3.2988,3.2746,3.2949,3.3184,3.3516,3.3743,3.384,3.386,3.3769,3.3535,3.332,3.3281,3.2676,3.2374,3.2519,3.2187,3.1894,3.1925,3.1953,3.2051,3.2179,3.2285,3.2296,3.207,3.1738,3.1719,3.1934,3.2022,3.1925,3.1885,3.2022,3.1905,3.1523,3.1484,3.1328,3.1113,3.0947,3.1143,3.1113,3.1152,3.1055,3.1035,3.1016,3.0996,3.0918,3.0859,3.0801,3.0684,3.0497,3.0322,3.0087,2.9813,2.9715,2.9755,2.9629,2.959,2.9696,2.9696,2.952,2.9141,2.9043,2.916,2.9004,2.8828,2.9286,2.987,3.0631,3.1228,3.2625,3.38,3.4969,3.583,3.5517,3.5303,3.528,3.5155,3.4879,3.4547,3.4087,3.3923,4.6296,4.6276,4.6075,4.5347,4.4292,4.4288,4.379,4.309,4.3014,4.3014,4.3014,4.3014,4.3014,4.3014,4.3014,4.3014,4.3014,4.3014,4.3039,4.2813,4.2487,4.2263,4.211,4.2085,4.1932,4.2612,4.2989,4.3438,4.3991,4.4098,4.2837,4.0628,3.8866,3.7154,3.55,3.3961,3.3794,3.3867,3.4082,3.4336,3.4375,3.4453,3.4473,3.4414,3.4043,3.3848,3.373,3.3262,3.2988,3.2793,3.2676,3.248,3.2374,3.2441,3.2578,3.2667,3.2793,3.291,3.2773,3.2374,3.2061,3.2101,3.2179,3.2237,3.2335,3.2237,3.2159,3.1953,3.1914,3.1777,3.1768,3.171,3.1749,3.1621,3.1484,3.1328,3.1269,3.1269,3.1211,3.1191,3.1191,3.1152,3.1016,3.0869,3.0693,3.0517,3.0215,3.0019,3.0078,3.0117,3.0078,3.0146,3.0165,3.0009,2.9648,2.9648,2.9735,2.9434,2.9188,2.9733,3.0253,3.0647,3.142,3.2938,3.4328,3.526,3.5833,3.5889,3.5854,3.5805,3.5506,3.513,3.4778,3.4525,3.4301,4.6296,4.6296,4.6296,4.5648,4.4665,4.4589,4.3991,4.3087,4.3014,4.3014,4.3014,4.3014,4.3014,4.3014,4.3014,4.3014,4.3065,4.3162,4.3212,4.3215,4.3115,4.2914,4.276,4.276,4.3011,4.3388,4.3743,4.4242,4.4464,4.4397,4.323,4.1788,4.0321,3.8226,3.6813,3.5573,3.4877,3.4746,3.5,3.498,3.4961,3.5059,3.498,3.4941,3.4629,3.431,3.4114,3.3691,3.3379,3.3164,3.2977,3.293,3.291,3.2988,3.3262,3.3379,3.3516,3.3699,3.3457,3.3027,3.2589,3.2687,3.2637,3.2676,3.2707,3.2648,3.2598,3.2394,3.2374,3.2355,3.2296,3.2101,3.2061,3.1944,3.1836,3.1719,3.1719,3.1699,3.1582,3.1484,3.1523,3.1621,3.1465,3.1319,3.0996,3.0849,3.0634,3.0469,3.0527,3.0547,3.0527,3.0605,3.0732,3.0488,3.0273,3.0254,3.0185,2.9696,2.9612,3.0067,3.0533,3.1027,3.2196,3.4101,3.5224,3.5673,3.5958,3.6189,3.6282,3.6355,3.5909,3.5417,3.5585,3.5304,3.459,4.6351,4.6296,4.6296,4.5673,4.469,4.4614,4.4041,4.3165,4.3039,4.3014,4.3014,4.3014,4.3014,4.3014,4.3014,4.3065,4.3215,4.3514,4.374,4.379,4.4016,4.4342,4.4288,4.4163,4.4012,4.4589,4.4819,4.4844,4.4765,4.4574,4.3518,4.2207,4.0612,3.8421,3.7253,3.6009,3.5223,3.4922,3.5605,3.5703,3.5605,3.5742,3.5684,3.5527,3.5234,3.4857,3.4466,3.4192,3.3867,3.3601,3.332,3.3301,3.3476,3.3476,3.3711,3.3984,3.4336,3.4375,3.4095,3.3633,3.3437,3.3398,3.3398,3.3516,3.3801,3.3652,3.3242,3.3039,3.2891,3.2656,3.2452,3.2276,3.2335,3.2335,3.2266,3.2148,3.2148,3.2148,3.2031,3.1855,3.2042,3.2159,3.2003,3.1758,3.1367,3.1133,3.0986,3.0928,3.0898,3.084,3.0781,3.0801,3.0928,3.0771,3.0547,3.0723,3.0615,3.0087,3.0049,3.0561,3.1325,3.2063,3.3493,3.5324,3.5684,3.5746,3.6159,3.659,3.5864,3.5138,3.5906,3.5874,3.6091,3.566,3.4486,4.6823,4.6798,4.6476,4.5874,4.5246,4.5196,4.4543,4.3564,4.319,4.3014,4.3014,4.3014,4.3014,4.3014,4.3087,4.324,4.3539,4.3614,4.389,4.4367,4.4614,4.4539,4.4614,4.4765,4.4869,4.5146,4.5447,4.5698,4.5769,4.5208,4.5225,4.4268,4.1247,3.8977,3.7177,3.6107,3.6016,3.582,3.6328,3.668,3.6343,3.6401,3.6382,3.6186,3.5703,3.5234,3.4863,3.4629,3.4375,3.4199,3.3906,3.4023,3.418,3.4199,3.4316,3.4473,3.4707,3.4648,3.4492,3.4316,3.4277,3.4258,3.4219,3.4258,3.4434,3.4394,3.4062,3.373,3.3555,3.332,3.3125,3.3027,3.3027,3.2969,3.2871,3.2656,3.2578,3.2578,3.25,3.2335,3.2335,3.2335,3.2237,3.2148,3.1836,3.1504,3.1358,3.1084,3.0976,3.0918,3.0888,3.0888,3.0908,3.0849,3.081,3.0888,3.0908,3.0537,3.0697,3.1237,3.2027,3.2831,3.4057,3.5497,3.5639,3.5743,3.5547,3.5157,3.4086,3.3725,3.4336,3.4556,3.4241,3.3826,3.3165,4.7068,4.7048,4.6527,4.61,4.5773,4.5573,4.4945,4.4116,4.3714,4.3539,4.3564,4.3564,4.3589,4.3589,4.3589,4.3664,4.4091,4.4342,4.4468,4.4916,4.5141,4.5242,4.5242,4.5167,4.5497,4.5698,4.5799,4.5974,4.611,4.5814,4.476,4.3249,4.1965,3.9277,3.7343,3.6631,3.6601,3.6543,3.6973,3.7109,3.6855,3.6792,3.6695,3.646,3.6035,3.5527,3.5351,3.5117,3.4883,3.4785,3.4726,3.4726,3.4746,3.4863,3.4922,3.4941,3.4941,3.5019,3.5117,3.4961,3.498,3.5137,3.4922,3.4805,3.4824,3.4726,3.4551,3.4316,3.4231,3.4043,3.3848,3.3769,3.3555,3.3445,3.3516,3.3281,3.3379,3.3379,3.3203,3.3019,3.2765,3.2656,3.2511,3.2402,3.2285,3.2022,3.1729,3.1455,3.1133,3.1055,3.1025,3.0957,3.0967,3.0879,3.0869,3.0908,3.0928,3.0928,3.117,3.1469,3.2325,3.3042,3.4355,3.5374,3.5195,3.4894,3.4244,3.3586,3.2667,3.2236,3.2453,3.2488,3.2227,3.218,3.2079,4.7068,4.7023,4.6496,4.6271,4.62,4.5773,4.5196,4.4589,4.4539,4.4514,4.4489,4.4389,4.4389,4.4489,4.4543,4.4568,4.4665,4.5146,4.5347,4.5573,4.5824,4.5995,4.6095,4.6095,4.6075,4.6175,4.622,4.6195,4.622,4.5531,4.36,4.1482,4.0801,3.9075,3.7813,3.7109,3.7031,3.7109,3.7383,3.7461,3.7324,3.7031,3.7007,3.6777,3.6445,3.5996,3.5762,3.5527,3.5254,3.5059,3.4883,3.4863,3.4961,3.5215,3.5371,3.5488,3.5527,3.5762,3.5937,3.5742,3.5703,3.5801,3.5332,3.5215,3.5176,3.5137,3.4961,3.4746,3.4551,3.457,3.4512,3.4199,3.3906,3.4004,3.416,3.4199,3.4355,3.4297,3.4062,3.3828,3.3535,3.3301,3.293,3.2793,3.2734,3.2519,3.2296,3.2061,3.1719,3.1348,3.125,3.1074,3.1035,3.0937,3.0937,3.0947,3.0928,3.0928,3.0995,3.1325,3.2252,3.3064,3.3862,3.4433,3.4457,3.4062,3.3303,3.2379,3.1385,3.1163,3.118,3.1078,3.104,3.1611,3.1546,4.7068,4.7048,4.6527,4.6296,4.6301,4.6125,4.5547,4.4665,4.4589,4.4414,4.4041,4.4439,4.4715,4.4589,4.4589,4.4895,4.5196,4.5447,4.5748,4.5999,4.62,4.6276,4.6296,4.6296,4.6296,4.6296,4.6346,4.6491,4.6531,4.5641,4.4319,4.266,4.0797,3.9435,3.8454,3.7773,3.7559,3.7519,3.7871,3.7891,3.7793,3.7539,3.748,3.7344,3.7031,3.6621,3.6348,3.625,3.6016,3.5742,3.5957,3.6108,3.6167,3.6504,3.6758,3.6758,3.6777,3.6816,3.6875,3.6816,3.666,3.6484,3.6172,3.5996,3.5879,3.5664,3.5449,3.5195,3.498,3.4961,3.4844,3.457,3.4453,3.459,3.4687,3.4707,3.4824,3.4746,3.4551,3.4316,3.4043,3.373,3.3379,3.3242,3.3184,3.3008,3.2832,3.2578,3.2296,3.1905,3.1582,3.1387,3.1328,3.1309,3.1035,3.0976,3.0947,3.0928,3.1015,3.1257,3.2064,3.2765,3.3247,3.343,3.3446,3.294,3.2222,3.1358,3.0586,3.0181,3.0151,2.9978,2.9984,3.0627,3.083,4.7068,4.7023,4.6522,4.6296,4.6296,4.6271,4.5773,4.5095,4.5167,4.507,4.4869,4.5141,4.5367,4.5593,4.5493,4.5593,4.6095,4.5949,4.6024,4.6175,4.6296,4.6296,4.6296,4.6326,4.6296,4.6351,4.6522,4.6798,4.6724,4.6061,4.4831,4.3431,4.1456,3.9865,3.8842,3.8262,3.8066,3.8086,3.8239,3.834,3.8223,3.7972,3.7894,3.7835,3.7539,3.7207,3.7007,3.6914,3.6758,3.6562,3.6855,3.6914,3.6914,3.7148,3.7266,3.7207,3.7207,3.7187,3.7187,3.7226,3.7109,3.7012,3.6949,3.6777,3.6465,3.6191,3.5918,3.5644,3.5469,3.5312,3.5137,3.498,3.5078,3.5195,3.5137,3.5078,3.5078,3.5059,3.4902,3.4687,3.4414,3.4121,3.3887,3.3769,3.3574,3.332,3.3184,3.3086,3.2734,3.2335,3.2042,3.1797,3.1758,3.1719,3.1426,3.1191,3.1152,3.1094,3.0967,3.1326,3.1989,3.2064,3.2178,3.2297,3.2372,3.1917,3.1517,3.0789,3.0069,2.9891,2.9852,2.9857,2.9888,2.9975,2.9903,4.7074,4.7048,4.6552,4.6296,4.6296,4.6271,4.6024,4.5678,4.5999,4.6225,4.6125,4.6195,4.6426,4.6421,4.622,4.6296,4.6446,4.6326,4.6175,4.6296,4.6296,4.6321,4.6476,4.6401,4.6627,4.6677,4.6812,4.7028,4.6716,4.5868,4.4693,4.3853,4.1735,3.9937,3.875,3.8552,3.8398,3.8454,3.8493,3.8552,3.8437,3.8223,3.7933,3.7949,3.7695,3.7422,3.7383,3.7344,3.7324,3.7305,3.7344,3.7344,3.7461,3.75,3.75,3.7519,3.7598,3.7598,3.7617,3.7617,3.75,3.7402,3.7344,3.7246,3.6953,3.666,3.6387,3.6113,3.5937,3.5781,3.5605,3.5391,3.541,3.5508,3.5547,3.5547,3.5566,3.5469,3.5273,3.5078,3.4863,3.4551,3.4258,3.4101,3.3945,3.3652,3.3516,3.3476,3.3184,3.2785,3.2531,3.2296,3.2207,3.2129,3.1914,3.168,3.1523,3.1387,3.1172,3.1015,3.1402,3.1257,3.0986,3.1314,3.1667,3.1352,3.0905,3.0449,3.0312,3.043,3.0361,3.0087,2.9996,2.999,2.9707,4.6722,4.7048,4.6527,4.6296,4.6296,4.6296,4.625,4.6125,4.625,4.6125,4.5824,4.615,4.6451,4.6702,4.6547,4.6572,4.6602,4.6702,4.6346,4.6346,4.6346,4.6572,4.6823,4.6823,4.7079,4.7456,4.752,4.7282,4.6633,4.5425,4.3731,4.208,4.0407,3.9063,3.8683,3.8611,3.8611,3.8611,3.8689,3.8689,3.863,3.8591,3.8418,3.8398,3.8242,3.8086,3.7988,3.7777,3.7598,3.7402,3.7656,3.791,3.8278,3.8278,3.8298,3.8298,3.82,3.818,3.818,3.8105,3.8008,3.7832,3.7734,3.7559,3.7344,3.7129,3.6875,3.6621,3.6406,3.625,3.6094,3.5898,3.5762,3.5879,3.5996,3.6001,3.604,3.5879,3.5684,3.5488,3.5293,3.5,3.4668,3.4453,3.4297,3.4141,3.4016,3.388,3.3594,3.3242,3.3047,3.2832,3.2676,3.2559,3.2363,3.2129,3.1934,3.1699,3.1484,3.123,3.0976,3.0996,3.1035,3.0967,3.0995,3.0928,3.0928,3.0869,3.081,3.082,3.0762,3.0478,3.0497,3.0545,3.0144,4.6476,4.6697,4.6421,4.6421,4.6622,4.6647,4.6647,4.6647,4.6647,4.6502,4.6245,4.6522,4.6903,4.7205,4.7154,4.7104,4.7179,4.7129,4.6923,4.6747,4.6672,4.6823,4.7023,4.7199,4.74,4.7807,4.8178,4.787,4.6863,4.5114,4.3382,4.1982,4.0197,3.865,3.863,3.863,3.865,3.863,3.875,3.8848,3.8865,3.8767,3.873,3.875,3.8809,3.873,3.8828,3.8652,3.8379,3.8144,3.8262,3.8262,3.8513,3.8532,3.8571,3.8571,3.8552,3.8611,3.8611,3.8571,3.8493,3.8262,3.8203,3.8047,3.8083,3.7868,3.748,3.7226,3.6973,3.6797,3.6777,3.6621,3.6601,3.668,3.6699,3.6719,3.6621,3.6445,3.6289,3.6167,3.5859,3.5469,3.5176,3.5,3.4805,3.4492,3.4355,3.4349,3.4043,3.373,3.3555,3.3359,3.3184,3.3066,3.293,3.2617,3.2305,3.2051,3.1816,3.1562,3.1348,3.125,3.1172,3.0996,3.0928,3.0928,3.0928,3.0928,3.0928,3.0888,3.0908,3.0849,3.0928,3.0928,3.0595,4.6326,4.6296,4.6401,4.6647,4.7074,4.7099,4.7043,4.7074,4.7099,4.7074,4.7074,4.7224,4.7933,4.8184,4.8109,4.8284,4.8209,4.7732,4.745,4.7174,4.7174,4.74,4.7475,4.7475,4.7877,4.8064,4.8217,4.8115,4.7634,4.5084,4.3066,4.2796,4.1046,3.8728,3.8747,3.8806,3.8923,3.8984,3.9141,3.9277,3.9141,3.9002,3.9082,3.9199,3.9316,3.9512,3.9629,3.9492,3.9219,3.8984,3.8691,3.8574,3.8591,3.8611,3.8611,3.8611,3.8611,3.8611,3.8611,3.8611,3.8591,3.8571,3.8611,3.8611,3.8571,3.8396,3.8008,3.7793,3.7539,3.7324,3.7305,3.7266,3.7266,3.7266,3.7266,3.7266,3.7109,3.6953,3.6836,3.6734,3.6382,3.5937,3.5762,3.5586,3.5273,3.4941,3.4766,3.4746,3.4609,3.4277,3.4004,3.3809,3.3613,3.3516,3.3347,3.3086,3.2695,3.2441,3.2187,3.1934,3.168,3.1465,3.123,3.1006,3.0928,3.0947,3.0928,3.0928,3.0928,3.0928,3.0928,3.0928,3.0928,3.0928,3.0928,4.6296,4.6351,4.6747,4.7023,4.7124,4.7124,4.7068,4.7093,4.7124,4.7068,4.7324,4.8058,4.8435,4.8058,4.75,4.7606,4.8083,4.7927,4.76,4.7174,4.76,4.8033,4.8259,4.8259,4.8761,4.8622,4.7873,4.6604,4.6989,4.408,4.145,4.0738,4.0343,3.9349,3.959,3.957,3.9512,3.9551,3.9609,3.9746,3.9766,3.9668,3.9687,3.9746,3.9766,3.9824,3.9766,3.9434,3.9258,3.9082,3.8923,3.8767,3.8689,3.8689,3.8669,3.865,3.865,3.8672,3.8672,3.875,3.8789,3.8672,3.8672,3.865,3.863,3.8591,3.8356,3.8317,3.8008,3.7656,3.7559,3.7461,3.7441,3.7441,3.7441,3.7441,3.7363,3.7285,3.7207,3.7066,3.6832,3.6562,3.6426,3.6152,3.5742,3.5469,3.5273,3.5215,3.4961,3.4707,3.4505,3.431,3.4062,3.373,3.3445,3.3347,3.3086,3.2832,3.2578,3.2285,3.1953,3.1582,3.1328,3.1133,3.0976,3.0967,3.0967,3.0937,3.0918,3.0918,3.0928,3.0928,3.0928,3.0928,3.0928]},{"header":{"parameterUnit":"m.s-1","parameterCategory":1,"la1":31.0,"la2":29.5877,"lo1":-88.7671,"lo2":-86.6584,"dy":0.0162,"dx":0.0185,"nx":115,"ny":88,"refTime":"2023-04-24T12:00:00:Z","depth":0,"parameterNumber":3,"parameterNumberName":"V-component_of_WINDS"},"data":[0.0,0.0,0.0,0.0,0.0,0.0,0.0,0.0,0.0,0.0,0.0,0.0,0.0,0.0,0.0,0.0,0.0,0.0,0.0,0.0,0.0,0.0,0.0,0.0,0.0,0.0,0.0,0.0,0.0,0.0,0.0,0.0,0.0,0.0,0.0,0.0,0.0,0.0,0.0,0.0,0.0,0.0,0.0,0.0,0.0,0.0,0.0,0.0,0.0,0.0,0.0,0.0,0.0,0.0,0.0,0.0,0.0,0.0,0.0,0.0,0.0,0.0,0.0,0.0,0.0,0.0,0.0,0.0,0.0,0.0,0.0,0.0,0.0,0.0,0.0,0.0,0.0,0.0,0.0,0.0,0.0,0.0,0.0,0.0,0.0,0.0,0.0,0.0,0.0,0.0,0.0,0.0,0.0,0.0,0.0,0.0,0.0,0.0,0.0,0.0,0.0,0.0,0.0,0.0,0.0,0.0,0.0,0.0,0.0,0.0,0.0,0.0,0.0,0.0,0.0,0.0,0.0,0.0,0.0,0.0,0.0,0.0,0.0,0.0,0.0,0.0,0.0,0.0,0.0,0.0,0.0,0.0,0.0,0.0,0.0,0.0,0.0,0.0,0.0,0.0,0.0,0.0,0.0,0.0,0.0,0.0,0.0,0.0,0.0,0.0,0.0,0.0,0.0,0.0,0.0,0.0,0.0,0.0,0.0,0.0,0.0,0.0,0.0,0.0,0.0,0.0,0.0,0.0,0.0,0.0,0.0,0.0,0.0,0.0,0.0,0.0,0.0,0.0,0.0,0.0,0.0,0.0,0.0,0.0,0.0,0.0,0.0,0.0,0.0,0.0,0.0,0.0,0.0,0.0,0.0,0.0,0.0,0.0,0.0,0.0,0.0,0.0,0.0,0.0,0.0,0.0,0.0,0.0,0.0,0.0,0.0,0.0,0.0,0.0,0.0,0.0,0.0,0.0,0.0,0.0,0.0,0.0,0.0,0.0,0.0,0.0,0.0,0.0,0.0,0.0,0.0,0.0,0.0,0.0,0.0,0.0,0.0,0.0,0.0,0.0,0.0,0.0,0.0,0.0,0.0,0.0,0.0,0.0,0.0,0.0,0.0,0.0,0.0,0.0,0.0,0.0,0.0,0.0,0.0,0.0,0.0,0.0,0.0,0.0,0.0,0.0,0.0,0.0,0.0,0.0,0.0,0.0,0.0,0.0,0.0,0.0,0.0,0.0,0.0,0.0,0.0,0.0,0.0,0.0,0.0,0.0,0.0,0.0,0.0,0.0,0.0,0.0,0.0,0.0,0.0,0.0,0.0,0.0,0.0,0.0,0.0,0.0,0.0,0.0,0.0,0.0,0.0,0.0,0.0,0.0,0.0,0.0,0.0,0.0,0.0,0.0,0.0,0.0,0.0,0.0,0.0,0.0,0.0,0.0,0.0,0.0,0.0,0.0,0.0,0.0,0.0,0.0,0.0,0.0,0.0,0.0,0.0,0.0,0.0,0.0,0.0,0.0,0.0,0.0,0.0,0.0,0.0,0.0,0.0,0.0,0.0,0.0,0.0,0.0,0.0,0.0,0.0,0.0,0.0,0.0,0.0,0.0,0.0,0.0,0.0,0.0,0.0,0.0,0.0,0.0,0.0,0.0,0.0,0.0,0.0,0.0,0.0,0.0,0.0,0.0,0.0,0.0,0.0,0.0,0.0,0.0,0.0,0.0,0.0,0.0,0.0,0.0,0.0,0.0,0.0,0.0,0.0,0.0,0.0,0.0,0.0,0.0,0.0,0.0,0.0,0.0,0.0,0.0,0.0,0.0,0.0,0.0,0.0,0.0,0.0,0.0,0.0,0.0,0.0,0.0,0.0,0.0,0.0,0.0,0.0,0.0,0.0,0.0,0.0,0.0,0.0,0.0,0.0,0.0,0.0,0.0,0.0,0.0,0.0,0.0,0.0,0.0,0.0,0.0,0.0,0.0,0.0,0.0,0.0,0.0,0.0,0.0,0.0,0.0,0.0,0.0,0.0,0.0,0.0,0.0,0.0,0.0,0.0,0.0,0.0,0.0,0.0,0.0,0.0,0.0,0.0,0.0,0.0,0.0,0.0,0.0,0.0,0.0,0.0,0.0,0.0,0.0,0.0,0.0,0.0,0.0,0.0,0.0,0.0,0.0,0.0,0.0,0.0,0.0,0.0,0.0,0.0,0.0,0.0,0.0,0.0,0.0,0.0,0.0,0.0,0.0,0.0,0.0,0.0,0.0,0.0,0.0,0.0,0.0,0.0,0.0,0.0,0.0,0.0,0.0,0.0,0.0,0.0,0.0,0.0,0.0,0.0,0.0,0.0,0.0,0.0,0.0,0.0,0.0,0.0,0.0,0.0,0.0,0.0,0.0,0.0,0.0,0.0,0.0,0.0,0.0,0.0,0.0,0.0,0.0,0.0,0.0,0.0,0.0,0.0,0.0,0.0,0.0,0.0,0.0,0.0,0.0,0.0,0.0,0.0,0.0,0.0,0.0,0.0,0.0,0.0,0.0,0.0,0.0,0.0,0.0,0.0,0.0,0.0,0.0,0.0,0.0,0.0,0.0,0.0,0.0,0.0,0.0,0.0,0.0,0.0,0.0,0.0,0.0,0.0,0.0,0.0,0.0,0.0,0.0,0.0,0.0,0.0,0.0,0.0,0.0,0.0,0.0,0.0,0.0,0.0,0.0,0.0,0.0,0.0,0.0,0.0,0.0,0.0,0.0,0.0,0.0,0.0,0.0,0.0,0.0,0.0,0.0,0.0,0.0,0.0,0.0,0.0,0.0,0.0,0.0,0.0,0.0,0.0,0.0,0.0,0.0,0.0,0.0,0.0,0.0,0.0,0.0,0.0,0.0,0.0,0.0,0.0,0.0,0.0,0.0,0.0,0.0,0.0,0.0,0.0,0.0,0.0,0.0,0.0,0.0,0.0,0.0,0.0,0.0,0.0,0.0,0.0,0.0,0.0,0.0,0.0,0.0,0.0,0.0,0.0,0.0,0.0,0.0,0.0,0.0,0.0,0.0,0.0,0.0,0.0,0.0,0.0,0.0,0.0,0.0,0.0,0.0,0.0,0.0,0.0,0.0,0.0,0.0,0.0,0.0,0.0,0.0,0.0,0.0,0.0,0.0,0.0,0.0,0.0,0.0,0.0,0.0,0.0,0.0,0.0,0.0,0.0,0.0,0.0,0.0,0.0,0.0,0.0,0.0,0.0,0.0,0.0,0.0,0.0,0.0,0.0,0.0,0.0,0.0,0.0,0.0,0.0,0.0,0.0,0.0,0.0,0.0,0.0,0.0,0.0,0.0,0.0,0.0,0.0,0.0,0.0,0.0,0.0,0.0,0.0,0.0,0.0,0.0,0.0,0.0,0.0,0.0,0.0,0.0,0.0,0.0,0.0,0.0,0.0,0.0,0.0,0.0,0.0,0.0,0.0,0.0,0.0,0.0,0.0,0.0,0.0,0.0,0.0,0.0,0.0,0.0,0.0,0.0,0.0,0.0,0.0,0.0,0.0,0.0,0.0,0.0,0.0,0.0,0.0,0.0,0.0,0.0,0.0,0.0,0.0,0.0,0.0,0.0,0.0,0.0,0.0,0.0,0.0,0.0,0.0,0.0,0.0,0.0,0.0,0.0,0.0,0.0,0.0,0.0,0.0,0.0,0.0,0.0,0.0,0.0,0.0,0.0,0.0,0.0,0.0,0.0,0.0,0.0,0.0,0.0,0.0,0.0,0.0,0.0,0.0,0.0,0.0,0.0,0.0,0.0,0.0,0.0,0.0,0.0,0.0,0.0,0.0,0.0,0.0,0.0,0.0,0.0,0.0,0.0,0.0,0.0,0.0,0.0,0.0,0.0,0.0,0.0,0.0,0.0,0.0,0.0,0.0,0.0,0.0,0.0,0.0,0.0,0.0,0.0,0.0,0.0,0.0,0.0,0.0,0.0,0.0,0.0,0.0,0.0,0.0,0.0,0.0,0.0,0.0,0.0,0.0,0.0,0.0,0.0,0.0,0.0,0.0,0.0,0.0,0.0,0.0,0.0,0.0,0.0,0.0,0.0,0.0,0.0,0.0,0.0,0.0,0.0,0.0,0.0,0.0,0.0,0.0,0.0,0.0,0.0,0.0,0.0,0.0,0.0,0.0,0.0,0.0,0.0,0.0,0.0,0.0,0.0,0.0,0.0,0.0,0.0,0.0,0.0,0.0,0.0,0.0,0.0,0.0,0.0,0.0,0.0,0.0,0.0,0.0,0.0,1.1802,0.0,0.0,0.0,0.0,0.0,0.0,0.0,0.0,0.0,0.0,0.0,0.0,0.0,0.0,0.0,0.0,0.0,0.0,0.0,0.0,0.0,0.0,0.0,0.0,0.0,0.0,0.0,0.0,0.0,0.0,0.0,0.0,0.0,0.0,0.0,0.0,0.0,0.0,0.0,0.0,0.0,0.0,0.0,0.0,0.0,0.0,0.0,0.0,0.0,0.0,0.0,0.0,0.0,0.0,0.0,0.0,0.0,0.0,0.0,0.0,0.0,0.0,0.0,0.0,0.0,0.0,0.0,0.0,0.0,0.0,0.0,0.0,0.0,0.0,0.0,0.0,0.0,0.0,0.0,0.0,0.0,0.0,0.0,0.0,0.0,0.0,0.0,0.0,0.0,0.0,0.0,0.0,0.0,0.0,0.0,0.0,0.0,0.0,0.0,0.0,0.0,0.0,0.0,0.0,0.0,0.0,0.0,0.0,0.0,0.0,1.4589,1.4335,1.4736,1.4287,1.2819,0.0,0.0,0.0,0.0,0.0,0.0,0.0,0.0,0.0,0.0,0.0,0.0,0.0,0.0,0.0,0.0,0.0,0.0,0.0,0.0,0.0,0.0,0.0,0.0,0.0,0.0,0.0,0.0,0.0,0.0,0.0,0.0,0.0,0.0,0.0,0.0,0.0,0.0,0.0,0.0,0.0,0.0,0.0,0.0,0.0,0.0,0.0,0.0,0.0,0.0,0.0,0.0,0.0,0.0,0.0,0.0,0.0,0.0,0.0,0.0,0.0,0.0,0.0,0.0,0.0,0.0,0.0,0.0,0.0,0.0,0.0,0.0,0.0,0.0,0.0,0.0,0.0,0.0,0.0,0.0,0.0,0.0,0.0,0.0,0.0,0.0,0.0,0.0,0.0,0.0,0.0,0.0,0.0,0.0,0.0,0.0,0.0,0.0,0.0,0.0,0.0,0.0,0.0,0.0,0.0,0.0,0.0,0.0,0.0,0.0,0.0,0.0,1.5003,1.471,1.3754,0.0,0.0,0.0,0.0,0.0,0.0,0.0,0.0,0.0,0.0,0.0,0.0,0.0,0.0,0.0,0.0,0.0,0.0,0.0,0.0,0.0,0.0,0.0,0.0,0.0,0.0,0.0,0.0,0.0,0.0,0.0,0.0,0.0,0.0,0.0,0.0,0.0,0.0,0.0,0.0,0.0,0.0,0.0,0.0,0.0,0.0,0.0,0.0,0.0,0.0,0.0,0.0,0.0,0.0,0.0,0.0,0.0,0.0,0.0,0.0,0.0,0.0,0.0,0.0,0.0,0.0,0.0,0.0,0.0,0.0,0.0,0.0,0.0,0.0,0.0,0.0,0.0,0.0,0.0,0.0,0.0,0.0,0.0,0.0,0.0,0.0,0.0,0.0,0.0,0.0,0.0,0.0,0.0,0.0,0.0,0.0,0.0,0.0,0.0,0.0,0.0,0.0,0.0,0.0,0.0,0.0,0.0,0.0,0.0,0.0,1.5066,1.5311,1.5568,0.0,1.4122,0.0,0.0,0.0,0.0,0.0,0.0,0.0,0.0,0.0,0.0,0.0,0.0,0.0,0.0,0.0,0.0,0.0,0.0,0.0,0.0,0.0,0.0,0.0,0.0,0.0,0.0,0.0,0.0,0.0,0.0,0.0,0.0,0.0,0.0,0.0,0.0,0.0,0.0,0.0,0.0,0.0,0.0,0.0,0.0,0.0,0.0,0.0,0.0,0.0,0.0,0.0,0.0,0.0,0.0,0.0,0.0,0.0,0.0,0.0,0.0,0.0,0.0,0.0,0.0,0.0,0.0,0.0,0.0,0.0,0.0,0.0,0.0,0.0,0.0,0.0,0.0,0.0,0.0,0.0,0.0,0.0,0.0,0.0,0.0,0.0,0.0,0.0,0.0,0.0,0.0,0.0,0.0,0.0,0.0,0.0,0.0,0.0,0.0,0.0,0.0,0.0,0.0,0.0,0.0,0.0,0.0,0.0,0.0,0.0,0.0,1.5653,1.5414,1.5694,1.5212,0.0,0.0,0.0,0.0,0.0,0.0,0.0,0.0,0.0,0.0,0.0,0.0,0.0,0.0,0.0,0.0,0.0,0.0,0.0,0.0,0.0,0.0,0.0,0.0,0.0,0.0,0.0,0.0,0.0,0.0,0.0,0.0,0.0,0.0,0.0,0.0,0.0,0.0,0.0,0.0,0.0,0.0,0.0,0.0,0.0,0.0,0.0,0.0,0.0,0.0,0.0,0.0,0.0,0.0,0.0,0.0,0.0,0.0,0.0,0.0,0.0,0.0,0.0,0.0,0.0,0.0,0.0,0.0,0.0,0.0,0.0,0.0,0.0,0.0,0.0,0.0,0.0,0.0,0.0,0.0,0.0,0.0,0.0,0.0,0.0,0.0,0.0,0.0,0.0,0.0,0.0,0.0,0.0,0.0,0.0,0.0,0.0,0.0,0.0,0.0,0.0,0.0,0.0,0.0,0.0,0.0,0.0,0.0,0.0,0.0,1.577,1.5921,1.5681,1.5656,1.5042,1.3788,0.0,0.0,0.0,0.0,0.0,0.0,0.0,0.0,0.0,0.0,0.0,0.0,0.0,0.0,0.0,0.0,0.0,0.0,0.0,0.0,0.0,0.0,0.0,0.0,0.0,0.0,0.0,0.0,0.0,0.0,0.0,0.0,0.0,0.0,0.0,0.0,0.0,0.0,0.0,0.0,0.0,0.0,0.0,0.0,0.0,0.0,0.0,0.0,0.0,0.0,0.0,0.0,0.0,0.0,0.0,0.0,0.0,0.0,0.0,0.0,0.0,0.0,0.0,0.0,0.0,0.0,0.0,0.0,0.0,0.0,0.0,0.0,0.0,0.0,0.0,0.0,0.0,0.0,0.0,0.0,0.0,0.0,0.0,0.0,0.0,0.0,0.0,0.0,0.0,0.0,0.0,0.0,0.0,0.0,0.0,0.0,0.0,0.0,0.0,0.0,0.0,0.0,0.0,0.0,0.0,0.0,0.0,0.0,1.79,1.6337,1.5725,1.6276,1.546,1.4757,0.0,0.0,0.0,0.0,0.0,0.0,0.0,0.0,0.0,0.0,0.0,0.0,0.0,0.0,0.0,0.0,0.0,0.0,0.0,0.0,0.0,0.0,0.0,0.0,0.0,0.0,0.0,0.0,0.0,0.0,0.0,0.0,0.0,0.0,0.0,0.0,0.0,0.0,0.0,0.0,0.0,0.0,0.0,0.0,0.0,0.0,0.0,0.0,0.0,0.0,0.0,0.0,0.0,0.0,0.0,0.0,0.0,0.0,0.0,0.0,0.0,0.0,0.0,0.0,0.0,0.0,0.0,0.0,0.0,0.0,0.0,0.0,0.0,0.0,0.0,0.0,0.0,0.0,0.0,0.0,0.0,0.0,0.0,0.0,0.0,0.0,0.0,0.0,0.0,0.0,0.0,0.0,0.0,0.0,0.0,0.0,0.0,0.0,0.0,0.0,0.0,0.0,0.0,0.0,0.0,0.0,0.0,0.0,0.0,1.5605,1.53,1.6257,1.8414,1.6492,1.5027,0.0,0.0,0.0,0.0,0.0,0.0,0.0,0.0,0.0,0.0,0.0,0.0,0.0,0.0,0.0,0.0,0.0,0.0,0.0,0.0,0.0,0.0,0.0,0.0,0.0,0.0,0.0,0.0,0.0,0.0,0.0,0.0,0.0,0.0,0.0,0.0,0.0,0.0,0.0,0.0,0.0,0.0,0.0,0.0,0.0,0.0,0.0,0.0,0.0,0.0,0.0,0.0,0.0,0.0,0.0,0.0,0.0,0.0,0.0,0.0,0.0,0.0,0.0,0.0,0.0,0.0,0.0,0.0,0.0,0.0,0.0,0.0,0.0,0.0,0.0,0.0,0.0,0.0,0.0,0.0,0.0,0.0,0.0,0.0,0.0,0.0,0.0,0.0,0.0,0.0,0.0,0.0,0.0,0.0,0.0,0.0,0.0,0.0,0.0,0.0,0.0,0.0,0.0,0.0,0.0,0.0,0.0,0.0,0.0,1.473,0.0,1.6884,1.8379,1.636,1.4839,0.0,0.0,0.0,0.0,0.0,0.0,0.0,0.0,0.0,0.0,0.0,0.0,0.0,0.0,0.0,0.0,0.0,0.0,0.0,0.0,0.0,0.0,0.0,0.0,0.0,0.0,0.0,0.0,0.0,0.0,0.0,0.0,0.0,0.0,0.0,0.0,0.0,0.0,0.0,0.0,0.0,0.0,0.0,0.0,0.0,0.0,0.0,0.0,0.0,0.0,0.0,0.0,0.0,0.0,0.0,0.0,0.0,0.0,0.0,0.0,0.0,0.0,0.0,0.0,0.0,0.0,0.0,0.0,0.0,0.0,0.0,0.0,0.0,0.0,0.0,0.0,0.0,0.0,0.0,0.0,0.0,0.0,0.0,0.0,0.0,0.0,0.0,0.0,0.0,0.0,0.0,0.0,0.0,0.0,0.0,0.0,0.0,0.0,0.0,0.0,0.0,0.0,0.0,0.0,0.0,0.0,0.0,0.0,1.6896,1.5997,1.7521,1.7702,1.5974,1.5187,1.4172,0.0,0.0,0.0,0.0,0.0,0.0,0.0,0.0,0.0,0.0,0.0,0.0,0.0,0.0,0.0,0.0,0.0,0.0,0.0,0.0,0.0,0.0,0.0,0.0,0.0,0.0,0.0,0.0,0.0,0.0,0.0,0.0,0.0,0.0,0.0,0.0,0.0,0.0,0.0,0.0,0.0,0.0,0.0,0.0,0.0,0.0,0.0,0.0,0.0,0.0,0.0,0.0,0.0,0.0,0.0,0.0,0.0,0.0,0.0,0.0,0.0,0.0,0.0,0.0,0.0,0.0,0.0,0.0,0.0,0.0,0.0,0.0,0.0,0.0,0.0,0.0,0.0,0.0,0.0,0.0,0.0,0.0,0.0,0.0,0.0,0.0,0.0,0.0,0.0,0.0,0.0,0.0,0.0,0.0,0.0,0.0,0.0,0.0,0.0,0.0,0.0,0.0,0.0,0.0,0.0,0.0,0.0,0.0,0.0,2.0022,2.0518,2.0563,2.0025,1.7835,1.5938,0.0,0.0,0.0,0.0,0.0,0.0,0.0,0.0,0.0,0.0,0.0,0.0,0.0,0.0,0.0,0.0,0.0,0.0,0.0,0.0,0.0,0.0,0.0,0.0,0.0,0.0,0.0,0.0,0.0,0.0,0.0,0.0,0.0,0.0,0.0,0.0,0.0,0.0,0.0,0.0,0.0,0.0,0.0,0.0,0.0,0.0,0.0,0.0,0.0,0.0,0.0,0.0,0.0,0.0,0.0,0.0,0.0,0.0,0.0,0.0,0.0,0.0,0.0,0.0,0.0,0.0,0.0,0.0,0.0,0.0,0.0,0.0,0.0,0.0,0.0,0.0,0.0,0.0,0.0,0.0,0.0,0.0,0.0,0.0,0.0,0.0,0.0,0.0,0.0,0.0,0.0,0.0,0.0,0.0,0.0,0.0,0.0,0.0,0.0,0.0,0.0,0.0,0.0,0.0,0.0,0.0,0.0,0.0,0.0,2.3328,2.2472,2.2108,2.2299,1.983,1.7668,1.5858,0.0,0.0,0.0,0.0,0.0,0.0,0.0,0.0,0.0,0.0,0.0,0.0,0.0,0.0,0.0,0.0,0.0,0.0,0.0,0.0,0.0,0.0,0.0,0.0,0.0,0.0,0.0,0.0,0.0,0.0,0.0,0.0,0.0,0.0,0.0,0.0,0.0,0.0,0.0,0.0,0.0,0.0,0.0,0.0,0.0,0.0,0.0,0.0,0.0,0.0,0.0,0.0,0.0,0.0,0.0,0.0,0.0,0.0,0.0,0.0,0.0,0.0,0.0,0.0,0.0,0.0,0.0,0.0,0.0,0.0,0.0,0.0,0.0,0.0,0.0,0.0,0.0,0.0,0.0,0.0,0.0,0.0,0.0,0.0,0.0,0.0,0.0,0.0,0.0,0.0,0.0,0.0,0.0,0.0,0.0,0.0,0.0,0.0,0.0,0.0,0.0,0.0,0.0,0.0,0.0,0.0,0.0,0.0,2.5701,2.3582,2.2696,2.3042,2.1337,1.9401,0.0,0.0,0.0,0.0,0.0,0.0,0.0,0.0,0.0,0.0,0.0,0.0,0.0,0.0,0.0,0.0,0.0,0.0,0.0,0.0,0.0,0.0,0.0,0.0,0.0,0.0,0.0,0.0,0.0,0.0,0.0,0.0,0.0,0.0,0.0,0.0,0.0,0.0,0.0,0.0,0.0,0.0,0.0,0.0,0.0,0.0,0.0,0.0,0.0,0.0,0.0,0.0,0.0,0.0,0.0,0.0,0.0,0.0,0.0,0.0,0.0,0.0,0.0,0.0,0.0,0.0,0.0,0.0,0.0,0.0,0.0,0.0,0.0,0.0,0.0,0.0,0.0,0.0,0.0,0.0,0.0,0.0,0.0,0.0,0.0,0.0,0.0,0.0,0.0,0.0,0.0,0.0,0.0,0.0,0.0,0.0,0.0,0.0,0.0,0.0,0.0,0.0,0.0,0.0,0.0,0.0,0.0,0.0,0.0,2.4691,2.5381,2.5764,2.5657,2.4413,2.233,0.0,0.0,0.0,0.0,0.0,0.0,0.0,0.0,0.0,0.0,0.0,0.0,0.0,0.0,0.0,0.0,0.0,0.0,0.0,0.0,0.0,0.0,0.0,0.0,0.0,0.0,0.0,0.0,0.0,0.0,0.0,0.0,0.0,0.0,0.0,0.0,0.0,0.0,0.0,0.0,0.0,0.0,0.0,0.0,0.0,0.0,0.0,0.0,0.0,0.0,0.0,0.0,0.0,0.0,0.0,0.0,0.0,0.0,0.0,0.0,0.0,0.0,0.0,0.0,0.0,0.0,0.0,0.0,0.0,0.0,0.0,0.0,0.0,0.0,0.0,0.0,0.0,0.0,0.0,0.0,0.0,0.0,0.0,0.0,0.0,0.0,0.0,0.0,0.0,0.0,0.0,0.0,0.0,0.0,0.0,0.0,0.0,0.0,0.0,0.0,0.0,0.0,0.0,0.0,0.0,0.0,0.0,0.0,2.5753,2.5197,2.6719,2.7465,2.7291,2.6147,2.4232,0.0,0.0,0.0,0.0,0.0,0.0,0.0,0.0,0.0,0.0,0.0,0.0,0.0,0.0,0.0,0.0,0.0,0.0,0.0,0.0,0.0,0.0,0.0,0.0,0.0,0.0,0.0,0.0,0.0,0.0,0.0,0.0,0.0,0.0,0.0,0.0,0.0,0.0,0.0,0.0,0.0,0.0,0.0,0.0,0.0,0.0,0.0,0.0,0.0,0.0,0.0,0.0,0.0,0.0,0.0,0.0,0.0,0.0,0.0,0.0,0.0,0.0,0.0,0.0,0.0,0.0,0.0,0.0,0.0,0.0,0.0,0.0,0.0,0.0,0.0,0.0,0.0,0.0,0.0,0.0,0.0,0.0,0.0,0.0,0.0,0.0,0.0,0.0,0.0,0.0,0.0,0.0,0.0,0.0,0.0,0.0,0.0,0.0,0.0,0.0,0.0,0.0,0.0,0.0,0.0,0.0,0.0,0.0,2.5834,2.6502,2.7421,2.7984,2.8064,2.6986,2.5438,0.0,0.0,0.0,0.0,0.0,0.0,0.0,0.0,0.0,0.0,0.0,0.0,0.0,0.0,0.0,0.0,0.0,0.0,0.0,0.0,0.0,0.0,0.0,0.0,0.0,0.0,0.0,0.0,0.0,0.0,0.0,0.0,0.0,0.0,0.0,0.0,0.0,0.0,0.0,0.0,0.0,0.0,0.0,0.0,0.0,0.0,0.0,0.0,0.0,0.0,0.0,0.0,0.0,0.0,0.0,0.0,0.0,0.0,0.0,0.0,0.0,0.0,0.0,0.0,0.0,0.0,0.0,0.0,0.0,0.0,0.0,0.0,0.0,0.0,0.0,0.0,0.0,0.0,0.0,0.0,0.0,0.0,0.0,0.0,0.0,0.0,0.0,0.0,0.0,0.0,0.0,0.0,0.0,0.0,0.0,0.0,0.0,0.0,0.0,0.0,0.0,0.0,0.0,0.0,0.0,0.0,0.0,0.0,2.7157,2.6521,2.6707,2.7238,2.8084,2.7443,2.6374,0.0,0.0,0.0,0.0,0.0,0.0,0.0,0.0,0.0,0.0,0.0,0.0,0.0,0.0,0.0,0.0,0.0,0.0,0.0,0.0,0.0,0.0,0.0,0.0,0.0,0.0,0.0,0.0,0.0,0.0,0.0,0.0,0.0,0.0,0.0,0.0,0.0,0.0,0.0,0.0,0.0,0.0,0.0,0.0,0.0,0.0,0.0,0.0,2.7592,0.0,0.0,0.0,0.0,0.0,0.0,0.0,0.0,0.0,0.0,0.0,0.0,0.0,0.0,0.0,0.0,0.0,0.0,0.0,0.0,0.0,0.0,0.0,0.0,0.0,0.0,0.0,0.0,0.0,0.0,0.0,0.0,0.0,0.0,0.0,0.0,0.0,0.0,0.0,0.0,0.0,0.0,0.0,0.0,0.0,0.0,0.0,0.0,0.0,0.0,0.0,0.0,0.0,0.0,0.0,0.0,0.0,0.0,0.0,2.7652,2.7256,2.7258,2.7522,2.8064,2.7822,2.7109,0.0,0.0,0.0,0.0,0.0,0.0,0.0,0.0,0.0,0.0,0.0,0.0,0.0,0.0,0.0,0.0,0.0,0.0,0.0,0.0,0.0,0.0,0.0,0.0,0.0,0.0,0.0,0.0,0.0,0.0,0.0,0.0,0.0,0.0,0.0,0.0,0.0,0.0,0.0,0.0,0.0,0.0,0.0,0.0,0.0,0.0,0.0,0.0,0.0,0.0,0.0,0.0,0.0,0.0,0.0,0.0,0.0,0.0,0.0,0.0,0.0,0.0,0.0,0.0,0.0,0.0,0.0,0.0,0.0,0.0,0.0,0.0,0.0,0.0,0.0,0.0,0.0,0.0,0.0,0.0,0.0,0.0,0.0,0.0,0.0,0.0,0.0,0.0,0.0,0.0,0.0,0.0,0.0,0.0,0.0,0.0,0.0,0.0,0.0,0.0,0.0,0.0,0.0,0.0,0.0,0.0,0.0,2.7879,2.7917,2.8343,2.8184,2.8187,2.8367,2.8184,2.7624,2.6661,0.0,0.0,0.0,0.0,0.0,0.0,0.0,0.0,0.0,0.0,0.0,0.0,0.0,0.0,0.0,0.0,0.0,0.0,0.0,0.0,0.0,0.0,0.0,0.0,0.0,0.0,0.0,0.0,0.0,0.0,0.0,0.0,0.0,0.0,0.0,0.0,0.0,0.0,2.7794,2.9187,0.0,0.0,0.0,0.0,0.0,0.0,0.0,0.0,3.0712,0.0,0.0,0.0,0.0,0.0,0.0,0.0,0.0,0.0,0.0,0.0,0.0,0.0,0.0,0.0,0.0,0.0,0.0,0.0,0.0,0.0,0.0,0.0,0.0,0.0,0.0,0.0,0.0,0.0,0.0,0.0,0.0,0.0,0.0,0.0,0.0,0.0,0.0,0.0,0.0,0.0,0.0,0.0,0.0,0.0,0.0,0.0,0.0,0.0,0.0,0.0,0.0,0.0,0.0,0.0,0.0,2.8737,2.8706,2.8929,2.9482,2.8585,2.8569,2.9424,2.8609,2.7604,2.6623,0.0,0.0,0.0,0.0,0.0,0.0,0.0,0.0,0.0,0.0,0.0,0.0,0.0,0.0,0.0,0.0,0.0,0.0,0.0,0.0,0.0,0.0,0.0,0.0,0.0,0.0,0.0,0.0,0.0,0.0,0.0,0.0,0.0,0.0,0.0,0.0,0.0,0.0,0.0,3.1946,3.2807,0.0,0.0,0.0,0.0,0.0,0.0,0.0,0.0,3.1468,0.0,0.0,0.0,0.0,0.0,0.0,0.0,0.0,0.0,0.0,0.0,0.0,0.0,0.0,0.0,0.0,0.0,0.0,0.0,0.0,0.0,0.0,0.0,0.0,0.0,0.0,0.0,0.0,0.0,0.0,0.0,0.0,0.0,0.0,0.0,0.0,0.0,0.0,0.0,0.0,0.0,0.0,0.0,0.0,0.0,0.0,0.0,0.0,0.0,0.0,0.0,0.0,0.0,0.0,0.0,2.848,2.9057,2.9503,2.976,2.9268,2.9248,2.974,2.8952,2.7676,0.0,0.0,0.0,0.0,0.0,0.0,0.0,0.0,0.0,0.0,0.0,0.0,0.0,0.0,0.0,0.0,0.0,0.0,0.0,0.0,0.0,0.0,0.0,0.0,0.0,0.0,0.0,0.0,0.0,0.0,0.0,0.0,0.0,0.0,0.0,0.0,0.0,0.0,0.0,0.0,3.2031,3.3071,3.2786,0.0,0.0,0.0,0.0,0.0,0.0,3.2384,3.3083,0.0,0.0,0.0,0.0,0.0,0.0,0.0,0.0,0.0,0.0,0.0,0.0,0.0,0.0,0.0,0.0,0.0,0.0,0.0,0.0,0.0,0.0,0.0,0.0,0.0,0.0,0.0,0.0,0.0,0.0,0.0,0.0,0.0,0.0,0.0,0.0,0.0,0.0,0.0,0.0,0.0,0.0,0.0,0.0,0.0,0.0,0.0,0.0,0.0,0.0,0.0,0.0,0.0,0.0,0.0,2.8147,2.9227,2.9779,2.9779,2.9779,2.9779,2.9779,2.9208,2.7816,0.0,0.0,0.0,0.0,0.0,0.0,0.0,0.0,0.0,0.0,0.0,0.0,0.0,0.0,0.0,0.0,0.0,0.0,0.0,0.0,0.0,0.0,0.0,0.0,0.0,0.0,0.0,0.0,0.0,0.0,0.0,0.0,0.0,0.0,0.0,0.0,0.0,0.0,0.0,0.0,0.0,3.34,3.3093,3.3022,0.0,0.0,0.0,0.0,3.2129,3.4029,0.0,0.0,0.0,0.0,0.0,0.0,0.0,0.0,0.0,0.0,0.0,0.0,0.0,0.0,0.0,0.0,0.0,0.0,0.0,0.0,0.0,0.0,0.0,0.0,0.0,0.0,0.0,0.0,0.0,0.0,0.0,0.0,0.0,0.0,0.0,0.0,0.0,0.0,0.0,0.0,0.0,0.0,0.0,0.0,0.0,0.0,0.0,0.0,0.0,0.0,0.0,0.0,0.0,0.0,0.0,0.0,2.8129,2.9227,2.9779,2.9779,2.9779,2.9779,2.9779,2.9208,2.8119,0.0,0.0,0.0,0.0,0.0,0.0,0.0,0.0,0.0,0.0,0.0,0.0,0.0,0.0,0.0,0.0,0.0,0.0,0.0,0.0,0.0,0.0,0.0,0.0,0.0,0.0,0.0,0.0,0.0,0.0,0.0,0.0,0.0,0.0,0.0,0.0,0.0,0.0,0.0,0.0,0.0,3.538,3.3753,3.5197,3.5719,0.0,0.0,3.4782,3.2376,3.5161,0.0,0.0,0.0,0.0,0.0,0.0,0.0,0.0,0.0,0.0,0.0,0.0,0.0,0.0,0.0,0.0,0.0,0.0,0.0,0.0,0.0,0.0,0.0,0.0,0.0,0.0,0.0,0.0,0.0,0.0,0.0,0.0,0.0,0.0,0.0,0.0,0.0,0.0,0.0,0.0,0.0,0.0,0.0,0.0,0.0,0.0,0.0,0.0,0.0,0.0,0.0,0.0,0.0,0.0,0.0,2.7795,2.8104,2.8881,2.9283,2.9283,2.9628,2.9628,2.9283,2.875,2.7879,0.0,0.0,0.0,0.0,0.0,0.0,0.0,0.0,0.0,0.0,0.0,0.0,0.0,0.0,0.0,0.0,0.0,0.0,0.0,0.0,0.0,0.0,0.0,0.0,0.0,0.0,0.0,0.0,0.0,0.0,0.0,0.0,0.0,0.0,0.0,0.0,0.0,0.0,0.0,0.0,0.0,0.0,3.3355,3.5583,0.0,0.0,0.0,3.6201,3.4537,0.0,0.0,0.0,0.0,0.0,0.0,0.0,0.0,0.0,0.0,0.0,0.0,0.0,0.0,0.0,0.0,0.0,0.0,0.0,0.0,0.0,0.0,0.0,0.0,0.0,0.0,0.0,0.0,0.0,0.0,0.0,0.0,0.0,0.0,0.0,0.0,0.0,0.0,0.0,0.0,0.0,0.0,0.0,0.0,0.0,0.0,0.0,0.0,0.0,0.0,0.0,0.0,0.0,0.0,0.0,0.0,0.0,2.8097,2.8505,2.8856,2.9107,2.9277,2.9302,2.9132,2.8323,0.0,0.0,0.0,0.0,0.0,0.0,0.0,0.0,0.0,0.0,0.0,0.0,0.0,0.0,0.0,0.0,0.0,0.0,0.0,0.0,0.0,0.0,0.0,0.0,0.0,0.0,0.0,2.64,0.0,0.0,0.0,0.0,0.0,0.0,0.0,0.0,0.0,0.0,0.0,0.0,0.0,0.0,3.4075,3.3254,3.5986,3.7856,0.0,0.0,3.7461,3.6242,3.7905,3.8904,0.0,0.0,0.0,0.0,0.0,0.0,0.0,0.0,0.0,0.0,0.0,0.0,0.0,0.0,0.0,0.0,0.0,0.0,0.0,0.0,0.0,0.0,0.0,0.0,0.0,0.0,0.0,0.0,0.0,0.0,0.0,0.0,0.0,0.0,0.0,0.0,0.0,0.0,0.0,0.0,0.0,0.0,0.0,0.0,0.0,0.0,0.0,0.0,0.0,0.0,0.0,0.0,0.0,0.0,2.7562,2.8097,2.8129,2.8674,2.9654,2.875,2.8699,2.9654,2.819,2.7577,0.0,0.0,0.0,0.0,0.0,0.0,0.0,0.0,0.0,0.0,0.0,0.0,0.0,0.0,0.0,0.0,0.0,0.0,0.0,0.0,0.0,0.0,0.0,0.0,0.0,0.0,0.0,0.0,0.0,0.0,0.0,0.0,0.0,0.0,0.0,0.0,0.0,0.0,0.0,0.0,0.0,3.5046,3.39,3.6918,3.8725,0.0,3.8296,3.8566,3.6496,3.9116,4.031,3.7204,0.0,0.0,0.0,0.0,0.0,0.0,0.0,0.0,0.0,0.0,0.0,0.0,0.0,0.0,0.0,0.0,0.0,0.0,0.0,0.0,0.0,0.0,0.0,0.0,0.0,0.0,0.0,0.0,0.0,0.0,0.0,0.0,0.0,0.0,0.0,0.0,0.0,0.0,0.0,0.0,0.0,0.0,0.0,0.0,0.0,0.0,0.0,0.0,0.0,0.0,0.0,0.0,0.0,2.7236,2.8097,2.8122,2.8323,2.875,2.9001,2.9026,2.8731,2.8122,2.772,0.0,0.0,0.0,0.0,0.0,0.0,0.0,0.0,0.0,0.0,0.0,0.0,0.0,0.0,0.0,0.0,0.0,0.0,0.0,0.0,0.0,0.0,0.0,0.0,0.0,0.0,0.0,0.0,2.6316,2.6565,2.7092,0.0,0.0,0.0,0.0,0.0,0.0,0.0,0.0,0.0,0.0,3.5913,3.5791,3.7271,0.0,0.0,3.7669,3.7656,3.7259,3.8633,3.9471,3.8684,3.8335,0.0,0.0,0.0,0.0,0.0,0.0,0.0,0.0,0.0,0.0,0.0,0.0,0.0,0.0,0.0,0.0,0.0,0.0,0.0,0.0,0.0,0.0,0.0,0.0,0.0,0.0,0.0,0.0,0.0,0.0,0.0,0.0,0.0,0.0,0.0,0.0,0.0,0.0,0.0,0.0,0.0,0.0,0.0,0.0,0.0,0.0,0.0,0.0,0.0,0.0,0.0,0.0,2.7101,2.7835,2.7857,2.8021,2.8329,2.88,2.8825,2.8373,2.8047,2.777,0.0,0.0,0.0,0.0,0.0,0.0,0.0,0.0,0.0,0.0,0.0,0.0,0.0,0.0,0.0,0.0,0.0,0.0,0.0,0.0,0.0,0.0,0.0,0.0,0.0,0.0,0.0,0.0,2.7311,2.7738,2.8234,0.0,0.0,0.0,0.0,0.0,0.0,0.0,0.0,0.0,0.0,3.5988,3.6349,3.6901,3.7379,3.7637,3.7266,3.7184,3.7967,3.8612,3.9137,3.9458,0.0,0.0,0.0,0.0,0.0,0.0,0.0,0.0,0.0,0.0,0.0,0.0,0.0,0.0,0.0,0.0,0.0,0.0,0.0,0.0,0.0,0.0,0.0,0.0,0.0,0.0,0.0,2.5791,0.0,0.0,2.6438,0.0,0.0,0.0,0.0,0.0,0.0,0.0,0.0,0.0,0.0,0.0,0.0,0.0,0.0,0.0,0.0,0.0,0.0,0.0,0.0,0.0,0.0,2.7298,2.7329,2.7391,2.7864,2.8806,2.7896,2.7896,2.8787,2.7871,2.7562,2.804,0.0,0.0,0.0,0.0,0.0,0.0,0.0,0.0,0.0,0.0,0.0,0.0,0.0,0.0,0.0,0.0,0.0,0.0,0.0,0.0,0.0,0.0,0.0,0.0,0.0,0.0,2.8119,2.809,2.8278,0.0,0.0,0.0,0.0,0.0,0.0,0.0,0.0,0.0,3.1823,3.3686,3.5073,3.5119,3.5657,3.6411,3.7258,3.7293,3.7552,3.8556,3.935,3.9654,0.0,0.0,0.0,0.0,0.0,0.0,0.0,0.0,0.0,0.0,0.0,0.0,0.0,0.0,0.0,0.0,0.0,0.0,0.0,0.0,0.0,0.0,0.0,0.0,0.0,0.0,0.0,2.9086,2.9262,0.0,0.0,0.0,0.0,0.0,0.0,0.0,0.0,0.0,0.0,0.0,3.268,3.357,0.0,0.0,0.0,0.0,0.0,0.0,0.0,0.0,0.0,0.0,0.0,0.0,2.7657,2.8335,2.8363,2.853,2.8888,2.8932,2.895,2.8907,2.8222,2.783,2.7833,0.0,0.0,0.0,0.0,0.0,0.0,0.0,0.0,0.0,0.0,0.0,0.0,0.0,0.0,0.0,0.0,0.0,0.0,0.0,0.0,0.0,0.0,0.0,0.0,0.0,3.0236,0.0,0.0,0.0,0.0,0.0,0.0,0.0,0.0,0.0,0.0,3.2896,3.3233,3.4568,3.5457,3.6128,3.6542,3.6638,3.6604,0.0,0.0,0.0,0.0,0.0,0.0,0.0,0.0,0.0,0.0,0.0,0.0,0.0,0.0,4.0729,3.7932,3.7274,3.7088,3.6878,0.0,0.0,0.0,0.0,0.0,0.0,0.0,0.0,0.0,0.0,0.0,0.0,0.0,0.0,3.111,3.1271,3.1093,0.0,0.0,0.0,0.0,0.0,0.0,0.0,0.0,3.3368,3.4067,3.4209,3.5093,3.5489,0.0,3.4728,3.3719,0.0,0.0,0.0,0.0,0.0,0.0,0.0,0.0,2.8014,2.8365,2.8737,2.8907,2.8932,2.9283,2.9283,2.8907,2.838,2.786,2.7374,2.6951,2.7051,0.0,0.0,0.0,0.0,0.0,0.0,0.0,0.0,0.0,0.0,0.0,0.0,0.0,0.0,0.0,0.0,0.0,0.0,0.0,0.0,0.0,0.0,0.0,3.1192,0.0,0.0,0.0,0.0,0.0,0.0,0.0,0.0,0.0,3.5416,3.4731,3.4868,3.6162,3.6239,3.6297,3.6669,0.0,0.0,0.0,0.0,0.0,0.0,0.0,3.9411,3.9892,3.9588,3.9718,4.0891,4.124,4.15,4.1869,0.0,0.0,3.9764,3.9347,3.9274,3.9103,3.8969,3.8983,3.9242,3.9315,3.946,0.0,0.0,0.0,0.0,3.2035,0.0,0.0,0.0,3.1733,3.1584,0.0,3.1517,0.0,0.0,0.0,0.0,3.126,3.2551,0.0,0.0,3.4521,3.516,3.4592,3.519,3.5489,3.5549,3.6118,3.6071,3.5316,3.2556,0.0,0.0,0.0,0.0,0.0,0.0,2.839,2.7502,2.8439,2.8932,2.8957,2.8957,2.8913,2.8838,2.838,2.7715,2.684,2.6721,2.6839,2.7223,2.6883,0.0,0.0,0.0,0.0,0.0,0.0,0.0,0.0,0.0,0.0,0.0,0.0,0.0,0.0,0.0,0.0,0.0,0.0,0.0,0.0,3.1271,0.0,0.0,0.0,0.0,0.0,0.0,0.0,0.0,0.0,3.7879,3.7761,3.7054,3.66,3.663,0.0,0.0,0.0,0.0,3.5634,3.6492,3.7194,3.7907,3.8759,3.9558,4.0087,4.0087,0.0,0.0,4.0873,4.1613,4.2056,4.1894,4.2489,4.3173,4.3803,4.363,4.35,4.3062,4.1678,4.0707,4.0229,4.0003,4.0062,3.5716,0.0,0.0,0.0,0.0,3.4479,3.4729,3.4572,3.4882,3.5085,3.5204,3.5055,0.0,0.0,0.0,0.0,0.0,0.0,3.4064,3.4583,3.5196,3.5383,3.522,3.54,3.5489,3.5519,3.5699,3.5699,3.5457,3.4633,3.3707,3.2692,0.0,0.0,0.0,0.0,2.8956,2.9093,2.9374,2.9553,2.9553,2.9553,2.9151,2.8329,2.8555,2.8446,2.8005,2.8369,2.8445,2.8149,2.8608,0.0,0.0,0.0,0.0,0.0,0.0,0.0,0.0,0.0,0.0,0.0,0.0,0.0,0.0,0.0,0.0,0.0,0.0,0.0,3.3368,3.2654,3.2387,0.0,0.0,0.0,0.0,0.0,0.0,0.0,0.0,0.0,3.8649,3.7423,3.6798,0.0,0.0,3.57,3.6212,3.6706,3.7157,3.7425,3.8547,0.0,3.8948,3.9584,4.0113,4.0113,4.0895,4.1703,4.2249,4.2514,4.2641,4.2581,4.3169,4.3568,4.3277,4.2486,4.1847,4.1533,4.0899,4.0328,4.0163,4.0113,3.9914,3.9035,3.6214,3.643,3.6475,3.6508,3.6818,3.6869,3.6687,3.6946,3.7069,3.7069,3.7069,3.7038,3.6944,3.6628,0.0,0.0,0.0,3.4922,3.5489,3.5489,3.5489,3.5489,3.5489,3.5489,3.5489,3.5489,3.5489,3.5489,3.5489,3.4971,3.3979,0.0,3.17,3.0887,2.9788,2.9308,2.9453,2.9679,2.9779,2.9779,2.9578,2.9126,2.8455,2.853,2.8529,2.835,2.8695,2.8786,2.8607,2.9027,2.8807,0.0,0.0,0.0,0.0,0.0,0.0,0.0,0.0,0.0,0.0,0.0,3.0763,3.0078,0.0,0.0,0.0,3.2811,3.4197,3.4167,3.4172,0.0,0.0,0.0,0.0,0.0,0.0,0.0,3.9368,3.9532,3.9434,3.8935,3.7569,3.6767,3.7248,3.6538,3.6117,3.6554,0.0,3.8232,3.8218,3.9309,3.994,3.948,3.9948,4.0514,4.0732,4.1441,4.2155,4.2711,4.2827,4.29,4.3134,4.3476,4.3544,4.2982,4.1986,4.1289,4.1371,4.0879,4.0368,4.0142,3.9863,3.9447,4.1979,4.1247,3.9721,3.9523,4.0031,3.8663,3.8395,3.8827,3.8175,3.7894,3.7876,3.7908,3.7894,3.7851,3.7054,0.0,3.6554,3.583,3.5473,3.5489,3.5489,3.5489,3.5489,3.5489,3.5489,3.5489,3.5489,3.5489,3.5473,3.5408,3.4935,3.3979,3.2982,3.1811,3.0517,3.0017,2.9528,2.9007,2.9528,2.9779,2.9779,2.9208,2.8907,2.8907,2.843,2.8197,2.8154,2.8222,2.8416,2.88,2.8754,2.9002,2.9476,0.0,0.0,0.0,0.0,0.0,0.0,0.0,0.0,0.0,0.0,0.0,0.0,0.0,0.0,3.1725,3.2953,0.0,3.4074,3.5814,0.0,0.0,0.0,3.8851,3.8222,3.9319,4.0087,4.0003,0.0,0.0,3.8731,3.7482,3.6584,3.6584,3.6584,3.6645,3.6767,3.8001,3.8921,3.8975,3.9623,4.0138,4.0154,4.0625,4.1184,4.1725,4.1874,4.2108,4.2671,4.2823,4.2995,4.3286,4.3437,4.3205,4.2655,4.2025,4.1785,4.188,4.1357,4.0638,4.0192,3.9519,3.8935,4.3551,4.2664,4.1234,4.0765,4.0888,4.0548,3.9821,3.8894,3.8718,3.8635,3.8649,3.8635,3.8635,3.8594,3.7847,3.7174,3.6554,3.5846,3.5489,3.5489,3.5489,3.5489,3.5489,3.5489,3.5489,3.5489,3.5489,3.5489,3.5457,3.4739,3.4245,3.391,3.2343,3.1372,3.1008,3.0215,2.9729,2.9578,2.9729,2.9779,2.9798,2.9208,2.8907,2.8907,2.8781,2.8687,2.8731,2.9132,2.9571,2.9997,3.0552,3.0821,3.0772,3.1185,0.0,0.0,0.0,0.0,0.0,0.0,0.0,0.0,0.0,3.2804,3.209,0.0,3.4536,0.0,3.3996,3.5337,3.7275,3.7976,0.0,0.0,3.9784,4.0219,3.9644,3.9889,3.9876,3.9262,3.9016,3.8437,3.7276,3.6828,3.6584,3.6584,3.6584,3.7024,3.8157,3.8649,3.9143,3.9675,3.9952,4.0254,4.0684,4.1218,4.1778,4.2382,4.2498,4.2648,4.3214,4.3303,4.3232,4.2949,4.291,4.2491,4.1573,4.1218,4.1001,4.0693,4.0418,4.0266,4.0079,3.9434,3.8718,4.4327,4.3727,4.2322,4.1708,4.1604,4.0274,3.9371,3.8927,3.8894,3.9116,3.9428,3.9056,3.8894,3.8813,3.7761,3.7024,3.6569,3.5846,3.5489,3.5489,3.5489,3.5489,3.5489,3.5489,3.5489,3.5489,3.5489,3.5489,3.5441,3.4493,3.3917,3.3702,3.2261,3.1363,3.0932,3.017,2.993,3.0156,2.993,2.9779,2.9779,2.9227,2.9032,2.9283,2.9032,2.9032,2.9283,2.9628,3.0107,3.07,3.1287,3.145,3.1185,3.1736,3.16,0.0,0.0,0.0,0.0,0.0,0.0,0.0,0.0,0.0,0.0,0.0,3.5817,3.5918,3.6323,3.7369,3.9328,3.9613,3.9864,4.026,4.0424,4.0441,4.015,3.9799,3.9381,3.8948,3.8298,3.7555,3.6706,3.6584,3.6737,3.7084,3.7394,3.793,3.8745,3.9196,3.961,4.0016,4.0113,4.0392,4.1149,4.1595,4.2,4.2537,4.2462,4.2412,4.2686,4.2743,4.2648,4.2372,4.2302,4.201,4.1127,4.0886,4.065,3.9834,3.9584,3.9584,3.9558,3.8676,3.7714,4.4369,4.4126,4.2602,4.1894,4.1599,3.8904,3.8258,3.9043,3.9043,3.9434,4.0028,3.9262,3.8854,3.8663,3.7358,3.6677,3.6538,3.6009,3.5682,3.5639,3.5639,3.5639,3.5639,3.5549,3.5549,3.5639,3.5639,3.5623,3.5606,3.4578,3.3829,3.3386,3.236,3.1423,3.0703,3.0181,3.0131,3.0608,3.01,2.9779,2.9779,2.9208,2.9183,2.9729,2.9208,2.9183,2.9773,2.9914,3.04,3.1307,3.1709,3.1814,3.1554,3.1782,3.1579,0.0,3.1493,0.0,0.0,0.0,0.0,0.0,0.0,0.0,0.0,3.53,3.7005,3.8844,3.9114,3.9604,4.0665,4.0908,4.0967,4.0909,4.0468,4.0154,3.9952,3.9315,3.8827,3.8649,3.7408,3.6584,3.6584,3.6584,3.6904,3.7775,3.8414,3.884,3.9096,3.9636,4.0075,4.0113,4.0154,4.0565,4.1386,4.1714,4.1969,4.2392,4.219,4.1821,4.1863,4.1863,4.181,4.169,4.1693,4.1486,4.092,4.078,4.0351,3.9216,3.8867,3.8772,3.8663,3.77,3.6645,4.3139,4.2362,4.0816,3.9789,3.9043,3.8042,3.8505,3.9876,3.9876,3.9952,4.0028,3.9249,3.8566,3.7998,3.7605,3.7072,3.6562,3.6873,3.6776,3.6297,3.6314,3.6314,3.6284,3.5759,3.5789,3.6284,3.6314,3.6314,3.6264,3.4971,3.4066,3.3523,3.1764,3.0988,3.1185,0.0,0.0,0.0,3.0055,2.9779,2.9754,2.9208,2.9183,2.9754,2.9208,0.0,2.9793,3.0552,3.1352,3.229,3.3097,0.0,0.0,0.0,0.0,0.0,0.0,0.0,0.0,0.0,0.0,0.0,3.6542,3.6322,3.5461,3.7582,3.9434,4.0377,4.0939,4.1341,4.1522,4.1614,4.1418,4.0978,4.0803,4.0336,3.9282,3.8975,3.8437,3.7157,3.6767,3.6584,3.6584,3.6584,3.7159,3.8428,3.8813,3.9183,3.9799,3.9978,4.01,4.0138,4.0429,4.078,4.1024,4.1462,4.1789,4.1937,4.1906,4.1778,4.1746,4.1757,4.1595,4.1207,4.1058,4.0897,4.0368,4.0254,3.9969,3.9069,3.8428,3.8023,3.7976,3.7263,3.6584,4.2395,4.1853,4.0344,3.9915,0.0,3.9188,3.965,4.1089,3.9977,3.9519,3.9467,3.9056,3.8418,3.771,3.7552,3.7314,3.6956,3.6956,3.6776,3.6493,3.6164,3.5998,3.6014,3.5669,3.5848,3.6493,3.6493,3.642,3.6142,3.4981,3.4125,3.3638,3.2149,3.1516,3.1763,3.1009,3.0588,3.0588,3.008,2.9779,2.9798,2.9503,2.9503,2.9773,2.9503,0.0,0.0,0.0,0.0,0.0,0.0,0.0,0.0,3.3766,0.0,3.3923,3.428,3.4591,3.4875,3.6163,3.6984,3.7043,3.7841,3.8075,3.7373,3.863,3.9834,4.0816,4.1172,4.1497,4.1732,4.1552,4.1217,4.0897,4.0327,3.9626,3.8989,3.8213,3.7467,3.6737,3.629,3.6181,3.6538,3.6964,3.763,3.8731,3.9262,3.9623,3.999,4.0113,4.0113,4.0138,4.0552,4.0874,4.0897,4.1104,4.1375,4.1364,4.1139,4.099,4.0978,4.0966,4.0827,4.0552,4.0492,4.0405,4.0154,3.9778,3.9276,3.8497,3.7746,3.7101,3.6784,3.6337,3.607,4.2058,4.1817,4.0408,4.0541,4.1612,4.0535,4.082,4.1944,4.0091,0.0,0.0,3.8929,3.8401,3.7791,3.7644,3.7584,3.7554,3.7195,3.6943,3.6823,3.6267,3.6028,3.6028,3.5908,3.6178,3.6823,3.6823,3.6566,3.6061,3.5162,3.4357,3.3699,3.271,3.2215,3.2139,3.1315,3.0889,3.0839,3.0181,2.9779,2.9779,2.9779,2.9779,2.9779,2.9779,3.0254,3.1175,3.1352,3.1568,3.1858,3.2925,3.3209,3.2567,3.3466,3.4187,3.4631,3.5306,3.5953,3.647,3.7817,3.8451,3.8101,3.8847,3.9309,3.9199,3.9297,3.978,4.0804,4.0978,4.1252,4.1571,4.1081,4.0675,4.0556,3.9425,3.8676,3.8423,3.7408,3.6645,3.6507,3.6133,3.6054,3.6964,3.7616,3.8292,3.8989,3.9662,4.0113,4.0113,4.0113,4.0113,4.015,4.0454,4.0721,4.0756,4.0745,4.0756,4.0779,4.0417,4.0125,4.0113,4.0113,4.0113,4.0142,4.0113,4.0028,3.9889,3.9368,3.8608,3.7778,3.7069,3.6368,3.5702,3.5489,3.5522,4.2256,4.1658,4.0697,4.0112,3.9843,4.048,4.0936,4.1154,4.0809,4.0715,4.0629,3.9234,3.8553,3.8453,3.8339,3.8242,3.832,3.8781,3.8691,3.8123,3.8033,3.799,3.7943,3.7404,3.7494,3.8093,3.814,3.763,3.6722,3.6151,3.5232,3.3806,3.2705,3.2215,3.2169,3.2064,3.1968,3.1943,3.0532,2.9779,2.9779,2.9779,2.9779,2.9779,2.9798,3.0254,3.1148,3.201,3.2556,3.2899,3.4351,3.4793,3.4081,3.5205,3.597,3.5892,3.6536,3.7257,3.8015,3.8852,3.9662,4.0354,4.055,4.0429,4.0006,4.0426,4.0769,4.0897,4.1319,4.1497,4.1058,4.0379,3.9775,3.9262,3.8451,3.7688,3.7114,3.6798,3.6584,3.6584,3.6538,3.7009,3.8185,3.8608,3.8948,3.9735,3.9978,4.0113,4.0113,4.0113,4.0113,4.0113,4.0142,4.0217,4.0291,4.0229,4.0266,4.0217,4.0167,4.0113,4.0113,4.0113,4.0113,4.0113,4.0062,3.9812,3.9276,3.9002,3.8241,3.7159,3.6645,3.6306,3.5619,3.5489,3.5489,4.1584,4.1,4.0551,4.0575,4.0894,4.1788,4.1965,4.1486,4.1053,4.0387,3.9704,3.9292,3.8886,3.854,3.8808,3.8931,3.896,3.8901,3.8691,3.838,3.8033,3.7853,3.7823,3.7537,3.7764,3.8344,3.7783,3.7184,3.6455,3.5765,3.4744,3.3461,3.2921,3.2692,3.2667,3.2365,3.2215,3.2169,3.0909,3.0231,3.0231,2.9955,2.9779,2.9824,3.0266,3.0988,3.1956,3.3264,3.3963,3.3889,3.5006,3.5386,3.4942,3.5515,3.6217,3.7048,3.7791,3.8501,3.9155,3.977,4.0334,4.0828,4.0636,4.0368,4.0138,4.0353,4.0478,4.049,4.0732,4.0779,4.0456,3.9767,3.9189,3.8935,3.7876,3.7009,3.6676,3.6584,3.6584,3.663,3.6979,3.7688,3.8772,3.8894,3.9209,3.9927,4.0113,4.0113,4.0113,4.0113,4.0113,4.0113,4.0113,4.0113,4.0113,4.0113,4.0113,4.0113,4.0113,4.0113,4.0113,4.0113,4.0113,4.0075,3.9799,3.9342,3.8894,3.8171,3.7408,3.6919,3.6228,3.5878,3.557,3.5489,3.5489,4.1224,4.0636,4.0606,4.1132,4.1961,4.2637,4.2477,4.1642,4.098,3.9967,3.8931,3.9327,3.9199,3.8727,3.9182,3.9391,3.9331,3.8871,3.8631,3.8571,3.8075,3.7853,3.7836,3.7836,3.8,3.8169,3.7426,3.6693,3.6011,3.5248,3.4401,3.355,3.3341,3.3319,3.3445,3.2742,3.2466,3.2495,3.1516,3.0839,3.0588,3.0181,3.0002,3.0158,3.0809,3.1802,3.3136,3.4488,3.5137,3.5067,3.5884,3.6293,3.6152,3.6367,3.7161,3.848,3.9074,3.9507,3.9831,4.0388,4.069,4.0687,4.0331,4.0113,4.0113,4.0282,4.0269,4.0146,4.015,4.0138,4.0003,3.9222,3.8649,3.858,3.7455,3.6661,3.66,3.6737,3.6964,3.7144,3.7656,3.8316,3.8968,3.9183,3.9434,3.9952,4.0113,4.0113,4.0113,4.0113,4.0113,4.0113,4.0113,4.0113,4.0113,4.0113,4.0113,4.0113,4.0113,4.0113,4.0113,4.0113,3.9952,3.9825,3.9342,3.8772,3.8381,3.7496,3.6676,3.6322,3.5895,3.5538,3.5506,3.5489,3.5489,4.1931,4.1343,4.1313,4.1468,4.1734,4.1828,4.1503,4.0888,4.0724,4.0209,3.9379,3.9397,3.9409,3.9302,3.9361,3.9421,3.9391,3.9331,3.9272,3.9272,3.9242,3.9212,3.9182,3.9182,3.8741,3.8011,3.7738,3.6951,3.5689,3.549,3.5111,3.4561,3.4073,3.4048,3.4327,3.352,3.3241,3.3696,3.262,3.1587,3.0663,3.0563,3.0687,3.1071,3.1167,3.2413,3.4735,3.5096,3.5646,3.6571,3.7726,3.8326,3.8311,3.9209,4.0095,4.067,4.0327,4.0006,3.9809,4.0515,4.0734,4.022,4.0129,4.0113,4.0146,4.0696,4.0798,4.0269,4.0113,4.018,4.0037,3.8846,3.8062,3.8062,3.7248,3.6584,3.6722,3.7248,3.7933,3.8603,3.869,3.9069,3.9727,3.9889,3.9965,4.0075,4.0113,4.0113,4.0113,4.0113,4.0113,4.0113,4.0113,4.0113,4.0113,4.0113,4.0113,4.0113,4.0113,4.0113,4.0113,4.0003,3.9901,3.9315,3.8854,3.827,3.7379,3.66,3.6353,3.5895,3.5635,3.5489,3.5489,3.5489,3.5489,4.2551,4.1972,4.1991,4.181,4.1565,4.1648,4.1484,4.1091,4.0679,4.0311,3.9996,3.9989,3.975,3.9421,3.9421,3.9421,3.9421,3.9421,3.9421,3.9421,3.9421,3.9601,3.9978,4.0008,3.9571,3.8831,3.8221,3.727,3.6082,3.5339,3.4898,3.4698,3.4477,3.4349,3.4201,3.3796,3.352,3.3416,3.2989,3.2456,3.1937,3.1597,3.1362,3.1394,3.2722,3.3992,3.5192,3.6535,3.7564,3.7937,3.8844,3.9415,3.9552,4.0028,4.0375,4.0563,4.0484,4.0428,4.0412,4.0735,4.0696,4.015,4.0113,4.0113,4.0113,4.0405,4.0405,4.0248,4.0506,4.073,4.0585,3.9354,3.8442,3.8358,3.7775,3.7293,3.7322,3.7991,3.8594,3.8894,3.9315,3.9688,4.0003,4.0113,4.0113,4.0113,4.0113,4.0113,4.0113,4.0113,4.0113,4.0113,4.0113,4.0113,4.0113,4.0113,4.0113,4.0113,4.0113,4.0113,4.0016,3.9636,3.9262,3.8908,3.8199,3.7526,3.6843,3.6196,3.5814,3.5506,3.5489,3.5489,3.5489,3.5489,3.5489,4.281,4.244,4.2381,4.2141,4.1719,4.1827,4.1705,4.137,4.0894,4.0666,4.0666,4.0666,4.0427,3.9948,3.9571,3.9481,3.9631,3.9481,3.9511,3.9631,3.966,4.0038,4.0606,4.0666,4.0127,3.917,3.8365,3.7346,3.6147,3.5556,3.5152,3.5152,3.5004,3.4803,3.4572,3.4198,3.3771,3.3545,3.3291,3.2995,3.2797,3.2679,3.2415,3.2209,3.4054,3.5415,3.5935,3.7851,3.9035,3.9316,3.9836,4.0311,4.0697,4.0702,4.0616,4.0447,4.0555,4.068,4.0675,4.0868,4.0744,4.0209,4.0405,4.0608,4.0506,4.0777,4.1014,4.1068,4.1305,4.1407,4.0801,3.9701,3.8954,3.8867,3.8386,3.809,3.8133,3.8759,3.9249,3.9289,3.9714,4.0113,4.0113,4.0113,4.0113,4.0113,4.0113,4.0113,4.0113,4.0113,4.0113,4.0113,4.0113,4.0113,4.0113,4.0113,4.0113,4.0113,4.01,4.0003,3.9863,3.9222,3.8465,3.8044,3.7127,3.6554,3.6228,3.575,3.5522,3.5506,3.5489,3.5489,3.5489,3.5489,3.5489,4.241,4.241,4.241,4.241,4.2351,4.2368,4.2019,4.1523,4.1403,4.1343,4.1373,4.1343,4.1343,4.1194,4.0068,3.9798,4.0217,3.975,3.9828,4.0337,4.0367,4.0696,4.1343,4.1305,4.0237,3.8491,3.8123,3.7192,3.5711,3.6076,3.6355,3.6256,3.5732,3.5732,3.5828,3.4625,3.4173,3.4349,3.3607,3.3057,3.3008,3.3726,3.4083,3.3991,3.4765,3.6059,3.7496,3.8469,3.9476,4.0723,4.0747,4.1079,4.1612,4.1676,4.136,4.0953,4.0839,4.0663,4.0334,4.0811,4.0896,4.0451,4.1318,4.188,4.1305,4.2185,4.278,4.3152,4.2422,4.1644,4.0556,3.9727,3.9134,3.9088,3.8941,3.892,3.8854,3.946,3.9965,3.9978,4.0016,4.0113,4.0113,4.0113,4.0113,4.0113,4.0113,4.0113,4.0113,4.0113,4.0113,4.0113,4.0113,4.0113,4.01,3.9914,3.9952,3.9889,3.9688,3.9714,3.9302,3.8772,3.7958,3.7291,3.6752,3.6243,3.575,3.5522,3.5506,3.5489,3.5489,3.5489,3.5489,3.5489,3.5489,4.297,4.297,4.297,4.297,4.294,4.2571,4.2451,4.2581,4.2182,4.2032,4.2051,4.2032,4.2032,4.1991,4.1104,4.0804,4.1014,4.0786,4.0834,4.1044,4.1044,4.1403,4.1914,4.1263,4.0367,3.928,3.8423,3.7404,3.6242,3.6306,3.6405,3.6381,3.6182,3.6031,3.5705,3.4901,3.4374,3.4142,3.3688,3.3566,3.3865,3.4824,3.5448,3.5691,3.6446,3.7377,3.8469,3.9249,4.0061,4.0851,4.0874,4.1196,4.1693,4.1418,4.1127,4.0909,4.0577,4.0282,4.0218,4.0811,4.1102,4.0933,4.1724,4.2232,4.2049,4.2388,4.2692,4.2658,4.2523,4.1948,4.155,4.0834,4.0353,4.0353,4.0353,4.0126,3.9835,3.994,4.0113,4.0113,4.0113,4.0113,4.0214,4.0113,4.0113,4.0113,4.0113,4.0146,4.0113,4.0113,4.0168,4.01,4.01,3.9914,3.9342,3.9328,3.9289,3.9156,3.9008,3.8621,3.8232,3.7772,3.7023,3.6783,3.6352,3.5975,3.5522,3.5506,3.5489,3.5489,3.5489,3.5489,3.5489,3.5489,3.5489,4.3489,4.3319,4.329,4.329,4.323,4.2851,4.291,4.325,4.288,4.269,4.269,4.269,4.269,4.2631,4.2192,4.2013,4.1953,4.1594,4.1523,4.1703,4.1733,4.2062,4.2425,4.149,4.0582,3.9721,3.8292,3.7127,3.6499,3.6405,3.6405,3.6405,3.6405,3.6182,3.5778,3.5418,3.5009,3.4691,3.4369,3.4531,3.5139,3.5692,3.6448,3.7266,3.7876,3.8372,3.8908,3.9662,4.0343,4.0792,4.0733,4.0815,4.115,4.0862,4.066,4.0613,4.0294,4.0235,4.0506,4.1136,4.1576,4.161,4.2469,4.2976,4.2726,4.2861,4.3044,4.301,4.276,4.2692,4.2841,4.2341,4.1847,4.1576,4.1339,4.1001,4.054,4.0235,4.0248,4.0472,4.0777,4.0823,4.0823,4.0811,4.0844,4.0823,4.0823,4.0811,4.0823,4.0811,4.0526,4.0202,4.0111,3.9568,3.8775,3.8316,3.84,3.8302,3.826,3.7804,3.7337,3.6828,3.6477,3.6243,3.5975,3.5637,3.5489,3.5489,3.5489,3.5489,3.5489,3.5489,3.5489,3.5489,3.5489,4.3938,4.3439,4.3339,4.3439,4.3489,4.3459,4.3369,4.3439,4.3399,4.3429,4.3459,4.3379,4.3429,4.3369,4.3369,4.3319,4.313,4.2222,4.1972,4.2361,4.241,4.269,4.3111,4.1872,4.059,3.9497,3.7497,3.6476,3.6405,3.6405,3.6405,3.6405,3.6405,3.645,3.6425,3.6266,3.624,3.6119,3.5621,3.5844,3.6788,3.655,3.7173,3.8628,3.8952,3.9001,3.9008,3.9688,4.0319,4.0709,4.0405,4.0138,4.0297,4.0201,4.0184,4.0324,4.018,4.0519,4.117,4.188,4.232,4.2455,4.3667,4.4093,4.3639,4.3992,4.4378,4.4228,4.3842,4.3673,4.4161,4.3741,4.3017,4.2388,4.1813,4.1428,4.1136,4.0574,4.0405,4.1102,4.169,4.2219,4.2252,4.2049,4.1995,4.1982,4.2016,4.1929,4.1768,4.1728,4.1453,4.0509,3.9967,3.9523,3.8354,3.7265,3.7413,3.7501,3.7487,3.7265,3.6783,3.6275,3.6102,3.5879,3.5798,3.5489,3.5489,3.5489,3.5489,3.5489,3.5489,3.5489,3.5489,3.5489,3.5489,4.4855,4.4676,4.4676,4.4676,4.4676,4.4676,4.4676,4.4676,4.4676,4.4676,4.4676,4.4676,4.4676,4.4676,4.4676,4.4676,4.4596,4.3778,4.3269,4.306,4.301,4.308,4.2871,4.1344,3.9404,3.7704,3.6779,3.6405,3.6405,3.6405,3.6405,3.6405,3.6405,3.6826,3.7416,3.6804,3.6625,3.7315,3.673,3.6808,3.7746,3.8375,3.9029,3.9681,4.0221,4.0238,3.9794,3.9965,4.0167,4.039,4.0192,4.0303,4.0663,4.0371,4.0608,4.142,4.1102,4.1183,4.1914,4.2625,4.3017,4.3234,4.4059,4.4432,4.4296,4.4465,4.4649,4.4615,4.4364,4.4364,4.4465,4.4398,4.391,4.3152,4.2848,4.2408,4.1948,4.1724,4.1724,4.188,4.2164,4.2286,4.232,4.2367,4.2435,4.2422,4.2374,4.2227,4.1661,4.1621,4.1082,4.0106,3.9847,3.9386,3.812,3.7281,3.7219,3.7002,3.6801,3.6708,3.6228,3.5975,3.5782,3.5637,3.5538,3.5489,3.5489,3.5489,3.5489,3.5489,3.5489,3.5489,3.5489,3.5489,3.5489,4.5514,4.5304,4.5274,4.5274,4.5274,4.5274,4.5274,4.5274,4.5274,4.5274,4.5274,4.5274,4.5274,4.5274,4.5274,4.5274,4.5244,4.4855,4.4466,4.4027,4.3758,4.3468,4.2737,4.0582,3.8451,3.6758,3.6405,3.6405,3.6405,3.6405,3.6405,3.6428,3.6803,3.7206,3.776,3.765,3.7848,3.8179,3.8044,3.8282,3.9107,3.9958,4.0569,4.0925,4.1365,4.136,4.0946,4.0912,4.0777,4.0641,4.0743,4.1149,4.1508,4.1217,4.1352,4.1961,4.1961,4.1948,4.2658,4.3118,4.3727,4.4201,4.4722,4.5176,4.5345,4.5413,4.5345,4.5074,4.5277,4.5277,4.5074,4.5007,4.4756,4.4336,4.366,4.3118,4.2489,4.2557,4.2692,4.2794,4.301,4.3112,4.3146,4.3146,4.3146,4.3132,4.2852,4.2601,4.192,4.163,4.0866,4.0181,3.9819,3.9013,3.7858,3.7335,3.7129,3.6649,3.614,3.5981,3.5686,3.5669,3.557,3.557,3.5489,3.5489,3.5489,3.5489,3.5489,3.5489,3.5489,3.5489,3.5489,3.5489,3.5489,4.5992,4.5424,4.5424,4.5514,4.5514,4.5514,4.5574,4.5484,4.5484,4.5544,4.5514,4.5603,4.5514,4.5454,4.5633,4.5633,4.5424,4.5394,4.5334,4.5063,4.4539,4.3604,4.2181,4.0173,3.8257,3.6747,3.6531,3.6457,3.6405,3.6405,3.6452,3.6709,3.7491,3.7982,3.8058,3.8962,3.9249,3.9314,3.9524,4.0071,4.1039,4.1238,4.1701,4.2362,4.2374,4.2333,4.2252,4.2469,4.2185,4.1576,4.188,4.2198,4.2401,4.2401,4.2367,4.2706,4.257,4.3031,4.3457,4.393,4.437,4.55,4.5703,4.6041,4.6496,4.6496,4.6293,4.5838,4.6259,4.638,4.5872,4.5771,4.5737,4.5553,4.4437,4.3369,4.2658,4.3098,4.3423,4.3592,4.4113,4.4533,4.435,4.4308,4.421,4.4082,4.3477,4.2903,4.2509,4.1724,4.1101,4.0438,3.9727,3.9073,3.8027,3.7778,3.7624,3.7424,3.6712,3.6237,3.5968,3.5938,3.5789,3.5729,3.5669,3.5639,3.5489,3.5519,3.5489,3.5489,3.5489,3.5489,3.5489,3.5489,3.5489,4.6929,4.677,4.677,4.68,4.677,4.677,4.677,4.677,4.6741,4.6681,4.6741,4.677,4.6681,4.677,4.6741,4.677,4.6621,4.6262,4.6031,4.5853,4.4856,4.3442,4.1898,4.0314,3.864,3.7204,3.6934,3.6783,3.643,3.6524,3.6922,3.7655,3.8085,3.8986,4.0161,3.9849,4.0421,4.1309,4.0729,4.1526,4.3079,4.2972,4.3159,4.3841,4.347,4.3186,4.3254,4.4201,4.4133,4.2916,4.2422,4.2875,4.3822,4.3504,4.3673,4.4485,4.4756,4.5094,4.5669,4.5805,4.6075,4.6413,4.6515,4.6597,4.6752,4.6786,4.6699,4.6549,4.6733,4.6752,4.6549,4.6515,4.6515,4.6327,4.5176,4.4248,4.4093,4.4127,4.4296,4.433,4.4533,4.4668,4.4479,4.4198,4.3795,4.3583,4.299,4.2238,4.1931,4.1495,4.0743,4.0065,3.9393,3.8973,3.8515,3.8282,3.8159,3.8202,3.774,3.7118,3.6939,3.6879,3.6626,3.6417,3.6297,3.6237,3.5789,3.5549,3.5519,3.5639,3.5519,3.5519,3.5489,3.5489,3.5489,4.7309,4.7309,4.7309,4.7309,4.7309,4.7309,4.7309,4.7309,4.7309,4.7309,4.7309,4.7309,4.7309,4.7309,4.7309,4.7309,4.7228,4.6899,4.6741,4.6388,4.4841,4.3036,4.1369,4.0005,3.8728,3.766,3.7311,3.7497,3.7745,3.7383,3.79,3.9074,3.9464,4.015,4.0871,4.1102,4.1352,4.2458,4.2282,4.3085,4.466,4.4825,4.5035,4.5389,4.5026,4.4823,4.4993,4.5703,4.5553,4.4606,4.4282,4.4635,4.5345,4.5128,4.5263,4.6143,4.6177,4.6346,4.6684,4.6786,4.6955,4.7192,4.7259,4.7428,4.7665,4.7699,4.7665,4.7327,4.753,4.753,4.7327,4.7259,4.709,4.6752,4.6022,4.5514,4.5514,4.5514,4.5514,4.5514,4.5514,4.5187,4.4706,4.4272,4.3828,4.3261,4.2493,4.1882,4.1392,4.0907,4.0519,3.999,3.9973,3.9916,3.9573,3.9265,3.9117,3.9098,3.8964,3.8305,3.7794,3.767,3.7285,3.6985,3.6926,3.6746,3.6357,3.6028,3.5998,3.5985,3.5729,3.5579,3.5609,3.5639,3.5609,4.7369,4.7309,4.7309,4.7309,4.7309,4.7309,4.7309,4.7309,4.7309,4.7309,4.7309,4.7309,4.7309,4.7309,4.7309,4.7309,4.7309,4.7198,4.7076,4.6351,4.4864,4.305,4.148,3.9895,3.9017,3.846,3.7831,3.865,3.9351,3.8918,3.9388,4.0526,4.1277,4.1315,4.1499,4.2011,4.2655,4.3234,4.381,4.461,4.5715,4.6215,4.6547,4.6978,4.7206,4.6902,4.6887,4.7158,4.7056,4.623,4.6616,4.6597,4.68,4.6868,4.6887,4.6955,4.7056,4.7173,4.709,4.7259,4.7361,4.7887,4.8022,4.8259,4.868,4.8849,4.8714,4.8056,4.8714,4.8612,4.8157,4.8022,4.7785,4.7394,4.7056,4.7037,4.6989,4.6887,4.6786,4.6756,4.6722,4.589,4.5183,4.4684,4.4513,4.3145,4.2396,4.2028,4.1735,4.1608,4.1024,4.0343,4.0653,4.1229,4.0781,4.0337,4.0221,4.0122,4.0118,3.9593,3.8663,3.8314,3.7867,3.7584,3.7554,3.7404,3.7118,3.6896,3.6673,3.6507,3.6387,3.6071,3.5802,3.5878,3.5908,4.7788,4.7309,4.7309,4.7309,4.7309,4.7309,4.7309,4.7339,4.7339,4.7369,4.7309,4.7309,4.7309,4.7309,4.7309,4.7309,4.7309,4.7244,4.6814,4.5756,4.5417,4.4228,4.2644,4.0711,3.9928,4.0008,4.0094,4.055,4.1027,4.0848,4.0918,4.2067,4.2084,4.2012,4.2763,4.3229,4.3879,4.4519,4.5048,4.6004,4.701,4.7143,4.7564,4.8409,4.9018,4.8714,4.8293,4.9341,4.9814,4.8984,4.7834,4.7394,4.7718,4.7785,4.7819,4.7921,4.8308,4.8545,4.8511,4.8545,4.8578,4.8781,4.8883,4.8849,4.8984,4.9593,4.9458,4.9086,4.939,4.9492,4.8969,4.88,4.8698,4.8578,4.8477,4.8477,4.8342,4.753,4.6989,4.6783,4.6359,4.5586,4.5202,4.4163,4.3668,4.2921,4.2655,4.2341,4.2323,4.2404,4.2002,4.148,4.2119,4.2719,4.2033,4.1664,4.1594,4.1492,4.1429,4.1059,4.0107,3.9235,3.8952,3.855,3.82,3.8033,3.7866,3.7477,3.7225,3.7135,3.7028,3.6789,3.655,3.6417,3.6267,4.8379,4.7788,4.7758,4.7578,4.7369,4.7608,4.7788,4.7758,4.7758,4.7758,4.7698,4.7459,4.7309,4.7309,4.7309,4.7309,4.7309,4.7287,4.6616,4.5666,4.532,4.4702,4.3622,4.2325,4.1723,4.2007,4.1785,4.2323,4.2957,4.2741,4.2882,4.4174,4.36,4.3845,4.4304,4.4598,4.5286,4.6175,4.6766,4.7664,4.8643,4.8935,4.9086,4.9898,5.0405,5.0153,4.9713,5.0457,5.0879,5.0439,4.9526,4.9018,4.9341,4.9442,4.9442,4.9544,4.9747,5.0017,5.0017,5.0017,5.0051,4.9999,5.0017,5.0017,5.0051,5.0439,5.0439,5.022,5.0322,5.0423,5.0085,5.0051,5.0017,4.995,4.9695,4.9526,4.9323,4.8526,4.7834,4.7774,4.7533,4.6797,4.5913,4.4782,4.4406,4.434,4.421,4.393,4.3964,4.3967,4.3633,4.3459,4.4052,4.4178,4.3395,4.3066,4.3064,4.3044,4.3009,4.2485,4.1726,4.0909,4.0185,3.9539,3.8811,3.8811,3.8614,3.8195,3.7853,3.7793,3.7674,3.7507,3.7298,3.7045,3.6926,4.9067,4.8468,4.8468,4.8117,4.7758,4.8229,4.8468,4.8438,4.8349,4.8229,4.8169,4.7608,4.7309,4.7309,4.7309,4.7309,4.7309,4.7266,4.6682,4.6032,4.5891,4.5366,4.4512,4.4233,4.4088,4.4013,4.3482,4.41,4.4893,4.4705,4.4658,4.5883,4.5532,4.5263,4.5691,4.6095,4.6707,4.7813,4.863,4.9309,5.0091,5.0626,5.0897,5.0998,5.1505,5.1336,5.11,5.1404,5.1573,5.1404,5.1472,5.1539,5.1505,5.1235,5.1201,5.1133,5.0998,5.0964,5.093,5.1032,5.1066,5.1201,5.1167,5.1133,5.1133,5.1201,5.1201,5.1133,5.11,5.11,5.1167,5.0998,5.1066,5.0998,5.0574,5.0304,5.0168,4.9695,4.9323,4.8772,4.7906,4.6979,4.6766,4.6132,4.5947,4.578,4.5617,4.5507,4.5515,4.5538,4.526,4.4994,4.5389,4.5569,4.4888,4.4686,4.4689,4.4578,4.4561,4.3982,4.3266,4.2231,4.1247,4.0058,3.9451,3.9361,3.9182,3.8823,3.8571,3.8452,3.8362,3.8255,3.8003,3.7674,3.7584,4.9703,4.9127,4.9127,4.9037,4.9,4.9097,4.9127,4.9037,4.8618,4.8297,4.8259,4.7638,4.7429,4.7399,4.7339,4.7339,4.7429,4.7326,4.7179,4.6895,4.6873,4.6528,4.6461,4.6195,4.6366,4.6344,4.5582,4.5663,4.641,4.6304,4.5964,4.6109,4.5807,4.592,4.6819,4.7442,4.8325,4.9289,5.0176,5.077,5.1001,5.1269,5.1438,5.1539,5.2351,5.2317,5.181,5.2418,5.2824,5.2266,5.2773,5.301,5.2757,5.1911,5.1438,5.1404,5.1438,5.1505,5.1472,5.1336,5.1269,5.1201,5.137,5.1336,5.1438,5.1742,5.1877,5.1539,5.137,5.1302,5.1201,5.1438,5.1302,5.1201,5.1167,5.1014,5.1014,5.0728,5.022,4.9479,4.8166,4.7173,4.7258,4.7176,4.676,4.6745,4.6913,4.6717,4.6585,4.6839,4.6995,4.673,4.6507,4.6566,4.6399,4.6361,4.6356,4.618,4.6029,4.5552,4.4671,4.3444,4.2302,4.1248,4.016,3.9541,3.9391,3.929,3.9152,3.8943,3.8973,3.899,3.8721,3.8392,3.8272,5.0338,4.9763,4.9793,4.9553,4.9396,4.9643,4.9763,4.9733,4.9411,4.9291,4.9105,4.8626,4.8327,4.8349,4.8349,4.8169,4.7818,4.7399,4.7519,4.7668,4.7489,4.7549,4.7668,4.7489,4.7339,4.7106,4.6682,4.6616,4.7214,4.6967,4.6822,4.689,4.6908,4.7474,4.8224,4.9126,4.9849,5.0643,5.1327,5.1826,5.1877,5.2114,5.2351,5.2655,5.2993,5.3044,5.2807,5.2926,5.3315,5.3078,5.3281,5.3467,5.3264,5.2892,5.2351,5.2317,5.2317,5.2351,5.2351,5.2401,5.2452,5.2418,5.2367,5.2385,5.2452,5.2706,5.2689,5.2486,5.2385,5.2385,5.2452,5.2317,5.2385,5.2317,5.2029,5.1792,5.1691,5.1438,5.0863,5.0168,4.9451,4.8759,4.8209,4.7965,4.7506,4.7622,4.7998,4.7912,4.7626,4.784,4.809,4.797,4.7665,4.7631,4.7597,4.7597,4.7579,4.7492,4.7295,4.6844,4.6142,4.4902,4.3786,4.2712,4.1565,4.0335,3.975,3.9709,3.9571,3.9421,3.9302,3.9212,3.9242,3.9152,3.8931,5.1206,5.0607,5.0607,5.0242,4.9816,5.0189,5.0375,5.0398,5.0249,5.0129,5.0129,4.9553,4.9217,4.9269,4.9209,4.8947,4.8468,4.7959,4.8087,4.8267,4.7878,4.7848,4.7997,4.7848,4.7549,4.7587,4.7491,4.7429,4.7287,4.7249,4.7409,4.7686,4.8481,4.9244,4.9837,5.0547,5.114,5.1782,5.2367,5.2773,5.3112,5.3416,5.3822,5.389,5.3822,5.3822,5.3923,5.3585,5.3687,5.3619,5.3619,5.3501,5.3501,5.3501,5.3501,5.3501,5.3501,5.3501,5.345,5.3416,5.3264,5.323,5.3399,5.3433,5.3399,5.3298,5.3399,5.3501,5.3433,5.3348,5.3264,5.3433,5.3399,5.3264,5.2875,5.2503,5.2435,5.2216,5.1844,5.1285,5.0827,5.0173,4.9391,4.8273,4.7704,4.8161,4.8561,4.8592,4.8404,4.85,4.8714,4.8815,4.8714,4.8714,4.868,4.8578,4.8511,4.8413,4.8259,4.7961,4.724,4.64,4.5231,4.3964,4.2744,4.1553,4.0848,4.0068,3.975,3.9571,3.9481,3.9391,3.9361,3.9331,3.9212,5.2576,5.1947,5.1947,5.1588,5.0996,5.1026,5.1056,5.0996,5.0488,5.0196,5.0255,4.9673,4.9396,4.9396,4.9389,4.9299,4.9127,4.8977,4.8947,4.9037,4.8468,4.8169,4.8297,4.8237,4.8027,4.7997,4.8087,4.7818,4.7608,4.7489,4.7898,4.8562,4.9099,4.9722,5.1461,5.199,5.227,5.318,5.3923,5.4566,5.4955,5.4668,5.4837,5.5006,5.4871,5.4702,5.4955,5.4346,5.3957,5.4296,5.3856,5.3585,5.3501,5.3501,5.3501,5.3501,5.3501,5.3501,5.3501,5.3501,5.3501,5.3501,5.3501,5.3501,5.3501,5.3501,5.3501,5.3501,5.3501,5.3501,5.3501,5.3501,5.3501,5.3467,5.3298,5.3213,5.3196,5.2909,5.252,5.2216,5.1725,5.1014,5.0292,4.9004,4.795,4.8561,4.9018,4.9086,4.912,4.9221,4.9458,4.9593,4.956,4.956,4.9323,4.9289,4.9086,4.9086,4.8925,4.8736,4.8044,4.7226,4.629,4.5056,4.378,4.259,4.1708,4.0905,4.0139,3.987,3.9918,3.969,3.9391,3.9421,3.9451,5.3737,5.2755,5.2779,5.2366,5.1798,5.1768,5.1535,5.1176,5.0907,5.0734,5.0727,5.0511,5.0361,5.0272,5.0032,4.9823,4.9733,4.9516,4.9546,4.9523,4.8925,4.8558,4.8618,4.8147,4.7848,4.8379,4.8349,4.8498,4.8229,4.8219,4.8516,4.9894,5.0596,5.1652,5.3064,5.3756,5.4266,5.4733,5.5056,5.5378,5.553,5.5428,5.5395,5.5699,5.5395,5.5496,5.5462,5.5225,5.4634,5.4769,5.4532,5.4296,5.3974,5.4177,5.4634,5.416,5.4566,5.4346,5.367,5.3534,5.3568,5.3551,5.3551,5.3501,5.3501,5.3534,5.3534,5.3501,5.3501,5.3501,5.3501,5.3501,5.3501,5.3501,5.3501,5.3501,5.3501,5.3518,5.3213,5.2909,5.257,5.1894,5.1319,5.057,4.9673,4.9747,5.0033,4.9999,4.9864,4.9744,5.0033,5.0423,5.0356,5.0254,4.9965,4.9729,4.9357,4.9255,4.9052,4.8848,4.8545,4.7836,4.6797,4.573,4.4413,4.3359,4.2491,4.1624,4.0756,4.0546,4.0427,4.0247,4.0049,3.9571,3.9571,5.4581,5.3707,5.3528,5.2965,5.2217,5.2187,5.1828,5.1236,5.1176,5.1176,5.1206,5.1146,5.1146,5.1116,5.0667,5.0458,5.0428,4.9972,5.0062,4.992,4.9471,4.9164,4.9194,4.8596,4.8446,4.8775,4.9254,4.9404,4.9576,4.9674,5.0156,5.1278,5.179,5.313,5.4343,5.5035,5.5529,5.5867,5.619,5.6443,5.6646,5.668,5.6612,5.6544,5.6375,5.6258,5.6224,5.5733,5.5293,5.548,5.5108,5.4769,5.4448,5.4735,5.5108,5.4905,5.5293,5.5124,5.4414,5.4093,5.3923,5.3991,5.4059,5.4245,5.4177,5.4042,5.389,5.3923,5.3839,5.3737,5.3534,5.3501,5.3501,5.3501,5.3501,5.3501,5.3501,5.3585,5.3551,5.3281,5.301,5.2875,5.2367,5.2046,5.1626,5.1236,5.1066,5.093,5.071,5.0439,5.0608,5.0964,5.093,5.0728,5.0304,4.9999,4.9661,4.9492,4.9323,4.8886,4.8536,4.7918,4.6968,4.59,4.4858,4.3956,4.3025,4.2188,4.1433,4.1343,4.1224,4.1074,4.0786,4.0236,3.9828,5.5149,5.4999,5.4401,5.3414,5.2217,5.2187,5.1858,5.1206,5.1206,5.1206,5.1206,5.1206,5.1206,5.1176,5.1116,5.1026,5.1086,5.1109,5.0996,5.0787,5.0458,5.0009,4.986,4.974,4.98,5.0046,5.0308,5.069,5.1169,5.1432,5.184,5.2431,5.3029,5.4016,5.5147,5.6143,5.6646,5.707,5.7476,5.8051,5.8371,5.854,5.8573,5.849,5.8084,5.7712,5.7645,5.6596,5.6003,5.6325,5.575,5.5243,5.5225,5.5344,5.5513,5.5665,5.5919,5.5868,5.5547,5.4972,5.4938,5.531,5.5395,5.5225,5.5158,5.5395,5.5192,5.46,5.4532,5.4262,5.389,5.3534,5.3873,5.389,5.3957,5.3788,5.3754,5.3721,5.3687,5.3551,5.345,5.3348,5.3145,5.2757,5.2452,5.2046,5.1573,5.1404,5.1472,5.1319,5.1251,5.137,5.137,5.1066,5.0473,5.0304,5.0507,5.0236,4.9932,4.9165,4.8446,4.7736,4.7348,4.611,4.5109,4.4308,4.3514,4.2657,4.2073,4.2092,4.1942,4.1613,4.1584,4.1305,4.0833,5.5234,5.5149,5.491,5.4042,5.2785,5.2839,5.2187,5.1295,5.1206,5.1206,5.1206,5.1206,5.1206,5.1206,5.1206,5.1206,5.1206,5.1206,5.1236,5.0966,5.0578,5.0255,5.0129,5.0099,4.9972,5.0727,5.1176,5.1768,5.2426,5.2846,5.3373,5.3854,5.4613,5.5604,5.6674,5.7655,5.8386,5.866,5.9032,5.9471,5.9539,5.9674,5.9708,5.9607,5.8964,5.8626,5.8423,5.7611,5.7137,5.6799,5.6596,5.6258,5.6003,5.619,5.6427,5.6511,5.6799,5.7002,5.6765,5.6003,5.5462,5.553,5.5665,5.5767,5.5936,5.5767,5.5631,5.5344,5.5277,5.504,5.4955,5.4853,5.4921,5.4769,5.4532,5.4262,5.416,5.416,5.4059,5.4025,5.4025,5.3957,5.3721,5.3399,5.3095,5.279,5.2334,5.1995,5.2097,5.2164,5.2097,5.2148,5.2182,5.1911,5.1352,5.1352,5.1438,5.098,5.0491,4.9853,4.9127,4.8513,4.7923,4.6606,4.5298,4.4427,4.3663,4.3008,4.2681,4.2671,4.2361,4.1912,4.2002,4.221,4.1889,5.5234,5.5234,5.5234,5.4401,5.3288,5.3198,5.2426,5.1349,5.1206,5.1206,5.1206,5.1206,5.1206,5.1206,5.1206,5.1206,5.1265,5.1439,5.1498,5.1445,5.1325,5.1086,5.096,5.096,5.1259,5.1708,5.2073,5.2725,5.3049,5.3917,5.4409,5.5328,5.679,5.7753,5.7924,5.9424,6.0332,6.0182,6.0622,6.0588,6.0554,6.0723,6.0588,6.052,5.9979,5.9351,5.9013,5.8355,5.7814,5.7442,5.7189,5.7036,5.7002,5.7137,5.7611,5.7814,5.8051,5.8441,5.7949,5.7205,5.6375,5.6544,5.6528,5.6596,5.6578,5.6477,5.6461,5.6037,5.6003,5.5969,5.5868,5.553,5.5462,5.5259,5.5141,5.4938,5.4938,5.4905,5.4702,5.4532,5.46,5.4769,5.4499,5.4177,5.3687,5.3365,5.2993,5.2773,5.2875,5.2909,5.2875,5.301,5.3162,5.2807,5.2435,5.2401,5.2216,5.137,5.0967,5.0791,5.0193,4.9474,4.8299,4.6829,4.5596,4.4547,4.3864,4.3368,4.324,4.323,4.289,4.2537,4.255,4.2732,4.2811,5.5239,5.5234,5.5234,5.4431,5.3318,5.3228,5.2486,5.1385,5.1236,5.1206,5.1206,5.1206,5.1206,5.1206,5.1206,5.1265,5.1445,5.1858,5.2127,5.2187,5.2456,5.2845,5.2839,5.269,5.251,5.3198,5.3414,5.3443,5.3408,5.4983,5.5575,5.6138,5.7732,5.9446,5.8617,6.0301,6.0854,6.0486,6.167,6.1839,6.167,6.1907,6.1806,6.1535,6.1028,6.0298,5.9622,5.9148,5.866,5.8272,5.7712,5.7679,5.7983,5.7983,5.8389,5.8863,5.9471,5.9539,5.8979,5.8254,5.7915,5.7848,5.7848,5.8051,5.8472,5.8287,5.7577,5.7153,5.6968,5.6562,5.6139,5.5834,5.5936,5.5936,5.5886,5.5683,5.5683,5.5683,5.548,5.5175,5.5428,5.5631,5.5361,5.5006,5.4329,5.3923,5.3602,5.3501,5.3518,5.3416,5.3315,5.3348,5.3501,5.323,5.2909,5.3213,5.296,5.2046,5.1526,5.1497,5.0807,4.9788,4.8505,4.709,4.5931,4.4939,4.4355,4.3848,4.4042,4.4224,4.3654,4.3326,4.3298,4.3452,4.3794,5.5863,5.5833,5.5388,5.467,5.3922,5.3862,5.3084,5.1917,5.1415,5.1206,5.1206,5.1206,5.1206,5.1206,5.1349,5.1475,5.1887,5.1977,5.2306,5.2875,5.3228,5.3139,5.3228,5.3408,5.3473,5.3803,5.4162,5.4461,5.4606,5.5827,5.5662,5.6028,5.8431,5.9876,6.0965,6.2147,6.2381,6.2042,6.2922,6.3531,6.2868,6.297,6.2936,6.2598,6.1839,6.1028,6.0385,5.9979,5.9539,5.9235,5.8727,5.893,5.9201,5.9235,5.9438,5.9708,6.0114,6.0013,5.9742,5.9438,5.937,5.9336,5.9268,5.9336,5.9641,5.9573,5.8998,5.8423,5.8118,5.7712,5.7374,5.7205,5.7205,5.7103,5.6934,5.6562,5.6427,5.6427,5.6292,5.5936,5.5936,5.5936,5.5767,5.5683,5.5141,5.4566,5.4245,5.3771,5.3653,5.3551,5.3433,5.3433,5.3467,5.3365,5.3298,5.3433,5.3467,5.2824,5.2505,5.2504,5.1567,5.0314,4.9208,4.8082,4.6656,4.534,4.5295,4.5253,4.5285,4.5214,4.4899,4.468,4.4775,4.4991,4.5336,5.6218,5.6132,5.5448,5.494,5.4551,5.4311,5.3563,5.2576,5.2097,5.1887,5.1917,5.1917,5.1947,5.1947,5.1947,5.2037,5.2546,5.2845,5.2995,5.3588,5.3857,5.3977,5.3977,5.3887,5.4221,5.4461,5.4581,5.479,5.5135,5.5887,5.7033,5.8382,5.9311,6.1357,6.2689,6.3288,6.3396,6.3294,6.4038,6.4275,6.3835,6.3646,6.3477,6.3071,6.2415,6.1535,6.1231,6.0825,6.0419,6.025,6.0148,6.0148,6.0182,6.0385,6.0486,6.052,6.052,6.0655,6.0825,6.0554,6.0588,6.0858,6.0486,6.0283,6.0317,6.0148,5.9844,5.9438,5.9216,5.8964,5.8626,5.849,5.8118,5.8001,5.8051,5.7645,5.7814,5.7814,5.7509,5.7119,5.668,5.6562,5.624,5.6122,5.5919,5.5395,5.4887,5.4414,5.3923,5.3788,5.367,5.3619,5.3568,5.3484,5.3399,5.3467,5.3501,5.3501,5.3314,5.3093,5.2301,5.1062,5.0046,4.9138,4.811,4.7265,4.6918,4.6816,4.7034,4.6904,4.6564,4.6397,4.6293,4.6279,4.6349,5.6218,5.6102,5.5474,5.5204,5.5059,5.4551,5.3862,5.3198,5.3139,5.3109,5.3079,5.2959,5.2959,5.3079,5.3084,5.3114,5.3288,5.3803,5.4042,5.4311,5.461,5.4875,5.4995,5.4995,5.491,5.5029,5.5144,5.5114,5.545,5.6921,5.9191,6.1355,6.1717,6.3145,6.3954,6.4275,6.414,6.4275,6.4749,6.4884,6.4647,6.414,6.4018,6.37,6.3125,6.2347,6.1941,6.1535,6.1061,6.0723,6.0419,6.0385,6.0554,6.0994,6.1264,6.1467,6.1535,6.1941,6.2245,6.1907,6.1839,6.2009,6.1197,6.0994,6.0926,6.0858,6.0554,6.0182,5.9844,5.9877,5.9776,5.9235,5.8727,5.8896,5.9167,5.9235,5.9505,5.9404,5.8998,5.8592,5.8084,5.7679,5.7036,5.6799,5.6697,5.6325,5.5868,5.5462,5.4938,5.4296,5.4126,5.3822,5.3754,5.3585,5.3585,5.3534,5.3501,5.3501,5.3416,5.3179,5.2438,5.1837,5.1038,5.0276,4.9786,4.9157,4.8399,4.8459,4.897,4.874,4.8359,4.7913,4.7798,4.681,4.6713,5.6218,5.6132,5.5448,5.5234,5.5179,5.497,5.4281,5.3288,5.3198,5.2989,5.2486,5.3019,5.3348,5.3198,5.3198,5.3503,5.3862,5.4162,5.4521,5.482,5.5059,5.5149,5.5234,5.5234,5.5234,5.5234,5.5294,5.5529,5.6258,5.7831,5.9825,6.1781,6.2747,6.4117,6.5119,6.5425,6.5053,6.4986,6.5595,6.5628,6.5459,6.5019,6.4918,6.4681,6.414,6.3429,6.2956,6.2787,6.2381,6.1907,6.2279,6.2463,6.2564,6.3226,6.3666,6.3666,6.37,6.3768,6.3869,6.3768,6.3497,6.3193,6.2651,6.2347,6.2144,6.1772,6.14,6.096,6.0588,6.0554,6.0351,5.9877,5.9674,5.9911,6.008,6.0114,6.0317,6.0182,5.9844,5.9438,5.8964,5.8423,5.7814,5.7577,5.7476,5.7171,5.6867,5.6427,5.5868,5.5192,5.4702,5.4363,5.4262,5.4228,5.3754,5.3653,5.3534,5.3501,5.345,5.3263,5.2645,5.2119,5.1813,5.1416,5.0892,5.0242,4.9499,4.982,5.0343,5.0541,5.0241,4.9707,4.9109,4.8249,4.7701,5.6218,5.6102,5.5504,5.5234,5.5234,5.5204,5.4551,5.3743,5.3887,5.3713,5.3473,5.3857,5.4127,5.4396,5.4276,5.4396,5.4995,5.476,5.485,5.5029,5.5234,5.5234,5.5234,5.5209,5.5234,5.5239,5.5504,5.5833,5.6807,5.8494,6.0516,6.2387,6.3156,6.4815,6.6023,6.6271,6.5933,6.5967,6.6149,6.6406,6.6203,6.5852,6.5717,6.5615,6.5019,6.4444,6.4018,6.3937,6.3666,6.3328,6.3835,6.3937,6.3937,6.4343,6.4546,6.4444,6.4444,6.441,6.441,6.4478,6.4275,6.4106,6.3917,6.37,6.3159,6.2685,6.2212,6.1738,6.1434,6.1163,6.0858,6.0588,6.0757,6.096,6.0858,6.0757,6.0757,6.0723,6.0452,6.008,5.9607,5.9099,5.8693,5.849,5.8152,5.7712,5.7476,5.7306,5.6697,5.5936,5.5428,5.5074,5.5006,5.4938,5.4431,5.4025,5.3957,5.3856,5.3568,5.3314,5.2781,5.2645,5.2575,5.2319,5.1996,5.1451,5.1055,5.1179,5.156,5.1708,5.1641,5.1005,5.0488,5.0073,4.9706,5.6162,5.6132,5.5478,5.5234,5.5234,5.5204,5.485,5.4376,5.482,5.5089,5.497,5.5114,5.5329,5.5384,5.5144,5.5234,5.5414,5.5209,5.5029,5.5234,5.5234,5.5264,5.5388,5.5299,5.5568,5.5628,5.5974,5.6607,5.7369,5.924,6.1585,6.314,6.442,6.5733,6.653,6.669,6.6508,6.6521,6.6588,6.669,6.6576,6.6203,6.5784,6.573,6.529,6.4816,6.4749,6.4681,6.4647,6.4613,6.4681,6.4681,6.4884,6.4952,6.4952,6.4986,6.5121,6.5121,6.5155,6.5155,6.4952,6.4783,6.4681,6.4512,6.4005,6.3497,6.3024,6.255,6.2245,6.1975,6.167,6.1298,6.1332,6.1501,6.1569,6.1569,6.1603,6.1434,6.1095,6.0757,6.0385,5.9844,5.9336,5.9066,5.8795,5.8287,5.8051,5.7983,5.7476,5.6713,5.6274,5.5868,5.5784,5.5649,5.5277,5.4871,5.46,5.4363,5.3991,5.3585,5.3178,5.3263,5.3467,5.3094,5.2702,5.3026,5.2927,5.2739,5.2503,5.2706,5.252,5.2046,5.1693,5.1425,5.1003,5.5743,5.6132,5.5448,5.5234,5.5234,5.5234,5.5119,5.497,5.5119,5.497,5.461,5.4999,5.5359,5.5658,5.5534,5.5564,5.5538,5.5658,5.5294,5.5294,5.5294,5.5564,5.5863,5.5863,5.6107,5.6555,5.7011,5.7613,5.8889,6.0901,6.2892,6.4335,6.5537,6.6482,6.6749,6.6791,6.6791,6.6791,6.6927,6.6927,6.6825,6.6757,6.6542,6.6508,6.6237,6.5967,6.5797,6.5514,6.5121,6.4783,6.5222,6.5662,6.6216,6.6216,6.625,6.625,6.6081,6.6047,6.6047,6.6,6.5831,6.5527,6.5358,6.5053,6.4681,6.4309,6.3869,6.3429,6.3057,6.2787,6.2516,6.2178,6.1941,6.2144,6.2347,6.2434,6.2502,6.2144,6.1806,6.1467,6.1129,6.0622,6.0047,5.9674,5.9404,5.9133,5.8844,5.8607,5.8186,5.7577,5.7239,5.6867,5.6596,5.6393,5.6055,5.5649,5.531,5.4905,5.4532,5.4093,5.3653,5.3687,5.3754,5.3568,5.3416,5.3501,5.3501,5.3399,5.3298,5.3382,5.3281,5.2723,5.2757,5.2639,5.2014,5.5388,5.5713,5.5384,5.5384,5.5623,5.5653,5.5653,5.5653,5.5653,5.5418,5.5174,5.5504,5.5897,5.6256,5.6196,5.6137,5.6226,5.6166,5.5983,5.5773,5.5683,5.5863,5.6102,5.6312,5.6551,5.6974,5.7479,5.8394,6.005,6.181,6.3417,6.4492,6.5757,6.6859,6.6825,6.6825,6.6859,6.6825,6.7117,6.7286,6.7231,6.7062,6.7083,6.7117,6.7218,6.7083,6.7252,6.6948,6.6474,6.6068,6.6271,6.6271,6.6622,6.6656,6.6724,6.6724,6.669,6.6791,6.6791,6.6724,6.6588,6.6271,6.617,6.5899,6.5878,6.5506,6.4918,6.4478,6.4038,6.3734,6.37,6.3429,6.3396,6.3531,6.3565,6.3599,6.3429,6.3125,6.2854,6.2564,6.211,6.1434,6.0926,6.0622,6.0283,5.9742,5.9505,5.9419,5.8964,5.8423,5.8118,5.778,5.7476,5.7273,5.7036,5.6494,5.5953,5.5513,5.5108,5.4668,5.4296,5.4126,5.3991,5.3687,5.3501,5.3501,5.3501,5.3501,5.3501,5.3433,5.3467,5.3365,5.3501,5.3501,5.2926,5.5209,5.5234,5.5299,5.5653,5.6162,5.6192,5.6188,5.6162,5.6192,5.6162,5.6162,5.6342,5.7124,5.7423,5.7334,5.7543,5.7453,5.6885,5.6611,5.6282,5.6282,5.6551,5.6641,5.6641,5.712,5.7727,5.8362,5.9152,6.0288,6.2267,6.3773,6.4049,6.5369,6.6994,6.7028,6.7129,6.7332,6.7523,6.7793,6.803,6.7793,6.7468,6.7692,6.7895,6.8098,6.8436,6.8639,6.8402,6.7929,6.7523,6.7015,6.6812,6.6757,6.6791,6.6791,6.6791,6.6791,6.6791,6.6791,6.6791,6.6757,6.6724,6.6791,6.6791,6.6724,6.6419,6.5831,6.5459,6.5019,6.4647,6.4613,6.4546,6.4546,6.4546,6.4546,6.4546,6.4275,6.4005,6.3802,6.3545,6.2936,6.2245,6.1941,6.1637,6.1095,6.052,6.0216,6.0182,5.9945,5.937,5.8896,5.8558,5.822,5.8051,5.7832,5.7306,5.663,5.619,5.575,5.531,5.4871,5.4499,5.4093,5.3636,5.3501,5.3534,5.3501,5.3501,5.3501,5.3501,5.3501,5.3501,5.3501,5.3501,5.3501,5.5234,5.5239,5.5773,5.6102,5.6222,5.6222,5.6218,5.6248,5.6222,5.6218,5.6462,5.7274,5.7723,5.7274,5.6671,5.6735,5.7304,5.718,5.6791,5.6282,5.6791,5.7244,5.7513,5.7513,5.8112,5.8787,5.9649,6.0941,6.1237,6.3172,6.5299,6.6479,6.6811,6.7898,6.8571,6.8538,6.8436,6.8504,6.8605,6.8842,6.8876,6.8707,6.8741,6.8842,6.8876,6.8977,6.8876,6.8301,6.7996,6.7692,6.7332,6.7062,6.6927,6.6927,6.6893,6.6859,6.6859,6.6981,6.6981,6.7117,6.7184,6.6981,6.6981,6.6859,6.6825,6.6757,6.6352,6.6284,6.5831,6.5222,6.5053,6.4884,6.485,6.485,6.485,6.485,6.4715,6.458,6.4444,6.412,6.3714,6.3328,6.3091,6.2618,6.1907,6.1434,6.1095,6.0994,6.0554,6.0114,5.9689,5.9351,5.8998,5.8423,5.8001,5.7832,5.7306,5.6867,5.6427,5.5919,5.5344,5.4702,5.4262,5.3923,5.3653,5.3568,5.3568,5.3585,5.3551,5.3551,5.3501,5.3501,5.3501,5.3501,5.3501]}]]